[[{"header":{"parameterUnit":"m.s-1","parameterCategory":1,"la1":30.6,"la2":29.2853,"lo1":-89.7004,"lo2":-87.6739,"dy":0.0162,"dx":0.0183,"nx":112,"ny":82,"refTime":"2024-03-21T06:00:00:Z","depth":0,"parameterNumber":2,"parameterNumberName":"U-component_of_WINDS"},"data":[0.0,0.0,0.0,0.0,0.0,0.0,0.0,0.0,0.0,0.0,0.0,0.0,0.0,0.0,0.0,0.0,0.0,0.0,0.0,0.0,0.0,0.0,0.0,0.0,0.0,0.0,0.0,0.0,0.0,0.0,0.0,0.0,0.0,0.0,0.0,0.0,0.0,0.0,0.0,0.0,0.0,0.0,0.0,0.0,0.0,0.0,0.0,0.0,0.0,0.0,0.0,0.0,0.0,0.0,0.0,0.0,0.0,0.0,0.0,0.0,0.0,0.0,0.0,0.0,0.0,0.0,0.0,0.0,0.0,0.0,0.0,0.0,0.0,0.0,0.0,0.0,0.0,0.0,0.0,0.0,0.0,0.0,0.0,0.0,0.0,0.0,0.0,0.0,0.0,0.0,-3.8316,-3.8378,-3.8109,-3.7618,-3.6853,-3.6785,-3.6601,-3.6211,0.0,0.0,0.0,0.0,0.0,0.0,0.0,0.0,0.0,0.0,0.0,0.0,0.0,0.0,0.0,0.0,0.0,0.0,0.0,0.0,0.0,0.0,0.0,0.0,0.0,0.0,0.0,0.0,0.0,0.0,0.0,0.0,0.0,0.0,0.0,0.0,0.0,0.0,0.0,0.0,0.0,0.0,0.0,0.0,0.0,0.0,0.0,0.0,0.0,0.0,0.0,0.0,0.0,0.0,0.0,0.0,0.0,0.0,0.0,0.0,0.0,0.0,0.0,0.0,0.0,0.0,0.0,0.0,0.0,0.0,0.0,0.0,0.0,0.0,0.0,0.0,0.0,0.0,0.0,0.0,0.0,0.0,0.0,0.0,0.0,0.0,0.0,0.0,0.0,0.0,0.0,0.0,0.0,0.0,0.0,0.0,0.0,0.0,0.0,0.0,0.0,0.0,0.0,0.0,-3.8827,-3.9288,-3.9261,-3.8897,-3.8185,-3.8116,-3.7858,-3.7179,0.0,0.0,0.0,0.0,0.0,0.0,0.0,0.0,0.0,0.0,0.0,0.0,0.0,0.0,0.0,0.0,0.0,0.0,0.0,0.0,0.0,0.0,0.0,0.0,0.0,0.0,0.0,0.0,0.0,0.0,0.0,0.0,0.0,0.0,0.0,0.0,0.0,0.0,0.0,0.0,0.0,0.0,0.0,0.0,0.0,0.0,0.0,0.0,0.0,0.0,0.0,0.0,0.0,0.0,0.0,0.0,0.0,0.0,0.0,0.0,0.0,0.0,0.0,0.0,0.0,0.0,0.0,0.0,0.0,0.0,0.0,0.0,0.0,0.0,0.0,0.0,0.0,0.0,0.0,0.0,0.0,0.0,0.0,0.0,0.0,0.0,0.0,0.0,0.0,0.0,0.0,0.0,0.0,0.0,0.0,0.0,0.0,0.0,0.0,0.0,0.0,0.0,0.0,-3.9102,-3.9241,-3.9447,-3.9468,-3.9191,-3.8476,-3.8386,-3.8127,-3.7375,-3.7143,0.0,0.0,0.0,0.0,0.0,0.0,0.0,0.0,0.0,0.0,0.0,0.0,0.0,0.0,0.0,0.0,0.0,0.0,0.0,0.0,0.0,0.0,0.0,0.0,0.0,0.0,0.0,0.0,0.0,0.0,0.0,0.0,0.0,0.0,0.0,0.0,0.0,0.0,0.0,0.0,0.0,0.0,0.0,0.0,0.0,0.0,0.0,0.0,0.0,0.0,0.0,0.0,0.0,0.0,0.0,0.0,0.0,0.0,0.0,0.0,0.0,0.0,0.0,0.0,0.0,0.0,0.0,0.0,0.0,0.0,0.0,0.0,0.0,0.0,0.0,0.0,0.0,0.0,0.0,0.0,0.0,0.0,0.0,0.0,0.0,0.0,0.0,0.0,0.0,0.0,0.0,0.0,0.0,0.0,0.0,0.0,0.0,0.0,0.0,0.0,0.0,0.0,-3.9702,-3.9744,-3.9847,-3.9847,-3.9499,-3.8778,-3.8708,-3.8356,-3.7669,-3.7901,0.0,0.0,0.0,0.0,0.0,0.0,0.0,0.0,0.0,0.0,0.0,0.0,0.0,0.0,0.0,0.0,0.0,0.0,0.0,0.0,0.0,0.0,0.0,0.0,0.0,0.0,0.0,0.0,0.0,0.0,0.0,0.0,0.0,0.0,0.0,0.0,0.0,0.0,0.0,0.0,0.0,0.0,0.0,0.0,0.0,0.0,0.0,0.0,0.0,0.0,0.0,0.0,0.0,0.0,0.0,0.0,0.0,0.0,0.0,0.0,0.0,0.0,0.0,0.0,0.0,0.0,0.0,0.0,0.0,0.0,0.0,0.0,0.0,0.0,0.0,0.0,0.0,0.0,0.0,0.0,0.0,0.0,0.0,0.0,0.0,0.0,0.0,0.0,0.0,0.0,0.0,0.0,0.0,0.0,0.0,0.0,0.0,0.0,0.0,0.0,0.0,0.0,-4.0158,-4.0344,-4.0737,-4.0779,-4.0494,-3.9685,-3.9614,-3.9273,-3.8569,-3.8569,0.0,0.0,0.0,0.0,0.0,0.0,0.0,0.0,0.0,0.0,0.0,0.0,0.0,0.0,0.0,0.0,0.0,0.0,0.0,0.0,0.0,0.0,0.0,0.0,0.0,0.0,0.0,0.0,0.0,0.0,0.0,0.0,0.0,0.0,0.0,0.0,0.0,0.0,0.0,0.0,0.0,0.0,0.0,0.0,0.0,0.0,0.0,0.0,0.0,0.0,0.0,0.0,0.0,0.0,0.0,0.0,0.0,0.0,0.0,0.0,0.0,0.0,0.0,0.0,0.0,0.0,0.0,0.0,0.0,0.0,0.0,0.0,0.0,0.0,0.0,0.0,0.0,0.0,0.0,0.0,0.0,0.0,0.0,0.0,0.0,0.0,0.0,0.0,0.0,0.0,0.0,0.0,0.0,0.0,0.0,0.0,0.0,0.0,0.0,0.0,0.0,0.0,-4.0634,-4.0696,-4.0862,-4.0882,-4.0668,-4.0094,-4.0094,-3.9878,-3.9281,0.0,0.0,0.0,0.0,0.0,0.0,0.0,0.0,0.0,0.0,0.0,0.0,0.0,0.0,0.0,0.0,0.0,0.0,0.0,0.0,0.0,0.0,0.0,0.0,0.0,0.0,0.0,0.0,0.0,0.0,0.0,0.0,0.0,0.0,0.0,0.0,0.0,0.0,0.0,0.0,0.0,0.0,0.0,0.0,0.0,0.0,0.0,0.0,0.0,0.0,0.0,0.0,0.0,0.0,0.0,0.0,0.0,0.0,0.0,0.0,0.0,0.0,0.0,0.0,0.0,0.0,0.0,0.0,0.0,0.0,0.0,0.0,0.0,0.0,0.0,0.0,0.0,0.0,0.0,0.0,0.0,0.0,0.0,0.0,0.0,0.0,0.0,0.0,0.0,0.0,0.0,0.0,0.0,0.0,0.0,0.0,0.0,0.0,0.0,0.0,0.0,0.0,-4.0882,-4.0882,-4.0882,-4.0882,-4.0882,-4.074,-4.031,-4.0166,-4.0002,-3.9714,0.0,0.0,0.0,0.0,0.0,0.0,0.0,0.0,0.0,0.0,0.0,0.0,0.0,0.0,0.0,0.0,0.0,0.0,0.0,0.0,0.0,0.0,0.0,0.0,0.0,0.0,0.0,0.0,0.0,0.0,0.0,0.0,0.0,0.0,0.0,0.0,0.0,0.0,0.0,0.0,0.0,0.0,0.0,0.0,0.0,0.0,0.0,0.0,0.0,0.0,0.0,0.0,0.0,0.0,0.0,0.0,0.0,0.0,0.0,0.0,0.0,0.0,0.0,0.0,0.0,0.0,0.0,0.0,0.0,0.0,0.0,0.0,0.0,0.0,0.0,0.0,0.0,0.0,0.0,0.0,0.0,0.0,0.0,0.0,0.0,0.0,0.0,0.0,0.0,0.0,0.0,0.0,0.0,0.0,0.0,0.0,0.0,0.0,0.0,0.0,0.0,0.0,-4.0882,-4.0882,-4.0882,-4.0882,-4.0882,-4.074,-4.031,-3.993,-3.9714,0.0,0.0,0.0,0.0,0.0,0.0,0.0,0.0,0.0,0.0,0.0,0.0,0.0,0.0,0.0,0.0,0.0,0.0,0.0,0.0,0.0,0.0,0.0,0.0,0.0,0.0,0.0,0.0,0.0,0.0,0.0,0.0,0.0,0.0,0.0,0.0,0.0,0.0,0.0,0.0,0.0,0.0,0.0,0.0,0.0,0.0,0.0,0.0,0.0,0.0,0.0,0.0,0.0,0.0,0.0,0.0,0.0,0.0,0.0,0.0,0.0,0.0,0.0,0.0,0.0,0.0,0.0,0.0,0.0,0.0,0.0,0.0,0.0,0.0,0.0,0.0,0.0,0.0,0.0,0.0,0.0,0.0,0.0,0.0,0.0,0.0,0.0,0.0,0.0,0.0,0.0,0.0,0.0,0.0,0.0,0.0,0.0,0.0,0.0,0.0,0.0,0.0,0.0,-4.0882,-4.0882,-4.0882,-4.0882,-4.0882,-4.0882,-4.074,-4.0576,-4.0525,-4.0525,0.0,0.0,0.0,0.0,0.0,0.0,0.0,0.0,0.0,0.0,0.0,0.0,0.0,0.0,0.0,0.0,0.0,0.0,0.0,0.0,0.0,0.0,0.0,0.0,0.0,0.0,0.0,0.0,0.0,0.0,0.0,0.0,0.0,0.0,0.0,0.0,0.0,0.0,0.0,0.0,0.0,0.0,0.0,0.0,0.0,0.0,0.0,0.0,0.0,0.0,0.0,0.0,0.0,0.0,0.0,0.0,0.0,0.0,0.0,0.0,0.0,0.0,0.0,0.0,0.0,0.0,0.0,0.0,0.0,0.0,0.0,0.0,0.0,0.0,0.0,0.0,0.0,0.0,0.0,0.0,0.0,0.0,0.0,0.0,0.0,0.0,0.0,0.0,0.0,0.0,0.0,0.0,0.0,0.0,0.0,0.0,0.0,0.0,0.0,0.0,0.0,0.0,-4.0882,-4.1027,-4.1151,-4.1151,-4.1317,-4.1358,-4.1172,-4.1008,-4.0853,-4.0668,0.0,0.0,0.0,0.0,0.0,0.0,0.0,0.0,0.0,0.0,0.0,0.0,0.0,0.0,0.0,0.0,0.0,0.0,0.0,0.0,0.0,0.0,0.0,0.0,0.0,0.0,0.0,0.0,0.0,0.0,0.0,0.0,0.0,0.0,0.0,0.0,0.0,0.0,0.0,0.0,0.0,0.0,0.0,0.0,0.0,0.0,0.0,0.0,0.0,0.0,0.0,0.0,0.0,0.0,0.0,0.0,0.0,0.0,0.0,0.0,0.0,0.0,0.0,0.0,0.0,0.0,0.0,0.0,0.0,0.0,0.0,0.0,0.0,0.0,0.0,0.0,0.0,0.0,0.0,0.0,0.0,0.0,0.0,0.0,0.0,0.0,0.0,0.0,0.0,0.0,0.0,0.0,0.0,0.0,0.0,0.0,0.0,0.0,0.0,0.0,0.0,0.0,-4.0924,-4.1317,-4.1586,-4.1628,-4.2073,-4.2156,-4.1669,-4.1357,-4.0934,-4.0484,0.0,0.0,0.0,0.0,0.0,0.0,0.0,0.0,0.0,0.0,0.0,0.0,0.0,0.0,0.0,0.0,0.0,0.0,0.0,0.0,0.0,0.0,0.0,0.0,0.0,0.0,0.0,0.0,0.0,0.0,0.0,0.0,0.0,0.0,0.0,0.0,0.0,0.0,0.0,0.0,0.0,0.0,0.0,0.0,0.0,0.0,0.0,0.0,0.0,0.0,0.0,0.0,0.0,0.0,0.0,0.0,0.0,0.0,0.0,0.0,-4.7828,0.0,0.0,0.0,0.0,0.0,0.0,0.0,0.0,0.0,0.0,0.0,0.0,0.0,0.0,0.0,0.0,0.0,0.0,0.0,0.0,0.0,0.0,0.0,0.0,0.0,0.0,0.0,0.0,0.0,0.0,0.0,0.0,0.0,0.0,0.0,0.0,0.0,0.0,0.0,0.0,0.0,-4.1379,-4.1503,-4.171,-4.2136,-4.2281,-4.2302,-4.2198,-4.203,-4.1844,-4.1369,-4.0913,0.0,0.0,0.0,0.0,0.0,0.0,0.0,0.0,0.0,0.0,0.0,0.0,0.0,0.0,0.0,0.0,0.0,0.0,0.0,0.0,0.0,0.0,0.0,0.0,0.0,0.0,0.0,0.0,0.0,0.0,0.0,0.0,0.0,0.0,0.0,0.0,0.0,0.0,0.0,0.0,0.0,0.0,0.0,0.0,0.0,0.0,0.0,0.0,0.0,0.0,0.0,0.0,0.0,0.0,0.0,0.0,0.0,0.0,0.0,0.0,-4.8032,0.0,0.0,0.0,0.0,0.0,0.0,0.0,0.0,0.0,0.0,0.0,0.0,0.0,0.0,0.0,0.0,0.0,0.0,0.0,0.0,0.0,0.0,0.0,0.0,0.0,0.0,0.0,0.0,0.0,0.0,0.0,0.0,0.0,0.0,0.0,0.0,0.0,0.0,0.0,0.0,-4.1908,-4.229,-4.2642,-4.289,-4.3304,-4.3491,-4.3263,-4.3035,-4.265,-4.2048,-4.1432,0.0,0.0,0.0,0.0,0.0,0.0,0.0,0.0,0.0,0.0,0.0,0.0,0.0,0.0,0.0,0.0,0.0,0.0,0.0,0.0,0.0,0.0,0.0,0.0,0.0,0.0,0.0,0.0,0.0,0.0,0.0,0.0,0.0,0.0,0.0,0.0,0.0,0.0,0.0,0.0,0.0,0.0,0.0,0.0,0.0,0.0,0.0,0.0,0.0,0.0,0.0,0.0,0.0,-4.9632,-4.9891,-4.9916,-5.0845,-5.1272,-5.1172,-4.9314,-4.8435,-4.8335,-4.8234,0.0,0.0,0.0,0.0,0.0,0.0,0.0,0.0,0.0,0.0,0.0,0.0,0.0,0.0,0.0,0.0,0.0,0.0,0.0,0.0,0.0,0.0,0.0,0.0,-4.1048,-4.111,-4.111,0.0,0.0,0.0,0.0,0.0,0.0,0.0,0.0,0.0,0.0,0.0,-4.2435,-4.3221,-4.376,-4.3842,-4.4546,-4.4836,-4.4443,-4.407,-4.3504,-4.2768,-4.1921,-4.1008,0.0,0.0,0.0,0.0,0.0,0.0,0.0,0.0,0.0,0.0,0.0,0.0,0.0,0.0,0.0,0.0,0.0,0.0,0.0,0.0,0.0,0.0,0.0,0.0,0.0,0.0,0.0,0.0,0.0,0.0,0.0,0.0,-4.8034,-4.8034,0.0,0.0,0.0,0.0,0.0,0.0,0.0,0.0,0.0,0.0,0.0,0.0,0.0,-5.0576,-5.1101,-5.1289,-5.1321,-5.1321,-5.1169,-5.1071,-5.1071,-5.1222,-5.1272,-5.1272,-5.0971,0.0,-5.0042,-4.9565,0.0,0.0,0.0,0.0,0.0,0.0,0.0,0.0,0.0,0.0,0.0,0.0,0.0,0.0,0.0,0.0,0.0,0.0,0.0,0.0,0.0,0.0,-4.1483,-4.1483,-4.1845,-4.2156,0.0,-4.1514,-4.0882,-4.0882,-4.0882,0.0,0.0,0.0,0.0,0.0,0.0,0.0,-4.3366,-4.3884,-4.436,-4.4774,-4.4919,-4.496,-4.4898,-4.4857,-4.4608,-4.4076,-4.3239,-4.2388,-4.147,-4.0733,0.0,0.0,0.0,0.0,0.0,0.0,0.0,0.0,0.0,0.0,0.0,0.0,0.0,0.0,0.0,0.0,0.0,0.0,0.0,0.0,0.0,0.0,0.0,0.0,0.0,0.0,0.0,0.0,0.0,-4.8747,-4.8807,-4.8842,-4.9135,-4.9541,0.0,0.0,0.0,0.0,0.0,0.0,0.0,0.0,0.0,-5.0946,-5.0941,-5.1129,-5.1357,-5.1478,-5.1538,-5.1538,-5.1666,-5.1749,-5.1749,-5.2076,-5.2201,-5.2176,-5.1875,-5.1599,-5.1322,-5.077,-5.0544,-5.0544,0.0,0.0,0.0,0.0,-5.0544,-5.0544,-5.0544,-5.0544,-5.0544,-5.0544,0.0,0.0,0.0,0.0,0.0,0.0,0.0,0.0,0.0,0.0,-4.1959,-4.1959,-4.2177,-4.2331,-4.258,-4.2311,-4.1959,0.0,-4.1648,-4.1793,-4.2249,0.0,0.0,0.0,0.0,-4.3863,-4.4319,-4.5002,-4.5519,-4.5726,-4.6202,-4.6409,-4.6161,-4.5892,-4.5561,-4.5105,-4.4259,-4.342,-4.2548,-4.1666,-4.0946,0.0,0.0,0.0,0.0,0.0,0.0,0.0,0.0,0.0,0.0,0.0,0.0,0.0,0.0,0.0,0.0,0.0,0.0,0.0,0.0,0.0,0.0,0.0,0.0,0.0,0.0,0.0,0.0,-4.9419,-4.9399,-4.947,-4.9564,-4.9837,0.0,0.0,0.0,0.0,0.0,0.0,-5.1535,-5.1616,-5.1646,-5.1646,-5.1531,-5.1548,-5.1699,-5.1825,-5.1975,-5.2126,-5.2528,-5.2729,-5.2754,-5.3155,-5.3356,-5.3331,-5.2904,-5.2729,-5.2653,-5.1674,-5.1272,-5.1272,-5.1272,-5.1272,-5.1272,-5.1272,-5.1272,-5.1272,-5.1272,-5.1272,-5.1272,-5.1272,-5.1272,-5.1272,-5.1272,0.0,0.0,0.0,0.0,-4.3769,-4.2856,-4.2683,-4.2787,-4.2787,-4.287,-4.3056,-4.3387,-4.3449,-4.3284,0.0,-4.26,-4.2745,-4.3201,0.0,0.0,0.0,-4.4753,-4.5002,-4.5457,-4.6202,-4.6699,-4.6699,-4.7279,-4.7548,-4.7237,-4.6885,-4.6554,-4.6223,-4.5345,-4.4555,-4.3794,-4.2956,-4.2049,-4.117,0.0,0.0,0.0,0.0,0.0,0.0,0.0,0.0,0.0,0.0,0.0,0.0,0.0,0.0,0.0,0.0,0.0,0.0,0.0,0.0,0.0,0.0,0.0,0.0,0.0,0.0,0.0,0.0,0.0,-4.9717,-4.9951,0.0,0.0,0.0,0.0,-5.2177,-5.1925,-5.1793,-5.1793,-5.1513,-5.1339,-5.1339,-5.18,-5.2327,-5.2829,-5.3331,-5.3858,-5.4386,-5.4436,-5.4436,-5.4436,-5.4461,-5.4486,-5.4486,-5.4461,-5.4436,-5.4285,-5.2151,-5.1272,-5.1272,-5.1272,-5.1272,-5.1272,-5.1272,-5.1272,-5.1272,-5.1272,-5.1272,-5.1272,-5.1272,-5.1272,-5.1272,-5.1272,-4.9241,0.0,0.0,-4.5245,-4.3048,-4.3428,-4.3863,-4.4194,-4.4194,-4.4546,-4.4857,-4.4877,-4.4877,-4.4629,0.0,-4.3532,-4.3698,-4.4153,0.0,-4.4546,-4.5478,-4.5975,-4.6328,-4.6885,-4.7341,-4.761,-4.761,-4.7651,-4.7672,-4.7651,-4.7631,-4.761,-4.7589,-4.6679,-4.6022,-4.5576,-4.4759,-4.3895,-4.2982,-4.2546,0.0,0.0,0.0,0.0,0.0,0.0,0.0,0.0,0.0,0.0,0.0,0.0,0.0,0.0,0.0,0.0,0.0,0.0,0.0,0.0,0.0,0.0,0.0,0.0,0.0,0.0,0.0,0.0,-5.0781,-5.1034,0.0,-5.1645,-5.1671,-5.1641,-5.1646,-5.1866,-5.2153,-5.2505,-5.2722,-5.3005,-5.3381,-5.3934,-5.431,-5.4511,-5.5039,-5.5415,-5.5616,-5.5616,-5.5616,-5.5616,-5.5616,-5.5616,-5.5616,-5.5616,-5.5616,-5.5566,-5.4787,-5.4034,-5.3381,-5.3381,-5.3381,-5.3381,-5.3381,-5.3381,-5.3381,-5.3381,-5.3381,-5.3381,-5.3381,-5.3381,-5.3381,-5.3381,-5.1932,-5.0125,-4.9199,-4.7417,-4.5617,-4.4753,-4.4836,-4.5188,-4.5188,-4.554,-4.5954,-4.6244,-4.6306,-4.6306,-4.6244,-4.554,-4.5084,-4.554,-4.5871,-4.6264,-4.6885,-4.7113,-4.7258,-4.7424,-4.7858,-4.8127,-4.8127,-4.8396,-4.8459,-4.8148,-4.8127,-4.8003,-4.7693,-4.7382,-4.7031,-4.6638,-4.6045,-4.5109,-4.3995,-4.3558,-4.2882,0.0,0.0,0.0,0.0,0.0,0.0,0.0,0.0,0.0,0.0,0.0,0.0,0.0,0.0,0.0,0.0,0.0,0.0,0.0,0.0,0.0,0.0,0.0,0.0,0.0,-5.1189,-5.1351,-5.1676,-5.1681,-5.1722,-5.2032,-5.2101,-5.2169,-5.2076,-5.2628,-5.3181,-5.3733,-5.4084,-5.4536,-5.5089,-5.5465,-5.5767,-5.5942,-5.6319,-5.6595,-5.6771,-5.6771,-5.6771,-5.6771,-5.6771,-5.6771,-5.6771,-5.6771,-5.6771,-5.6771,-5.6771,-5.6344,-5.5641,-5.5265,-5.5114,-5.5114,-5.5114,-5.5114,-5.5114,-5.5114,-5.5114,-5.5114,-5.5114,-5.5114,-5.5114,-5.5114,-5.4055,-5.2421,-5.0943,-4.9391,-4.7831,-4.6309,-4.6119,-4.6368,-4.6368,-4.6575,-4.6885,-4.7196,-4.7258,-4.7341,-4.7631,-4.6968,-4.6451,-4.674,-4.7051,-4.7403,-4.7858,-4.792,-4.7962,-4.8127,-4.8417,-4.8603,-4.8603,-4.8873,-4.8935,-4.8624,-4.8603,-4.8479,-4.8169,-4.8003,-4.7837,-4.7585,-4.707,-4.6289,-4.5102,-4.4335,-4.3712,-4.3086,0.0,0.0,0.0,0.0,0.0,0.0,0.0,0.0,0.0,0.0,0.0,0.0,0.0,0.0,0.0,0.0,0.0,0.0,0.0,0.0,0.0,0.0,0.0,-5.1395,-5.1645,-5.1936,-5.2291,-5.1722,-5.1682,-5.2548,-5.2858,-5.3206,-5.3708,-5.4285,-5.4863,-5.5415,-5.544,-5.5691,-5.6244,-5.6269,-5.6545,-5.7097,-5.7123,-5.7424,-5.8001,-5.8001,-5.8001,-5.8001,-5.8001,-5.8001,-5.8001,-5.7976,-5.7976,-5.7976,-5.7951,-5.7951,-5.7851,-5.6721,-5.6269,-5.6269,-5.6269,-5.6269,-5.6269,-5.6269,-5.6269,-5.6269,-5.6269,-5.6269,-5.6269,-5.6269,-5.5189,-5.3768,-5.2481,-5.0894,-4.9431,-4.8127,-4.7776,-4.7693,-4.7693,-4.7713,-4.7734,-4.7734,-4.7734,-4.7734,-4.7734,-4.7734,-4.7713,-4.7713,-4.7713,-4.7879,-4.8334,-4.8396,0.0,-4.9017,-4.9059,-4.9059,-4.9059,-4.9059,-4.9059,-4.9059,-4.9059,-4.9059,-4.9059,-4.8645,-4.8396,-4.8396,-4.7962,-4.7361,-4.6433,-4.5143,-4.4462,-4.4414,0.0,0.0,0.0,0.0,0.0,0.0,0.0,0.0,0.0,0.0,0.0,0.0,0.0,0.0,0.0,0.0,0.0,0.0,0.0,0.0,0.0,-5.217,-5.2006,-5.1732,-5.1899,-5.2077,-5.2144,-5.2689,-5.3149,-5.3369,-5.4205,-5.4762,-5.4913,-5.544,-5.5993,-5.6545,-5.657,-5.6846,-5.7424,-5.7826,-5.8278,-5.8805,-5.9207,-5.9709,-6.0286,-6.0286,-6.0286,-6.0286,-6.0286,-6.0286,-6.0261,-5.9834,-5.9659,-5.9608,-5.9232,-5.9056,-5.8956,-5.7851,-5.7424,-5.7424,-5.7424,-5.7424,-5.7424,-5.7424,-5.7424,-5.7424,-5.7424,-5.7424,-5.7424,-5.7424,-5.7125,-5.6448,-5.4943,-5.3232,-5.1513,-4.9952,-4.8899,-4.8189,-4.8189,-4.8438,-4.8686,-4.8686,-4.8686,-4.8686,-4.8686,-4.8686,-4.8583,-4.8252,-4.8459,-4.8728,-4.8852,-4.8873,0.0,-4.9038,-4.9059,-4.9059,-4.9059,-4.9059,-4.9059,-4.9059,-4.9059,-4.9059,-4.9059,-4.8955,-4.8873,-4.8873,-4.8748,-4.8289,-4.7331,-4.638,-4.5717,0.0,0.0,0.0,0.0,0.0,0.0,0.0,0.0,0.0,0.0,0.0,0.0,0.0,0.0,0.0,0.0,0.0,0.0,0.0,0.0,0.0,0.0,-5.2817,-5.2877,-5.2616,-5.2689,-5.2779,-5.2779,-5.3733,-5.4411,-5.4411,-5.5415,-5.6068,-5.6068,-5.6595,-5.7173,-5.77,-5.7951,-5.8328,-5.8905,-5.9458,-5.9885,-6.0186,-6.0512,-6.0839,-6.119,-6.119,-6.119,-6.119,-6.119,-6.119,-6.1165,-6.0839,-6.0688,-6.0663,-6.0337,-6.0211,0.0,0.0,0.0,0.0,0.0,-5.8579,-5.8579,-5.8579,-5.8579,-5.8579,-5.8579,-5.8579,-5.8579,-5.8579,-5.8579,-5.8249,-5.6479,-5.528,-5.3989,-5.1567,-5.0324,-4.9639,-4.8899,-4.8873,-4.9059,-4.9059,-4.9059,-4.9059,-4.9059,-4.9059,0.0,-4.8707,-4.8893,-4.9059,-4.9059,-4.9059,-4.9059,-4.9059,-4.9059,-4.9059,-4.9059,-4.9059,-4.9059,-4.9059,-4.9059,0.0,0.0,0.0,-4.9059,-4.9059,-4.8873,0.0,0.0,0.0,-4.682,-4.6575,-4.612,0.0,0.0,-4.395,-4.375,0.0,0.0,0.0,0.0,0.0,0.0,0.0,0.0,0.0,0.0,0.0,0.0,0.0,0.0,0.0,0.0,-5.3555,-5.3797,-5.3973,-5.4079,-5.4034,-5.3909,-5.4888,-5.5566,-5.5566,-5.657,-5.7248,-5.7298,-5.7851,-5.8403,-5.8956,-5.9433,0.0,0.0,0.0,-6.1215,-6.1266,-6.1266,-6.1316,-6.1366,-6.1366,-6.1366,-6.1366,-6.1366,-6.1366,-6.1366,-6.1316,-6.1266,-6.1266,-6.1215,-6.119,-6.1065,-6.001,-5.9558,-5.9483,-5.9483,-5.9483,-5.9483,-5.9483,0.0,0.0,-5.9483,-5.9483,-5.9483,-5.9483,-5.9483,-5.9173,-5.7613,-5.7059,-5.6159,-5.2823,-5.1849,-5.1263,-4.9465,-4.9059,-4.9059,-4.9059,-4.9059,-4.9059,-4.9059,-4.9059,-4.908,-4.9142,-4.91,-4.9059,-4.9059,-4.9059,-4.908,-4.9142,-4.9142,-4.9162,-4.9204,0.0,0.0,-4.9224,-4.9224,-4.9224,-4.9224,-4.9162,-4.9121,-4.9059,-4.8666,-4.8475,-4.8437,-4.8069,-4.7813,-4.7788,-4.6955,-4.6498,-4.6412,-4.5549,-4.5098,0.0,0.0,0.0,0.0,0.0,0.0,0.0,0.0,0.0,0.0,0.0,0.0,0.0,0.0,0.0,-5.4918,-5.5032,-5.5249,-5.5918,-5.6276,-5.6068,-5.5164,-5.6043,-5.6721,-5.6721,-5.7725,-5.8579,-5.8981,-5.9533,-6.0111,-6.0663,-6.0788,-6.0914,-6.1014,-6.1115,-6.1391,-6.1843,-6.1843,-6.2069,-6.2496,0.0,0.0,-6.2496,-6.2496,-6.2496,-6.2496,-6.2044,-6.1843,-6.1818,-6.1366,-6.119,-6.1115,-6.0437,-5.9885,-5.9483,-5.9483,-5.9483,-5.9483,-5.9483,-5.9483,-5.9483,-5.9483,-5.9483,-5.9483,-5.9483,-5.9483,0.0,-5.9095,-5.7952,-5.6399,-5.436,-5.2741,-5.1263,-4.9465,-4.9059,-4.9059,-4.9059,-4.9059,-4.9059,-4.9059,-4.9059,-4.9183,-4.9642,-4.9307,-4.9059,-4.9059,-4.9059,-4.9204,-4.9663,-4.9618,-4.9763,-5.0115,-5.0156,-5.0156,-5.0156,-5.0156,-5.0156,-5.0156,-4.9825,-4.9452,-4.908,-4.8976,-4.8976,-4.8973,-4.889,-4.8634,-4.8286,-4.8118,-4.7819,-4.7388,-4.6174,-4.5547,0.0,0.0,0.0,0.0,0.0,0.0,0.0,0.0,0.0,0.0,0.0,-5.5517,-5.5517,0.0,-5.6037,-5.6245,-5.6753,-5.7065,-5.7189,-5.8142,-5.8274,-5.6735,-5.7573,-5.8252,-5.8252,-5.9282,-6.006,-6.0311,-6.0588,-6.0889,-6.1165,-6.1441,-6.1592,-6.1592,-6.1868,-6.2144,-6.2421,-6.2421,-6.2546,-6.2822,-6.2822,-6.2822,-6.2822,-6.2822,-6.2822,-6.2822,-6.2546,-6.2421,-6.2395,-6.2119,-6.1843,-6.1567,-6.1266,-6.0814,-6.0337,-6.0337,-6.0161,-5.991,-5.991,-5.9734,-5.9483,-5.9483,-5.9483,-5.9483,-5.9483,-5.9483,-5.9483,-5.9483,-5.8837,-5.777,-5.6079,-5.4928,-5.387,-5.2077,-5.1032,-5.0379,-5.0379,-4.9721,-4.9142,-4.9369,-4.9411,-4.9556,-5.0011,-4.9887,-4.9742,-4.9742,-4.9742,-4.9825,-5.0052,-5.0094,-5.0177,-5.0404,-5.0425,-5.0425,-5.0425,-5.0425,-5.0425,-5.0425,-5.0218,-4.999,-4.9763,-4.9742,-4.9742,-4.9742,-4.9514,-4.9324,-4.9065,-4.8646,-4.8408,-4.8371,-4.7454,-4.6801,0.0,0.0,0.0,0.0,0.0,0.0,0.0,-5.5177,-5.5255,-5.5255,-5.57,-5.6118,-5.6223,-5.6834,-5.7351,-5.7525,-5.8445,-5.898,-5.8442,-5.9919,-6.0405,-5.8677,-5.9312,-5.9834,-5.9834,-6.0638,-6.1215,-6.1341,-6.1341,-6.1391,-6.1492,-6.1918,-6.2169,-6.2169,-6.2596,-6.2822,-6.2822,-6.2822,-6.2822,-6.2822,-6.2822,-6.2822,-6.2822,-6.2822,-6.2822,-6.2822,-6.2822,-6.2822,-6.2822,-6.2822,-6.2571,-6.2169,-6.2169,-6.1893,-6.1492,-6.1266,-6.0889,-6.0487,-6.0487,-6.0186,-5.9834,-5.9834,-5.9834,-5.9809,-5.9684,-5.9659,-5.9633,-5.9533,-5.9483,-5.9095,-5.7376,-5.6876,-5.6479,-5.4685,-5.2988,-5.1703,-5.1791,-5.0422,-4.9328,-4.9804,-4.9887,-5.0032,-5.0466,-5.0549,-5.0529,-5.0425,-5.0425,-5.0446,-5.0549,-5.0549,-5.0591,-5.0673,-5.0694,-5.0694,-5.0694,-5.0694,-5.0653,-5.0549,-5.0549,-5.0508,-5.0425,-5.0425,-5.0425,-5.0425,-5.0073,-4.9887,-4.9887,-4.9147,-4.8995,-4.9343,-4.8925,-4.8217,-5.3949,-5.4497,-5.4916,-5.4994,-5.5046,-5.5099,0.0,-5.5465,-5.583,-5.583,-5.6301,-5.685,-5.7373,-5.7692,-5.8076,-5.9026,-5.9972,-6.0682,-6.0859,-6.1737,-6.2041,-6.1446,-6.1126,-6.0989,-6.0989,-6.1115,-6.1391,-6.1868,-6.1918,-6.2119,-6.2621,-6.2697,-6.2747,-6.2747,-6.2797,-6.2822,-6.2822,-6.2822,-6.2822,-6.2822,-6.2822,-6.2822,-6.2822,-6.2822,-6.2822,-6.2822,-6.2822,-6.2822,-6.2822,-6.2822,-6.2797,-6.2747,-6.2747,-6.2697,-6.2521,-6.1542,-6.114,-6.109,-6.109,-6.104,-6.0989,-6.0989,-6.0989,-6.0889,-6.0387,-6.0236,-6.0111,-5.9633,-5.9483,-5.9095,-5.7376,-5.6876,-5.6479,-5.4685,-5.2988,-5.1791,-5.2228,-5.091,-4.9804,-5.0259,-5.0342,-5.0487,-5.0963,-5.1025,-5.0901,-5.0487,-5.0425,-5.057,-5.0984,-5.1025,-5.1191,-5.1605,-5.1646,-5.1646,-5.1646,-5.1646,-5.146,-5.1067,-5.1025,-5.0839,-5.0446,-5.0425,-5.0425,-5.0425,-5.0363,-5.0342,-5.0342,-5.0213,-5.0213,-5.0254,-5.0166,-4.944,-5.4576,-5.4916,-5.5099,-5.5099,-5.5334,-5.5569,-5.5569,-5.6013,-5.6536,-5.685,-5.7399,-5.7974,-5.8549,-5.9267,-6.0002,-6.0797,-6.1464,-6.2042,-6.2328,-6.2897,-6.3151,-6.2703,-6.2585,-6.2341,-6.1692,-6.1943,-6.2245,-6.2471,-6.2496,-6.2571,-6.2822,-6.2822,-6.2822,-6.2822,-6.2822,-6.2822,-6.2822,-6.2822,-6.2822,-6.2822,-6.2822,-6.2822,-6.2822,-6.2822,-6.2822,-6.2822,-6.2822,-6.2822,-6.2822,-6.2822,-6.2822,-6.2822,-6.2822,-6.2822,-6.2772,-6.232,-6.1943,-6.1667,-6.1667,-6.1441,-6.119,-6.119,-6.119,-6.114,-6.0889,-6.0814,-6.0763,-6.0537,-6.0487,-6.0305,-5.9568,-5.941,-5.9226,-5.8482,-5.7004,-5.5491,-5.4613,-5.2988,-5.1634,-5.0913,-5.0818,-5.0963,-5.1439,-5.1522,-5.1439,-5.1253,-5.1212,-5.1294,-5.1481,-5.1522,-5.1584,-5.1791,-5.1791,-5.1791,-5.1791,-5.1791,-5.1729,-5.1522,-5.1522,-5.1419,-5.1232,-5.1212,-5.1212,-5.1212,-5.0963,-5.0818,-5.0818,-5.0549,-5.0549,-5.0818,-5.0818,-5.0518,-5.4994,-5.5203,-5.5334,-5.5334,-5.5752,-5.617,-5.617,-5.6745,-5.7399,-5.7817,-5.847,-5.915,-5.9751,-6.0666,-6.1529,-6.2104,-6.2809,-6.3283,-6.3337,-6.3856,-6.4139,-6.3584,-6.3728,-6.3563,-6.2674,-6.284,-6.3067,-6.3148,-6.3067,-6.2985,-6.2985,-6.2904,-6.2822,-6.2822,-6.2822,-6.2822,-6.2822,-6.2822,-6.2822,-6.2822,-6.2822,-6.2822,-6.2822,-6.2822,-6.2822,-6.2822,-6.2822,-6.2822,-6.2822,-6.2822,-6.2822,-6.2822,-6.2822,-6.2822,-6.2822,-6.2822,-6.2571,-6.2245,-6.2245,-6.1969,-6.1642,-6.1642,-6.1642,-6.1617,-6.1466,-6.1416,-6.1391,-6.1215,-6.119,-6.119,-6.119,-6.119,-6.119,-6.119,-5.9834,-5.829,-5.6981,-5.5325,-5.371,-5.2326,-5.2077,-5.2004,-5.1819,-5.1791,-5.1791,-5.1791,-5.1791,-5.1791,-5.1791,-5.1791,-5.1791,-5.1791,-5.1791,-5.1791,-5.1791,-5.1791,-5.1791,-5.1791,-5.1791,-5.1791,-5.1791,-5.1791,-5.1791,-5.1791,-5.1481,-5.1294,-5.1294,-5.0963,-5.0963,-5.1294,-5.1294,-5.1301,-5.5099,-5.5491,-5.5883,-5.5883,-5.6327,-5.6771,-5.6771,-5.766,-5.847,-5.8497,-5.9385,-6.0352,-6.0953,-6.1555,-6.213,-6.2705,-6.375,-6.4326,-6.3933,-6.4742,-6.5053,-6.4174,-6.4441,-6.4601,-6.4119,-6.3716,-6.3635,-6.4039,-6.3716,-6.3473,-6.3473,-6.3067,-6.2822,-6.2822,-6.2822,-6.2822,-6.2822,-6.2822,-6.2822,-6.2822,-6.2822,-6.2822,-6.2822,-6.2822,-6.2822,-6.2822,-6.2822,-6.2822,-6.2822,-6.2822,-6.2822,-6.2822,-6.2822,-6.2822,-6.2822,-6.2822,-6.2822,-6.2797,-6.2797,-6.2797,-6.2772,-6.2772,-6.2772,-6.2672,-6.2144,-6.1994,-6.1868,-6.1341,-6.119,-6.119,-6.119,-6.119,-6.119,-6.119,-5.9834,-5.8714,-5.9054,-5.771,-5.6092,-5.472,-5.4477,-5.3946,-5.2152,-5.1791,-5.1791,-5.1791,-5.1791,-5.1791,-5.1791,-5.1791,-5.1791,-5.1791,-5.1791,-5.1791,-5.1791,-5.1791,-5.1791,-5.1791,-5.1791,-5.1791,-5.1791,-5.1791,-5.1791,-5.1791,-5.1791,-5.1791,-5.1791,-5.1771,-5.1771,-5.1791,-5.1791,-5.1791,-5.5543,-5.5778,-5.6013,-5.6405,-5.7242,-5.7948,-5.7948,-5.8836,-5.9751,-6.0169,-6.0561,-6.111,-6.2077,-6.2417,-6.2862,-6.3803,-6.4273,-6.4587,-6.4873,-6.5187,-6.5292,-6.5,-6.484,-6.484,-6.492,-6.4119,-6.3554,-6.3716,-6.3554,-6.3473,-6.3473,-6.3554,-6.3554,-6.3311,-6.323,-6.3148,-6.2822,-6.2822,-6.2822,-6.2822,-6.2822,-6.2822,-6.2822,-6.2822,-6.2822,-6.2822,-6.2822,-6.2822,-6.2822,-6.2822,-6.2822,-6.2822,-6.2822,-6.2822,-6.2822,-6.2822,-6.2822,-6.2822,-6.2822,-6.2822,-6.2822,-6.2822,-6.2822,-6.2797,-6.2596,-6.2546,-6.2521,-6.232,-6.227,-6.227,-6.227,-6.227,-6.227,-6.227,-6.1839,-6.1129,-6.0036,-5.9308,-5.8404,-5.6682,-5.6381,-5.5772,-5.3967,-5.3633,-5.3277,-5.1972,-5.1791,-5.1791,-5.1791,-5.1791,-5.1791,-5.1791,-5.1791,-5.1791,-5.1791,-5.1791,-5.1791,-5.1791,-5.1791,-5.1791,-5.1791,-5.1791,-5.1791,-5.1791,-5.1791,-5.1791,-5.1791,-5.1791,-5.1957,-5.2267,-5.2267,-5.2433,-5.5804,-5.6353,-5.6928,-5.732,-5.8287,-5.9124,-5.9124,-5.9856,-6.064,-6.1032,-6.145,-6.1947,-6.2679,-6.3149,-6.3672,-6.4404,-6.4691,-6.4979,-6.5345,-6.5371,-6.5371,-6.5371,-6.5159,-6.5159,-6.5397,-6.4521,-6.4039,-6.42,-6.4039,-6.3958,-6.3958,-6.3878,-6.3797,-6.3473,-6.3311,-6.3067,-6.2822,-6.2822,-6.2822,-6.2822,-6.2822,-6.2948,-6.3149,-6.3149,-6.3249,-6.3425,-6.3425,-6.3425,-6.3425,-6.3425,-6.3425,-6.3425,-6.3425,-6.3425,-6.3425,-6.3425,-6.3425,-6.335,-6.2973,-6.2822,-6.2822,-6.2822,-6.2822,-6.2822,-6.2822,-6.2822,-6.2822,-6.2822,-6.2822,-6.2822,-6.2822,-6.2822,-6.2822,-6.2822,-6.2822,-6.2495,-6.1291,-6.1042,-6.0518,-5.87,-5.8275,-5.7504,-5.5005,-5.4056,-5.3251,-5.22,-5.204,-5.1998,-5.1812,-5.1791,-5.1791,-5.1791,-5.1957,-5.204,-5.204,-5.2205,-5.2288,-5.2288,-5.2288,-5.2288,-5.2288,-5.2288,-5.2288,-5.2288,-5.2288,-5.2288,-5.2288,-5.2288,-5.2454,-5.2743,-5.2743,-5.2909,-5.6013,-5.7242,-5.8523,-5.8575,-5.9437,-6.0274,-6.0274,-6.0744,-6.1163,-6.1163,-6.2025,-6.2809,-6.2862,-6.375,-6.4508,-6.456,-6.5031,-6.5371,-6.5371,-6.5371,-6.5371,-6.5371,-6.5371,-6.5371,-6.5371,-6.5079,-6.5,-6.5397,-6.5,-6.4786,-6.4786,-6.4039,-6.3554,-6.3554,-6.3148,-6.2904,-6.2904,-6.2847,-6.2898,-6.2923,-6.2923,-6.3199,-6.3726,-6.3726,-6.4002,-6.4454,-6.4454,-6.4454,-6.4454,-6.4454,-6.4454,-6.4454,-6.4454,-6.4454,-6.4454,-6.4454,-6.4454,-6.4329,-6.3274,-6.2923,-6.2898,-6.2873,-6.2873,-6.2873,-6.2847,-6.2822,-6.2822,-6.2822,-6.2822,-6.2822,-6.2822,-6.2822,-6.2822,-6.2822,-6.2822,-6.2822,-6.2822,-6.2822,-6.2306,-6.0601,-6.0207,-5.9002,-5.5576,-5.3341,-5.22,-5.2637,-5.2607,-5.2371,-5.1936,-5.1874,-5.1874,-5.1874,-5.2267,-5.2536,-5.2536,-5.293,-5.3178,-5.3178,-5.3178,-5.3178,-5.3178,-5.3178,-5.3178,-5.3178,-5.3178,-5.3178,-5.3178,-5.3178,-5.3199,-5.322,-5.322,-5.324,-5.7503,-5.8183,-5.8706,-5.9568,-6.0352,-6.0901,-6.0901,-6.1346,-6.1764,-6.1764,-6.1999,-6.2443,-6.3306,-6.3698,-6.4168,-6.5031,-6.5292,-6.5371,-6.5371,-6.5371,-6.5371,-6.5371,-6.5371,-6.5371,-6.5371,-6.5318,-6.5318,-6.5371,-6.5,-6.4786,-6.4786,-6.484,-6.4761,-6.4441,-6.436,-6.4119,-6.3797,-6.3879,-6.3981,-6.4053,-6.4053,-6.4128,-6.4279,-6.4279,-6.4329,-6.4454,-6.4454,-6.4454,-6.4454,-6.4454,-6.4454,-6.4454,-6.4454,-6.4454,-6.4454,-6.4454,-6.4454,-6.4429,-6.4153,-6.4053,-6.3977,-6.3601,-6.3475,-6.34,-6.2948,-6.2822,-6.2822,-6.2822,-6.2822,-6.2822,-6.2822,-6.2822,-6.2822,-6.2822,-6.2822,-6.2822,-6.2822,-6.2822,-6.2659,-6.2224,-6.136,-6.0422,-5.946,-5.6886,-5.5069,-5.5198,-5.3984,-5.2971,-5.2847,-5.2826,-5.2826,-5.2826,-5.293,-5.3013,-5.3013,-5.3116,-5.3178,-5.3178,-5.3178,-5.3178,-5.3178,-5.3178,-5.3178,-5.3178,-5.3178,-5.3178,-5.3178,-5.3178,-5.3344,-5.3675,-5.3675,-5.3861,-5.905,-5.9544,-5.9948,-6.1251,-6.1521,-6.1476,-6.1476,-6.1738,-6.1973,-6.1973,-6.2182,-6.2626,-6.3515,-6.3881,-6.4351,-6.524,-6.5371,-6.5371,-6.5371,-6.5371,-6.5371,-6.5371,-6.5371,-6.5371,-6.5371,-6.5371,-6.5371,-6.5371,-6.5159,-6.5079,-6.5079,-6.5079,-6.5,-6.4786,-6.4859,-6.4849,-6.4863,-6.4786,-6.476,-6.4814,-6.4647,-6.458,-6.4831,-6.4831,-6.4957,-6.5183,-6.5183,-6.5183,-6.5183,-6.5183,-6.5183,-6.5183,-6.5183,-6.5183,-6.5183,-6.5183,-6.5183,-6.5183,-6.5183,-6.5183,-6.5057,-6.4279,-6.4028,-6.3977,-6.3651,-6.355,-6.35,-6.3274,-6.3199,-6.3149,-6.2898,-6.2822,-6.2822,-6.2822,-6.3023,-6.3199,-6.3199,-6.34,-6.355,-6.355,-6.2307,-6.1229,-6.1229,-5.9103,-5.7155,-5.6472,-5.5441,-5.4533,-5.3831,-5.3427,-5.3178,-5.3178,-5.3364,-5.3468,-5.3468,-5.3654,-5.3778,-5.3778,-5.3778,-5.3778,-5.3778,-5.3778,-5.3778,-5.3778,-5.3778,-5.3778,-5.3778,-5.3778,-5.3903,-5.4151,-5.4151,-5.4296,-6.0795,-6.1336,-6.1747,-6.31,-6.2978,-6.247,-6.2123,-6.2172,-6.2246,-6.2048,-6.2365,-6.2914,-6.3567,-6.409,-6.4639,-6.5266,-6.5371,-6.5371,-6.5371,-6.5371,-6.5371,-6.5371,-6.5371,-6.5371,-6.5371,-6.5371,-6.5371,-6.5371,-6.5371,-6.5371,-6.5371,-6.5157,-6.4996,-6.5074,-6.5217,-6.5513,-6.5996,-6.569,-6.5492,-6.5401,-6.5041,-6.51,-6.5494,-6.5494,-6.5745,-6.6197,-6.6112,-6.6112,-6.6112,-6.6112,-6.6112,-6.6112,-6.6112,-6.6112,-6.6112,-6.6112,-6.6112,-6.6112,-6.6112,-6.6112,-6.5936,-6.4906,-6.458,-6.4555,-6.4479,-6.4454,-6.4379,-6.3927,-6.3802,-6.3676,-6.3174,-6.3048,-6.3048,-6.3048,-6.3425,-6.3802,-6.3802,-6.4153,-6.4454,-6.4454,-6.3214,-6.2213,-6.2213,-6.0678,-5.9014,-5.7368,-5.6998,-5.625,-5.4672,-5.384,-5.3364,-5.3364,-5.3696,-5.385,-5.385,-5.4296,-5.4544,-5.4544,-5.4544,-5.4544,-5.4544,-5.4544,-5.4544,-5.4544,-5.4544,-5.4544,-5.4544,-5.4544,-5.4544,-5.4544,-5.4586,-5.4668,-6.2921,-6.3456,-6.3127,-6.3858,-6.4841,-6.4967,-6.2545,-6.2937,-6.3426,-6.2246,-6.2051,-6.2443,-6.3489,-6.375,-6.4168,-6.5214,-6.5371,-6.5371,-6.5371,-6.5371,-6.5371,-6.5371,-6.5371,-6.5371,-6.5371,-6.5371,-6.5371,-6.5371,-6.5371,-6.5371,-6.5371,-6.5788,-6.6257,-6.6701,-6.6725,-6.6818,-6.7085,-6.7002,-6.6817,-6.6518,-6.6857,-6.6823,-6.6559,-6.6559,-6.661,-6.6626,-6.6283,0.0,-6.6112,-6.6112,-6.6112,-6.6112,-6.6112,-6.6112,-6.6112,-6.6112,-6.6112,-6.6112,-6.6112,-6.6112,-6.6011,-6.5358,-6.5157,-6.5057,-6.4605,-6.4454,-6.4454,-6.4354,-6.4329,-6.4304,-6.4203,-6.4178,-6.4178,-6.4178,-6.4254,-6.4329,-6.4329,-6.4404,-6.4454,-6.4454,-6.4578,-6.4708,-6.4708,-6.3457,-6.1788,-5.9975,-5.8288,-5.6595,-5.4714,-5.4399,-5.4296,-5.4296,-5.4379,-5.442,-5.442,-5.4482,-5.4544,-5.4544,-5.4544,-5.4544,-5.4544,-5.4544,-5.4544,-5.4544,-5.4544,-5.4544,-5.4544,-5.4544,-5.4544,-5.4544,-5.4896,-5.5269,-6.477,-6.5343,-6.515,-6.63,-6.6426,-6.5821,-6.3646,-6.4274,-6.4707,-6.247,-6.2593,-6.3128,-6.3223,-6.3489,-6.3959,-6.4796,-6.5188,-6.5371,-6.5371,-6.5371,-6.5371,-6.5371,-6.5371,-6.5371,-6.5371,-6.5371,-6.5371,-6.5371,-6.5684,-6.5841,-6.5841,-6.639,-6.6965,-6.754,-6.7566,-6.7746,-6.8097,-6.7847,-6.7667,-6.7502,-6.7477,-6.7392,-6.7137,-6.6882,-6.6797,-6.6797,-6.6283,-6.6112,-6.6112,-6.6112,-6.6112,-6.6112,-6.6112,-6.6112,-6.6112,-6.6112,-6.6112,-6.6112,-6.6112,-6.6112,-6.6061,-6.581,-6.571,-6.566,-6.5409,-6.5333,-6.5258,-6.4982,-6.4906,-6.4831,-6.453,-6.4454,-6.4454,-6.4454,-6.468,-6.4982,-6.5258,-6.5333,-6.5333,-6.5333,-6.5534,-6.571,-6.571,-6.5136,-6.4017,-6.2113,-6.1039,-5.9772,-5.7775,-5.7519,-5.6703,-5.4714,-5.4544,-5.4544,-5.4544,-5.4544,-5.4544,-5.4544,-5.4544,-5.4544,-5.4544,-5.4544,-5.4544,-5.4544,-5.4544,-5.4544,-5.4544,-5.5,-5.5227,-5.5248,-5.5931,-5.6366,-6.6504,-6.7094,-6.7191,-6.8383,-6.8043,-6.6845,-6.5039,-6.5609,-6.568,-6.3011,-6.3158,-6.354,-6.2932,-6.328,-6.3855,-6.443,-6.5005,-6.5371,-6.5371,-6.5371,-6.5371,-6.5371,-6.5371,-6.5371,-6.5371,-6.5371,-6.5423,-6.5554,-6.6233,-6.6652,-6.6652,-6.7044,-6.7566,-6.8141,-6.8168,-6.8377,-6.8847,-6.8539,-6.8287,-6.8203,-6.7925,-6.773,-6.7646,-6.7137,-6.6967,-6.6882,-6.6369,-6.6112,-6.6112,-6.6112,-6.6112,-6.6112,-6.6112,-6.6112,-6.6112,-6.6112,-6.6112,-6.6112,-6.6112,-6.6112,-6.6112,-6.6112,-6.6112,-6.6112,-6.6112,-6.6112,-6.6011,-6.5584,-6.5459,-6.5358,-6.4931,-6.4831,-6.4831,-6.4831,-6.5157,-6.5584,-6.6011,-6.6112,-6.6112,-6.6112,-6.6112,-6.6112,-6.6112,-6.6112,-6.5483,-6.3466,-6.3201,-6.2469,-6.0565,-6.0294,-5.9133,-5.6068,-5.5336,-5.4978,-5.4544,-5.4544,-5.4544,-5.4544,-5.4544,-5.4586,-5.4668,-5.4668,-5.4731,-5.4813,-5.4917,-5.4979,-5.4979,-5.5766,-5.6159,-5.618,-5.6987,-5.7422,-6.7959,-6.8612,-6.8519,-6.8683,-6.9582,-6.9715,-6.6845,-6.6286,-6.5963,-6.4346,-6.3011,-6.228,-6.2731,-6.328,-6.3855,-6.443,-6.5005,-6.5371,-6.5371,-6.5371,-6.5371,-6.5371,-6.5371,-6.5371,-6.5371,-6.5371,-6.5606,-6.6155,-6.7227,-6.7828,-6.7828,-6.788,-6.8168,-6.8743,-6.8769,-6.8711,-6.8764,-6.8764,-6.8513,-6.8203,-6.8513,-6.8513,-6.8119,-6.7671,-6.7477,-6.7392,-6.6455,-6.6112,0.0,-6.6112,-6.6112,-6.6112,-6.6112,-6.6112,-6.6112,-6.6112,-6.6112,-6.6112,-6.6112,-6.6112,-6.6112,-6.6112,-6.6112,-6.6112,-6.6112,-6.6112,-6.6112,-6.6061,-6.6036,-6.6036,-6.5986,-6.5961,-6.5961,-6.5961,-6.5986,-6.6036,-6.6112,-6.6112,-6.6112,-6.6112,-6.6112,-6.6112,-6.6112,-6.6112,-6.5483,-6.3466,-6.3201,-6.2469,-6.0565,-6.0294,-6.0113,-5.9772,-5.8215,-5.6422,-5.4619,-5.4544,-5.4544,-5.4544,-5.4544,-5.471,-5.5103,-5.5124,-5.5331,-5.5745,-5.6159,-5.6387,-5.6387,-5.6863,-5.7111,-5.7111,-5.7608,-5.8084,-6.8228,-6.9248,-6.9506,-6.989,-7.0498,-7.0337,-6.8248,-6.777,-6.7329,-6.5821,-6.4346,-6.3386,-6.36,-6.3702,-6.375,-6.3985,-6.4796,-6.5371,-6.5371,-6.5371,-6.5371,-6.5371,-6.5371,-6.5371,-6.5371,-6.5711,-6.6312,-6.7253,-6.7723,-6.8141,-6.8481,-6.8507,-6.8612,-6.8764,-6.8764,-6.8764,-6.8764,-6.8764,-6.868,-6.8513,-6.868,-6.868,-6.8513,-6.8093,-6.7756,-6.7477,-6.7137,-6.6626,0.0,-6.6369,-6.6369,-6.6112,-6.6112,-6.6112,-6.6112,-6.6112,-6.6112,-6.6112,-6.6112,-6.6112,-6.6112,-6.6112,-6.6112,-6.6112,-6.6112,-6.6112,-6.6112,-6.6112,-6.6112,-6.6112,-6.6112,-6.6112,-6.6112,-6.6112,-6.6112,-6.6112,-6.6112,-6.6112,-6.6112,-6.6112,-6.6112,-6.6112,-6.6112,-6.6112,-6.5828,-6.5025,-6.4938,-6.4653,-6.3929,-6.3754,-6.329,-6.2202,-5.9294,-5.7126,-5.6328,-5.5398,-5.4917,-5.4917,-5.5186,-5.5414,-5.56,-5.56,-5.5683,-5.5869,-5.6055,-5.6159,-5.6159,-5.7152,-5.7649,-5.767,-5.8684,-5.9264,-6.8124,-6.9303,-7.0051,-7.053,-7.0769,-7.0629,-6.9582,-6.9019,-6.8383,-6.7289,-6.5538,-6.4201,-6.4201,-6.3761,-6.3489,-6.3646,-6.4508,-6.5188,-6.5345,-6.5371,-6.5371,-6.5371,-6.5371,-6.5371,-6.5371,-6.6076,-6.6939,-6.7906,-6.8141,-6.8429,-6.8821,-6.8764,-6.8764,-6.8764,-6.8764,-6.8764,-6.8764,-6.8764,-6.8764,-6.8764,-6.8764,-6.8764,-6.8764,-6.8371,-6.8035,-6.7671,-6.7561,-6.7137,0.0,-6.6711,-6.6626,-6.6283,-6.6112,-6.6112,-6.6112,-6.6112,-6.6112,-6.6112,-6.6112,-6.6112,-6.6112,-6.6112,-6.6112,-6.6112,-6.6112,-6.6112,-6.6112,-6.6112,-6.6112,-6.6112,-6.6112,-6.6112,-6.6112,-6.6112,-6.6112,-6.6112,-6.6112,-6.6112,-6.6112,-6.6112,-6.6112,-6.6112,-6.6112,-6.6112,-6.6112,-6.6112,-6.6112,-6.6112,-6.6112,-6.6262,-6.5819,-6.446,-6.1478,-5.9332,-5.8551,-5.7705,-5.7228,-5.7228,-5.6898,-5.6862,-5.701,-5.6446,-5.6138,-5.6262,-5.6407,-5.6469,-5.6469,-5.7587,-5.8125,-5.8146,-5.9119,-5.9574,-6.7807,-6.8974,-6.9991,-6.9991,-7.044,-7.0889,-7.0889,-6.9715,-6.8683,-6.8683,-6.6314,-6.4201,-6.4201,-6.3442,-6.3018,-6.3593,-6.4168,-6.4743,-6.5318,-6.5371,-6.5371,-6.5371,-6.5371,-6.5371,-6.5371,-6.6442,-6.7357,-6.7932,-6.8507,-6.8764,-6.8764,-6.8764,-6.8764,-6.8764,-6.8764,-6.8764,-6.8764,-6.8764,-6.8764,-6.8764,-6.8764,-6.8764,-6.8764,-6.8371,-6.8203,-6.8203,-6.7671,-6.7477,0.0,-6.6967,-6.6797,-6.6711,-6.6283,-6.6112,-6.6112,-6.6112,-6.6112,-6.6112,-6.6112,-6.6112,-6.6112,-6.6112,-6.6112,-6.6112,-6.6112,-6.6112,-6.6112,-6.6112,-6.6112,-6.6112,-6.6112,-6.6112,-6.6112,-6.6112,-6.6112,-6.6112,-6.6112,-6.6112,-6.6112,-6.6112,-6.6112,-6.6112,-6.6112,-6.6112,-6.6112,-6.6112,-6.6112,-6.6112,-6.6112,-6.6614,-6.6965,-6.6965,-6.5689,-6.3848,-6.1395,-6.1626,-6.1925,-6.1925,-5.9961,-5.9065,-5.9545,-5.769,-5.6759,-5.7194,-5.767,-5.7898,-5.7898,-5.8374,-5.8601,-5.8601,-5.8622,-5.8622,-6.7537,-6.8286,-6.8824,-6.9752,-7.0141,-7.038,-7.0799,-6.9781,-6.8683,-6.8683,-6.7053,-6.5396,-6.4419,-6.4277,-6.4225,-6.3798,-6.4168,-6.4743,-6.5318,-6.5371,-6.5371,-6.5371,-6.5371,-6.5684,-6.6469,-6.6913,-6.754,-6.8507,-6.8743,-6.8764,-6.8764,-6.8764,-6.8764,-6.8764,-6.8764,-6.8764,-6.8764,-6.8764,-6.8764,-6.8764,-6.8764,-6.8764,-6.8764,-6.868,-6.8455,-6.8203,-6.8345,-6.7899,-6.7052,-6.7222,-6.6882,-6.6283,-6.6197,-6.6112,-6.6112,-6.6112,-6.6112,-6.6112,-6.6112,-6.6112,-6.6112,-6.6112,-6.6112,-6.6112,-6.6112,-6.6112,-6.6112,-6.6112,-6.6112,-6.6112,-6.6112,-6.6112,-6.6112,-6.6112,-6.6112,-6.6112,-6.6112,-6.6112,-6.6112,-6.6112,-6.6112,-6.6112,-6.6112,-6.6112,-6.6112,-6.6112,-6.6438,-6.6714,-6.6714,-6.7191,-6.7543,-6.7543,-6.7463,-6.644,-6.3963,-6.3013,-6.2454,-6.2454,-6.0785,-5.9917,-6.0069,-5.8056,-5.709,-5.7235,-5.738,-5.7442,-5.7442,-5.7918,-5.8312,-5.8601,-5.8601,-5.8601,-6.7148,-6.7777,-6.8166,-6.9004,-6.9602,-7.0081,-7.047,-7.0028,-6.9516,-6.9516,-6.8315,-6.6775,-6.5324,-6.4863,-6.4526,-6.3848,-6.3985,-6.4482,-6.5266,-6.5371,-6.5371,-6.5371,-6.5371,-6.5841,-6.6991,-6.7096,-6.7592,-6.8659,-6.8764,-6.8764,-6.8764,-6.8764,-6.8764,-6.8764,-6.8764,-6.8764,-6.8764,-6.8764,-6.8764,-6.8764,-6.8764,-6.8764,-6.8764,-6.8764,-6.868,-6.8455,-6.868,-6.8345,0.0,-6.7756,-6.7417,-6.6907,-6.654,-6.6369,-6.6369,-6.6197,-6.6112,-6.6112,-6.6112,-6.6112,-6.6112,-6.6112,-6.6112,-6.6112,-6.6112,-6.6112,-6.6112,-6.6112,-6.6112,-6.6112,-6.6112,-6.6112,-6.6112,-6.6112,-6.6112,-6.6112,-6.6112,-6.6112,-6.6112,-6.6112,-6.6112,-6.6112,-6.6112,-6.6112,-6.6187,-6.6413,-6.6739,-6.7041,-6.7267,-6.7769,-6.812,-6.812,-6.8597,-6.8325,-6.6758,-6.5727,-6.5249,-6.5249,-6.3566,-6.2584,-6.2584,-5.9919,-5.8387,-5.8387,-5.7614,-5.7235,-5.7235,-5.7525,-5.7815,-5.8084,-5.8084,-5.8084,0.0,-6.7418,-6.7897,-6.7956,-6.8944,-6.9931,-6.9961,-7.047,0.0,-7.0759,-6.9715,-6.8315,-6.6594,-6.5182,-6.4243,-6.377,-6.3672,-6.4064,-6.5214,-6.5371,-6.5371,-6.5371,-6.5423,-6.5867,-6.6991,-6.7122,-6.7619,-6.8769,-6.8764,-6.8764,-6.8764,-6.8764,-6.8764,-6.8764,-6.8764,-6.8764,-6.8764,-6.8764,-6.8764,-6.8764,-6.8764,-6.8764,-6.8764,-6.8764,-6.8764,0.0,-6.8764,-6.8764,-6.8764,-6.8371,-6.8203,-6.8035,-6.7222,-6.6797,-6.6711,-6.6283,-6.6112,-6.6112,-6.6112,-6.6112,-6.6112,-6.6112,-6.6112,-6.6112,-6.6112,-6.6112,-6.6112,-6.6112,-6.6112,-6.6112,-6.6112,-6.6112,-6.6112,-6.6112,-6.6112,-6.6112,-6.6112,-6.6112,-6.6112,-6.6112,-6.6112,-6.6137,-6.6162,-6.6162,-6.6363,-6.694,-6.7066,-6.7267,-6.7794,-6.8346,-6.8673,-6.8673,-6.915,-6.9361,-6.9361,-6.9361,-6.9361,-6.9361,-6.7531,-6.64,-6.64,-6.2584,-6.0483,-6.0483,-5.8465,-5.7314,-5.7235,-5.7235,-5.7235,-5.7235,-5.7235,-5.7235,-6.6759,0.0,-6.7358,-6.7837,-6.8615,-6.9363,0.0,-7.047,-7.0563,-6.9449,-6.9847,-6.922,-6.5396,-6.5324,-6.5379,-6.3923,-6.3672,-6.4064,-6.5214,-6.5371,-6.5371,-6.5371,-6.5789,-6.6338,-6.7017,-6.7514,-6.8063,-6.8711,-6.8764,-6.8764,-6.8764,-6.8764,-6.8764,-6.8764,-6.8764,-6.8764,-6.8764,-6.8764,-6.8764,-6.8764,-6.8764,-6.8764,-6.8764,-6.8764,-6.8764,-6.8764,-6.8764,-6.8597,-6.8371,-6.8203,-6.8009,-6.7646,-6.7392,-6.7137,-6.6797,-6.6711,-6.6369,-6.6112,-6.6112,-6.6112,-6.6112,-6.6112,-6.6112,-6.6112,-6.6112,-6.6112,-6.6112,-6.6112,-6.6112,-6.6112,-6.6112,-6.6112,-6.6112,-6.6112,-6.6112,-6.6112,-6.6112,-6.6112,-6.6112,-6.6112,-6.6112,-6.6262,-6.6689,-6.6764,-6.6965,-6.7518,-6.797,-6.8296,-6.8422,-6.8899,-6.925,-6.925,-6.9285,-6.9361,-6.9361,-6.9361,-6.9361,-6.9361,-6.7531,-6.64,-6.64,-6.3917,-6.2584,-6.2584,-6.058,-5.8761,-5.7235,-5.7235,-5.7235,-5.7235,-5.7235,-5.7235,-6.6606,-6.6999,-6.7089,-6.7418,-6.8016,-6.8704,-6.9363,-7.0021,-7.0366,-6.9788,-7.0337,-6.9913,-6.6845,-6.6609,-6.6616,-6.5931,-6.4854,-6.4378,-6.5266,-6.5371,-6.5371,-6.5371,-6.592,-6.6495,-6.7044,-6.7645,-6.822,-6.8711,-6.8764,-6.8764,-6.8764,-6.8764,-6.8764,-6.8764,-6.8764,-6.8764,-6.8764,-6.8764,-6.8764,-6.8764,-6.8764,-6.8764,-6.8764,-6.8764,-6.8764,-6.8764,-6.8764,-6.868,-6.8455,-6.8455,-6.8345,-6.8067,-6.7646,-6.7307,-6.7052,-6.6626,-6.6283,-6.6112,-6.6112,-6.6112,-6.6112,-6.6112,-6.6112,-6.6112,-6.6112,-6.6112,-6.6112,-6.6112,-6.6112,-6.6112,-6.6112,-6.6112,-6.6112,-6.6112,-6.6112,-6.6112,-6.6112,-6.6112,-6.6187,-6.6463,-6.6513,-6.6689,-6.7267,-6.7367,-6.7543,-6.8095,-6.8422,-6.8723,-6.8974,-6.925,-6.9361,-6.9361,-6.9361,-6.9361,-6.9361,-6.9361,-6.9361,-6.9361,-6.8403,-6.7739,-6.7739,-6.5818,-6.4295,-6.3347,-6.1334,-5.9723,-5.8663,-5.7713,-5.7235,-5.7235,-5.7235,-5.7235,-6.6451,-6.6999,-6.6999,-6.6999,-6.7567,-6.8286,-6.8854,-6.9572,-7.026,-7.0799,-7.0889,-7.0337,-6.8683,-6.7981,-6.7721,-6.7937,-6.6288,-6.5135,-6.5398,-6.5371,-6.5371,-6.5371,-6.5972,-6.6599,-6.7044,-6.7723,-6.8324,-6.8821,-6.8764,-6.8764,-6.8764,-6.8764,-6.8764,-6.8764,-6.8764,-6.8764,-6.8764,-6.8764,-6.8764,-6.8764,-6.8764,-6.8764,-6.8764,-6.8764,-6.8764,-6.8764,-6.8764,0.0,-6.8764,-6.8764,-6.8764,-6.8764,-6.7983,-6.7646,-6.7477,-6.6626,-6.6283,-6.6197,-6.6112,-6.6112,-6.6112,-6.6112,-6.6112,-6.6112,-6.6112,-6.6112,-6.6112,-6.6112,-6.6112,-6.6112,-6.6112,-6.6112,-6.6112,-6.6112,-6.6112,-6.6112,-6.6112,-6.6187,-6.6388,-6.689,-6.7041,-6.7267,-6.7819,-6.7919,-6.812,-6.8673,-6.8748,-6.8924,-6.9285,-6.9361,-6.9361,-6.9361,-6.9361,-6.9361,-6.9361,-6.9361,-6.9361,-6.9361,-6.9361,-6.9361,-6.9361,-6.7739,-6.5935,-6.3822,-6.2105,-6.1066,-6.0774,-5.8959,-5.809,-5.809,-5.809,-5.799,-6.657,-6.6999,-6.6999,-6.6999,-6.7926,-6.8884,-6.8974,-6.9901,-7.0799,-7.0889,-7.0889,-7.0075,-6.7289,-6.8148,-6.8666,-6.6725,-6.6942,-6.6856,-6.5608,-6.5371,-6.5371,-6.5371,-6.6312,-6.6991,-6.707,-6.8063,-6.8743,-6.8764,-6.8764,-6.8764,-6.8764,-6.8764,-6.8764,-6.8764,-6.8764,-6.8764,-6.8764,-6.8764,-6.8764,-6.8764,-6.8764,-6.8764,-6.8764,-6.8764,-6.8764,-6.8764,0.0,-6.8764,-6.8764,-6.8764,-6.8764,-6.8764,-6.868,-6.8345,-6.8035,-6.7477,-6.7052,-6.6626,-6.6197,-6.6112,-6.6112,-6.6112,-6.6112,-6.6112,-6.6112,-6.6112,-6.6112,-6.6112,-6.6112,-6.6112,-6.6112,-6.6112,-6.6112,-6.6112,-6.6112,-6.6112,-6.6112,-6.6488,-6.6865,-6.6965,-6.7367,-6.7844,-6.8396,-6.8497,-6.8673,-6.925,-6.9325,-6.9351,-6.9336,-6.9361,-6.9361,-6.9361,-6.9361,-6.9361,-6.9361,-6.9361,-6.9361,-6.9361,-6.9361,-6.9361,-6.9361,-6.9064,-6.8014,-6.5935,-6.5632,-6.4578,-6.2871,-6.2466,-6.2393,-6.2393,-6.2393,-6.143,-6.548,-6.6384,-6.7089,-6.7418,-6.7986,-6.8525,-6.8914,-6.9722,-7.05,-7.0829,-7.0889,-7.0587,-6.9553,-6.9079,-6.8197,-6.6075,-6.6922,-6.7272,-6.5608,-6.5371,-6.5371,-6.5371,-6.639,-6.7096,-6.7096,-6.8141,-6.8764,-6.8764,-6.8764,-6.8764,-6.8764,-6.8764,-6.8764,-6.8764,-6.8764,-6.8764,-6.8764,-6.8764,-6.8764,-6.8764,-6.8764,-6.8764,-6.8764,-6.8764,-6.8764,-6.8764,0.0,-6.8764,-6.8764,-6.8764,-6.8764,-6.8764,-6.8513,-6.8371,-6.8119,-6.7392,-6.6967,-6.6711,-6.6283,-6.6112,-6.6112,-6.6112,-6.6112,-6.6112,-6.6112,-6.6112,-6.6112,-6.6112,-6.6112,-6.6112,-6.6112,-6.6112,-6.6112,-6.6112,-6.6363,-6.6589,-6.6589,-6.7015,-6.7518,-6.7819,-6.807,-6.8422,-6.8974,-6.9074,-6.915,-6.9401,-6.9361,-6.9361,-6.9361,-6.9361,-6.9361,-6.9361,-6.9361,-6.9361,-6.9361,-6.9361,-6.9361,-6.9361,-6.9361,-6.9361,-6.9361,-6.9361,-6.8974,-6.8014,-6.6979,-6.5935,-6.4953,-6.3822,-6.3325,-6.3325,-6.3325,-6.2201,-6.4496,-6.5948,-6.7148,-6.7807,-6.8106,-6.8375,-6.9064,-6.9722,-7.032,-7.0799,-7.1009,-7.1213,-7.1361,-7.0072,-6.8434,-6.6775,-6.7553,-6.763,-6.5687,-6.5371,-6.5371,-6.5371,-6.639,-6.7096,-6.7096,-6.8141,-6.8764,-6.8764,-6.8764,-6.8764,-6.8764,-6.8764,-6.8764,-6.8764,-6.8764,-6.8764,-6.8764,-6.8764,-6.8764,-6.8764,-6.8764,-6.8764,-6.8764,-6.8764,-6.8764,-6.8764,-6.8764,-6.8764,-6.8764,-6.8764,-6.8764,-6.8764,-6.8455,-6.8287,-6.8119,-6.7417,-6.7052,-6.6882,-6.654,-6.6369,-6.6283,-6.6283,-6.6197,-6.6112,-6.6112,-6.6112,-6.6112,-6.6112,-6.6212,-6.6312,-6.6312,-6.6312,-6.6338,-6.6488,-6.684,-6.7166,-6.7166,-6.7593,-6.812,-6.8547,-6.8723,-6.8949,-6.9376,-6.9361,-6.9361,-6.9361,-6.9361,-6.9361,-6.9361,-6.9361,-6.9361,-6.9361,-6.9361,-6.9361,-6.9361,-6.9361,-6.9361,-6.9361,-6.9361,-6.9361,-6.9361,-6.9361,-6.9361,-6.9361,-6.7922,-6.7071,-6.7071,-6.5539,-6.4766,-6.4766,-6.4766,-6.3632,-6.4496,-6.5948,-6.7148,-6.7807,-6.8465,-6.9093,-6.9752,-7.038,-7.0859,-7.0889,-7.1398,-7.1421,-7.0079,-7.0726,-7.1007,-6.9921,-6.9885,-6.884,-6.5818,-6.5371,-6.5371,-6.5371,-6.6416,-6.7122,-6.7096,-6.8141,-6.8764,-6.8764,-6.8764,-6.8764,-6.8764,-6.8764,-6.8764,-6.8764,-6.8764,-6.8764,-6.8764,-6.8764,-6.8764,-6.8764,-6.8764,-6.8764,-6.8764,-6.8764,-6.8764,-6.8764,-6.8764,-6.8764,-6.8764,-6.8764,-6.8764,-6.8764,-6.8764,-6.8513,-6.8203,-6.8119,-6.784,-6.7477,-6.7392,-6.7137,-6.6797,-6.6797,-6.6455,-6.6112,-6.6112,-6.6112,-6.6112,-6.6112,-6.6488,-6.6915,-6.6915,-6.6915,-6.7041,-6.7568,-6.7719,-6.7744,-6.7744,-6.817,-6.8572,-6.8622,-6.9024,-6.9311,-6.9336,-6.9361,-6.9361,-6.9361,-6.9361,-6.9361,-6.9361,-6.9361,-6.9361,-6.9361,-6.9361,-6.9361,-6.9361,-6.9361,-6.9361,-6.9361,-6.9361,-6.9361,-6.9361,-6.9361,-6.9361,-6.9361,-6.9245,-6.9155,-6.9155,-6.9064,-6.8974,-6.8974,-6.8974,-6.7922,-6.3235,-6.4238,-6.5506,-6.7965,-6.8398,-6.8478,-6.9709,-7.047,-7.1009,-7.1427,-7.1697,-7.1652,-7.0963,-7.1557,-7.1697,-7.03,-7.0107,-6.9365,-6.7195,-6.6885,-6.6523,-6.5529,-6.6416,-6.7096,-6.7096,-6.8141,-6.8764,-6.8764,-6.8764,-6.8764,-6.8764,-6.8764,-6.8764,-6.8764,-6.8764,-6.8764,-6.8764,-6.8764,-6.8764,-6.8764,-6.8764,-6.8764,-6.8764,-6.8764,-6.8764,-6.8764,-6.8764,-6.8764,-6.8764,-6.8764,-6.8764,-6.8764,-6.8764,-6.868,-6.8513,-6.8287,-6.8119,-6.7925,-6.7561,-6.7222,-6.6797,-6.6797,-6.6455,-6.6112,-6.6112,-6.6363,-6.6639,-6.6639,-6.7041,-6.7417,-6.7066,-6.7241,-6.7543,-6.7744,-6.807,-6.8321,-6.8321,-6.8748,-6.9125,-6.9125,-6.93,-6.9361,-6.9361,-6.9361,-6.9361,-6.9361,-6.9361,-6.9361,-6.9361,-6.9361,-6.9361,-6.9361,-6.9361,-6.9361,-6.9361,-6.9361,-6.9361,-6.9361,-6.9361,-6.9361,-6.9361,-6.9361,-6.9361,-6.9361,-6.9361,-6.9361,-6.9361,-6.9361,-6.9361,-6.9361,-6.9361,-6.8312,-6.2508,-6.3489,-6.5039,-6.8224,-6.8366,-6.8173,-7.0146,-7.0919,-7.1338,-7.1787,-7.2235,-7.2499,-7.2541,-7.2959,-7.2728,-7.1162,-7.0842,-7.0357,-6.8744,-6.8089,-6.7553,-6.6936,-6.7455,-6.7852,-6.7852,-6.9398,-6.9927,-6.8847,-6.932,-6.9403,-6.8847,-6.932,-6.9403,-6.8847,-6.932,-6.932,-6.8847,-6.8764,-6.8764,-6.8764,-6.8764,-6.8764,-6.8764,-6.8764,-6.8764,-6.8764,-6.8764,-6.8764,-6.8764,-6.903,-6.9239,-6.9396,-6.9396,-6.9396,-6.9312,-6.9085,-6.9001,-6.8916,-6.8636,-6.81,-6.7587,-6.7587,-6.7157,-6.6639,-6.6639,-6.6915,-6.7241,-6.7241,-6.7643,-6.797,-6.7593,-6.7769,-6.8095,-6.8271,-6.8597,-6.8874,-6.8874,-6.9175,-6.9361,-6.9361,-6.9361,-6.9361,-6.9361,-6.9361,-6.9361,-6.9361,-6.9361,-6.9361,-6.9361,-6.9361,-6.9361,-6.9361,-6.9361,-6.9361,-6.9361,-6.9361,-6.9361,-6.9361,-6.9361,-6.9361,-6.9361,-6.9361,-6.9361,-6.9361,-6.9361,-6.9361,-6.9361,-6.9361,-6.9361,-6.9361,-6.9361,-6.8776,-6.2773,-6.4214,-6.6206,-6.8445,-6.8301,-6.8406,-7.1248,-7.1876,-7.1876,-7.1906,-7.2984,-7.4091,-7.4749,-7.4869,-7.4357,-7.2799,-7.2515,-7.1985,-7.0329,-6.882,-6.8366,-6.9959,-6.979,-6.9574,-6.9496,-7.2105,-7.243,-6.9071,-7.031,-7.0555,-6.893,-7.0392,-7.0555,-6.8847,-7.0392,-7.0473,-6.8847,-6.8764,-6.8764,-6.8764,-6.8764,-6.8764,-6.8764,-6.8764,-6.8764,-6.8764,-6.8764,-6.8764,-6.8899,-6.9474,-7.0049,-7.0598,-7.0598,-7.0598,-7.0598,-7.0598,-7.0598,-7.0598,-7.0598,-6.9998,-6.9194,-6.9194,-6.8584,-6.7794,-6.7794,-6.7794,-6.7819,-6.7819,-6.8196,-6.8622,-6.8622,-6.8622,-6.8773,-6.93,-6.9361,-6.9361,-6.9361,-6.9361,-6.9361,-6.9361,-6.9361,-6.9361,-6.9361,-6.9361,-6.9361,-6.9361,-6.9361,-6.9361,-6.9361,-6.9361,-6.9361,-6.9361,-6.9361,-6.9361,-6.9361,-6.9361,-6.9361,-6.9361,-6.9361,-6.9361,-6.9361,-6.9361,-6.9361,-6.9361,-6.9361,-6.9361,-6.9361,-6.9361,-6.9361,-6.9361,-6.9451,-6.9752,-6.3079,-6.4177,-6.5431,-6.7582,-6.826,-6.8759,-7.001,-7.1185,-7.2146,-7.3103,-7.3971,-7.4629,-7.4839,-7.4869,-7.4731,-7.4288,-7.4219,-7.3603,-7.1985,-7.1408,-7.104,-7.08,-7.1107,-7.1009,-7.0302,-7.2355,-7.243,-6.9071,-7.031,-7.1096,-7.0555,-6.9927,-6.9845,-7.0555,-6.9927,-6.932,-6.8847,-6.8764,-6.8764,-6.8764,-6.8764,-6.8764,-6.8764,-6.8764,-6.9056,-6.9448,-6.9448,-6.9684,-7.0102,-7.0259,-7.0442,-7.0598,-7.0598,-7.0598,-7.0598,-7.0598,-7.0427,-7.0144,-7.0513,-6.9998,-6.9194,-6.9194,-6.8758,-6.8234,-6.7882,-6.807,-6.8371,-6.8371,-6.8773,-6.92,-6.92,-6.92,-6.925,-6.9401,-6.9361,-6.9361,-6.9361,-6.9361,-6.9361,-6.9361,-6.9361,-6.9361,-6.9361,-6.9361,-6.9361,-6.9361,-6.9361,-6.9361,-6.9361,-6.9361,-6.9361,-6.9361,-6.9361,-6.9361,-6.9361,-6.9361,-6.9361,-6.9361,-6.9361,-6.9361,-6.9361,-6.9361,-6.9361,-6.9361,-6.9361,-6.9361,-6.9361,-6.9361,-6.9361,-6.9451,-6.9853,-7.0104,-6.3141,-6.4122,-6.5244,-6.791,-6.8823,-6.9525,-7.1004,-7.2052,-7.2984,-7.4061,-7.4599,-7.4869,-7.4869,-7.4869,-7.4869,-7.4869,-7.4869,-7.4564,-7.3603,-7.287,-7.2604,-7.2951,-7.2969,-7.2821,-7.2448,-7.445,-7.4436,-7.1015,-7.2351,-7.2956,-7.2351,-7.1953,-7.1632,-7.1338,-7.0934,-7.0473,-6.9763,-6.9154,-6.9154,-6.9789,-6.939,-6.9187,-6.9187,-6.9187,-6.9501,-7.0049,-7.0049,-7.0389,-7.0912,-7.0912,-7.1043,-7.1278,-7.1278,-7.1278,-7.1278,-7.1278,-7.1105,-7.0906,-7.1192,-7.0645,-6.986,-6.986,-6.9421,-6.8802,-6.8536,-6.8698,-6.8949,-6.8949,-6.92,-6.9361,-6.9361,-6.9361,-6.9361,-6.9361,-6.9361,-6.9361,-6.9361,-6.9361,-6.9361,-6.9361,-6.9361,-6.9361,-6.9361,-6.9361,-6.9361,-6.9361,-6.9361,-6.9361,-6.9361,-6.9361,-6.9361,-6.9361,-6.9361,-6.9361,-6.9361,-6.9361,-6.9361,-6.9361,-6.9361,-6.9361,-6.9361,-6.9361,-6.9361,-6.9361,-6.9361,-6.9361,-6.9361,-6.9361,-6.9551,-6.9777,-7.033,-7.0832,-6.3157,-6.4207,-6.5532,-6.9003,-6.9796,-7.0488,-7.3244,-7.3941,-7.4151,-7.4749,-7.4869,-7.4869,-7.4869,-7.4869,-7.4869,-7.4869,-7.4869,-7.4869,-7.4869,-7.3632,-7.3516,-7.5747,-7.5193,-7.4911,-7.5359,-7.7429,-7.7387,-7.4049,-7.5383,-7.561,-7.4127,-7.5354,-7.4743,-7.1873,-7.3113,-7.3034,-7.1552,-6.9845,-6.9816,-7.1339,-7.0399,-6.9989,-7.0094,-6.9873,-7.0187,-7.0907,-7.0959,-7.1274,-7.172,-7.1574,-7.1801,-7.2297,-7.2297,-7.2297,-7.2297,-7.2297,-7.2297,-7.221,-7.2297,-7.1682,-7.0948,-7.0948,-7.035,-6.9541,-6.9451,-6.9451,-6.9361,-6.9361,-6.9361,-6.9361,-6.9361,-6.9361,-6.9361,-6.9361,-6.9361,-6.9361,-6.9361,-6.9361,-6.9361,-6.9361,-6.9361,-6.9361,-6.9361,-6.9361,-6.9361,-6.9361,-6.9361,-6.9361,-6.9361,-6.9361,-6.9361,-6.9361,-6.9361,-6.9361,-6.9361,-6.9361,-6.9361,-6.9361,-6.9361,-6.9361,-6.9361,-6.9361,-6.9361,-6.9361,-6.9361,-6.9361,-6.9361,-6.9361,-6.9752,-7.0355,-7.0907,-7.1761,-6.3582,-6.4676,-6.5843,-6.8027,-6.9564,-7.1111,-7.3363,-7.43,-7.4719,-7.4839,-7.4869,-7.4869,-7.4869,-7.4869,-7.4869,-7.4869,-7.4869,-7.4869,-7.4869,-7.4564,-7.4942,-7.6415,-7.6442,-7.6234,-7.6073,-7.7695,-7.7387,-7.4049,-7.5383,-7.6138,-7.5762,-7.482,-7.459,-7.5202,-7.4281,-7.3661,-7.327,-7.1552,-7.1177,-7.2016,-7.1852,-7.2227,-7.3033,-7.1227,-7.1418,-7.3275,-7.376,-7.4029,-7.4079,-7.2671,-7.2193,-7.2297,-7.2297,-7.2297,-7.2297,-7.2297,-7.2034,-7.177,-7.221,-7.1946,-7.1417,-7.1417,-7.1037,-7.0503,-7.0145,-6.9722,-6.9361,-6.9361,-6.9361,-6.9361,-6.9361,-6.9361,-6.9361,-6.9361,-6.9361,-6.9361,-6.9361,-6.9361,-6.9361,-6.9361,-6.9361,-6.9361,-6.9361,-6.9361,-6.9361,-6.9361,-6.9361,-6.9361,-6.9361,-6.9361,-6.9361,-6.9361,-6.9361,-6.9361,-6.9361,-6.9361,-6.9361,-6.9361,-6.9361,-6.9361,-6.9361,-6.9361,-6.9361,-6.9361,-6.9361,-6.9361,-6.9361,-6.9361,-6.9953,-7.0907,-7.146,-7.2339,-6.2598,-6.3734,-6.5041,-6.7635,-6.9996,-7.2022,-7.2965,-7.4119,-7.4869,-7.4869,-7.4869,-7.4869,-7.4869,-7.4869,-7.4869,-7.4869,-7.4869,-7.4869,-7.4869,-7.4869,-7.5347,-7.6664,-7.6814,-7.6967,-7.7417,-7.8325,-7.8077,-7.6288,-7.6988,-7.7461,-7.7461,-7.6691,-7.6213,-7.6288,-7.543,-7.4973,-7.4973,-7.3628,-7.3567,-7.4665,-7.4483,-7.4826,-7.5655,-7.4467,-7.455,-7.5655,-7.5094,-7.492,-7.475,-7.3029,-7.2297,-7.2297,-7.2297,-7.2297,-7.2297,-7.2297,-7.2122,-7.1946,-7.221,-7.1858,-7.1329,-7.1506,-7.0948,-7.0145,-7.0235,-6.9812,-6.9361,-6.9361,-6.9361,-6.9361,-6.9361,-6.9361,-6.9361,-6.9361,-6.9361,-6.9361,-6.9361,-6.9361,-6.9361,-6.9361,-6.9361,-6.9361,-6.9361,-6.9361,-6.9361,-6.9361,-6.9361,-6.9361,-6.9361,-6.9361,-6.9361,-6.9361,-6.9361,-6.9361,-6.9361,-6.9361,-6.9361,-6.9361,-6.9361,-6.9361,-6.9361,-6.9361,-6.9361,-6.9361,-6.9361,-6.9577,-6.9828,-6.9828,-7.0405,-7.1485,-7.2037,-7.2765,-6.1452,-6.297,-6.478,-6.7529,-7.0628,-7.2887,-7.2818,-7.3911,-7.4869,-7.4869,-7.4869,-7.4869,-7.4869,-7.4869,-7.4869,-7.4869,-7.4869,-7.4869,-7.4869,-7.4869,-7.5347,-7.6664,-7.6814,-7.7352,-7.8669,-7.8789,-7.8789,-7.8789,-7.8789,-7.8789,-7.8789,-7.8789,-7.8149,-7.6765,-7.6765,-7.6824,-7.6941,-7.5812,-7.6029,-7.7595,-7.7427,-7.7694,-7.8418,-7.8418,-7.8257,-7.7851,-7.6373,-7.5818,-7.565,-7.3951,-7.3203,-7.3203,-7.3203,-7.3203,-7.3203,-7.3203,-7.3203,-7.3116,-7.2882,-7.2271,-7.163,-7.207,-7.1126,-6.9876,-7.0567,-7.0235,-6.9541,-6.9451,-6.9361,-6.9361,-6.9361,-6.9361,-6.9361,-6.9361,-6.9361,-6.9361,-6.9361,-6.9361,-6.9361,-6.9361,-6.9361,-6.9361,-6.9361,-6.9361,-6.9361,-6.9361,-6.9361,-6.9361,-6.9361,-6.9361,-6.9361,-6.9361,-6.9361,-6.9361,-6.9361,-6.9361,-6.9361,-6.9361,-6.9361,-6.9361,-6.9361,-6.9526,-6.9602,-6.9602,-6.9602,-6.9853,-7.0405,-7.0405,-7.0958,-7.2062,-7.2514,-7.3092,-6.1613,-6.4735,-6.7614,-6.7885,-7.0419,-7.3119,-7.3853,-7.4525,-7.4869,-7.4869,-7.4869,-7.4869,-7.4869,-7.4869,-7.4869,-7.4869,-7.4869,-7.4869,-7.4869,-7.4869,-7.5347,-7.6664,-7.6814,-7.7352,-7.8669,-7.8789,-7.8789,-7.8789,-7.8789,-7.8789,-7.8789,-7.8789,-7.8717,-7.847,-7.847,-7.8768,-7.9364,-7.7775,-7.7645,-7.893,-7.9421,-8.0561,-8.21,-8.21,-8.1194,-7.9725,-7.9488,-7.9408,-7.9249,-7.7526,-7.6787,-7.6787,-7.6787,-7.6787,-7.6787,-7.6787,-7.6787,-7.6539,-7.5089,-7.4496,-7.441,-7.441,-7.3003,-7.1568,-7.2663,-7.1666,-6.9991,-6.9541,-6.9361,-6.9361,-6.9361,-6.9361,-6.9361,-6.9361,-6.9361,-6.9361,-6.9361,-6.9361,-6.9361,-6.9361,-6.9361,-6.9361,-6.9361,-6.9361,-6.9361,-6.9361,-6.9361,-6.9361,-6.9361,-6.9361,-6.9361,-6.9361,-6.9361,-6.9361,-6.9361,-6.9361,-6.9361,-6.9361,-6.9361,-6.9361,-6.9361,-6.9903,-7.0154,-7.0154,-7.0154,-7.043,-7.0983,-7.0983,-7.1535,-7.2615,-7.269,-7.3293,-6.1374,-6.4082,-6.6552,-6.6285,-6.9478,-7.2714,-7.2888,-7.3981,-7.4869,-7.4869,-7.4869,-7.4869,-7.4869,-7.4869,-7.4869,-7.4869,-7.4869,-7.4869,-7.4869,-7.4869,-7.5347,-7.6664,-7.6814,-7.7352,-7.8669,-7.8789,-7.8789,-7.8789,-7.8789,-7.8789,-7.8789,-7.8789,-7.8789,-7.8789,-7.8789,-7.9118,-7.9806,-7.9442,-7.9897,-8.1196,-8.1462,-8.2023,-8.2844,-8.2844,-8.2359,-8.1533,-8.0542,-8.0149,-7.9963,-7.8176,-7.7526,-7.7526,-7.7526,-7.7526,-7.7526,-7.7526,-7.7526,-7.7362,-7.6622,-7.5567,-7.4554,-7.4835,-7.3236,-7.1303,-7.1868,-7.1163,-7.0056,-6.9541,-6.9361,-6.9361,-6.9361,-6.9361,-6.9361,-6.9361,-6.9361,-6.9361,-6.9361,-6.9361,-6.9361,-6.9361,-6.9361,-6.9361,-6.9361,-6.9361,-6.9361,-6.9361,-6.9361,-6.9361,-6.9361,-6.9361,-6.9361,-6.9361,-6.9361,-6.9361,-6.9361,-6.9361,-6.9361,-6.9361,-6.9727,-6.9903,-6.9903,-7.043,-7.0857,-7.1184,-7.0882,-7.0983,-7.1535,-7.1535,-7.1962,-7.274,-7.274,-7.2991,-6.1808,-6.3838,-6.5644,-6.5772,-6.9124,-7.2285,-7.2162,-7.3514,-7.48,-7.4869,-7.4869,-7.4869,-7.4869,-7.4869,-7.4869,-7.4869,-7.4869,-7.4869,-7.4869,-7.4869,-7.5347,-7.6664,-7.6814,-7.7352,-7.8669,-7.8789,-7.8789,-7.8789,-7.8789,-7.8789,-7.8789,-7.8789,-7.8789,-7.8789,-7.8968,-7.9387,-8.0075,-8.0883,-8.1781,-8.2844,-8.2844,-8.2844,-8.2844,-8.2844,-8.2844,-8.2769,-8.1378,-8.0805,-8.0698,-7.9408,-7.8849,-7.8849,-7.8849,-7.8849,-7.8849,-7.8849,-7.8849,-7.874,-7.8338,-7.6787,-7.5035,-7.5315,-7.3382,-7.1126,-7.1366,-7.0834,-7.0145,-6.9722,-6.9541,-6.9451,-6.9541,-6.9541,-6.9361,-6.9361,-6.9361,-6.9361,-6.9361,-6.9361,-6.9361,-6.9361,-6.9361,-6.9361,-6.9361,-6.9361,-6.9361,-6.9361,-6.9361,-6.9361,-6.9361,-6.9361,-6.9361,-6.9361,-6.9361,-6.9361,-6.9361,-6.9361,-6.9501,-6.9652,-7.0029,-7.033,-7.0455,-7.1008,-7.1485,-7.1887,-7.1636,-7.1711,-7.2113,-7.2113,-7.2339,-7.274,-7.274,-7.274,-6.3484,-6.5182,-6.6665,-6.8072,-7.0399,-7.237,-7.27,-7.3596,-7.4456,-7.48,-7.4869,-7.4869,-7.4869,-7.4869,-7.4869,-7.4869,-7.4869,-7.4869,-7.4869,-7.4869,-7.5347,-7.6664,-7.6814,-7.7352,-7.8669,-7.8789,-7.8789,-7.8789,-7.8789,-7.8789,-7.8789,-7.8789,-7.8789,-7.8789,-7.9417,-8.0075,-8.0734,-8.202,-8.2754,-8.2844,-8.2844,-8.2844,-8.2844,-8.2844,-8.2844,-8.2769,-8.2663,-8.2663,-8.2663,-8.2587,-8.2511,-8.2511,-8.2511,-8.2511,-8.2511,-8.2511,-8.2511,-8.2282,-8.0542,-7.882,-7.728,-7.6841,-7.4357,-7.1744,-7.2489,-7.1553,-7.0145,-7.0145,-6.9812,-6.9541,-7.0056,-6.9812,-6.9361,-6.9361,-6.9361,-6.9361,-6.9361,-6.9361,-6.9361,-6.9361,-6.9361,-6.9361,-6.9361,-6.9361,-6.9361,-6.9361,-6.9361,-6.9361,-6.9361,-6.9361,-6.9361,-6.9361,-6.9361,-6.9361,-6.9361,-6.9361,-6.9652,-7.0179,-7.0255,-7.0506,-7.1008,-7.156,-7.1887,-7.1912,-7.2389,-7.2665,-7.269,-7.269,-7.269,-7.274,-7.274,-7.274,-6.3419,-6.4895,-6.6455,-6.8127,-7.0272,-7.2167,-7.2954,-7.3705,-7.4387,-7.48,-7.4869,-7.4869,-7.4869,-7.4869,-7.4869,-7.4869,-7.4869,-7.4869,-7.4869,-7.4869,-7.5228,-7.6125,-7.6574,-7.7173,-7.8071,-7.8549,-7.8789,-7.8789,-7.8789,-7.8789,-7.8789,-7.8789,-7.8789,-7.8789,-7.9447,-8.0345,-8.1422,-8.232,-8.2844,-8.2844,-8.2844,-8.2844,-8.2844,-8.2844,-8.2844,-8.2844,-8.2844,-8.2844,-8.2844,-8.2844,-8.2844,-8.2844,-8.2844,-8.2844,-8.2844,-8.2844,-8.2844,-8.2693,-8.2023,-8.099,-7.9743,-7.9582,-7.8286,-7.6689,-7.6634,-7.5936,-7.4724,-7.2953,-7.2076,-7.1288,-7.003,-6.9541,-6.9361,-6.9361,-6.9361,-6.9361,-6.9361,-6.9361,-6.9361,-6.9361,-6.9361,-6.9361,-6.9361,-6.9361,-6.9361,-6.9361,-6.9361,-6.9361,-6.9361,-6.9361,-6.9361,-6.9361,-6.9361,-6.9361,-6.9361,-6.9752,-7.0054,-7.0255,-7.0932,-7.141,-7.161,-7.2138,-7.2439,-7.2439,-7.264,-7.274,-7.274,-7.274,-7.274,-7.274,-7.274,-7.274,-6.3472,-6.4895,-6.6426,-6.8009,-7.0195,-7.2176,-7.2824,-7.3694,-7.4387,-7.48,-7.4869,-7.4869,-7.4869,-7.4869,-7.4869,-7.4869,-7.4869,-7.4869,-7.4869,-7.4869,-7.5138,-7.5826,-7.6455,-7.7083,-7.7741,-7.84,-7.8789,-7.8789,-7.8789,-7.8789,-7.8789,-7.8789,-7.8998,-7.9447,-7.9896,-8.0764,-8.211,-8.2529,-8.2844,-8.2844,-8.2844,-8.2844,-8.2844,-8.2844,-8.2844,-8.2844,-8.2844,-8.2844,-8.2844,-8.2844,-8.2844,-8.2769,-8.3008,-8.3098,-8.3128,-8.3337,-8.3427,-8.3427,-8.3427,-8.2555,-8.1397,-8.1237,-8.0334,-7.9129,-7.8318,-7.7704,-7.684,-7.4227,-7.304,-7.214,-7.0209,-6.9541,-6.9361,-6.9361,-6.9361,-6.9361,-6.9361,-6.9361,-6.9361,-6.9361,-6.9361,-6.9361,-6.9361,-6.9361,-6.9361,-6.9361,-6.9361,-6.9361,-6.9361,-6.9361,-6.9361,-6.9361,-6.9602,-6.9727,-6.9727,-7.0229,-7.0606,-7.0807,-7.151,-7.1987,-7.2188,-7.2539,-7.274,-7.274,-7.274,-7.274,-7.274,-7.274,-7.274,-7.274,-7.274,-7.274,0.0,0.0,0.0,-6.7964,-7.0311,-7.2328,-7.2387,-7.3397,-7.4387,-7.48,-7.4869,-7.4869,-7.4869,-7.4869,-7.4869,-7.4869,-7.4869,-7.4869,-7.4869,-7.4869,-7.5138,-7.5796,-7.6425,-7.7083,-7.7711,-7.84,-7.8789,-7.8789,-7.8789,-7.8789,-7.8789,-7.8819,-7.9417,-8.0764,-8.0823,-8.1452,-8.2814,-8.2844,-8.2844,-8.2844,-8.2844,-8.2844,-8.2844,-8.2844,-8.2769,-8.2798,-8.2798,-8.2798,-8.2828,-8.2798,-8.2798,-8.2888,-8.3517,-8.3756,-8.3846,-8.4474,-8.4714,-8.4714,-8.4714,-8.3638,-8.2146,-8.1684,-8.0402,-7.8709,-7.72,-7.6754,-7.6166,-7.38,-7.2777,-7.2079,-7.0656,-6.9786,-6.9361,-6.9361,-6.9361,-6.9361,-6.9361,-6.9361,-6.9361,-6.9361,-6.9361,-6.9361,-6.9361,-6.9361,-6.9361,-6.9361,-6.9361,-6.9361,-6.9361,-6.9361,-6.9451,-6.9451,-6.9953,-7.028,-7.028,-7.0782,-7.1334,-7.1887,-7.1912,-7.2163,-7.2715,-7.274,-7.274,-7.274,-7.274,-7.274,-7.274,-7.274,-7.274,-7.274,-7.274,-7.274,-6.5396,0.0,0.0,0.0,0.0,0.0,-7.2693,-7.3602,-7.4387,-7.48,-7.4869,-7.4869,-7.4869,-7.4869,-7.4869,-7.4869,-7.4869,-7.4869,-7.4869,-7.4869,-7.4958,-7.5138,-7.6155,-7.6904,-7.7083,-7.813,-7.8789,0.0,-7.8789,-7.8789,-7.8789,-7.9267,-7.9926,-8.0764,-8.1272,-8.1901,-8.2814,-8.2844,-8.2844,-8.2844,-8.2844,-8.2844,-8.2844,-8.2844,-8.3008,-8.3457,-8.3457,-8.3726,-8.4145,-8.3666,-8.3756,-8.4205,-8.4384,-8.4444,-8.4474,-8.4654,-8.4714,-8.4714,-8.4714,-8.4701,-8.4664,-8.4556,-8.4209,-8.3671,-8.2934,-8.2074,-8.081,-7.8529,-7.7258,-7.5763,-7.2489,-7.0541,-6.9361,-6.9361,-6.9361,-6.9361,-6.9361,-6.9361,-6.9361,-6.9361,-6.9361,-6.9361,-6.9361,-6.9361,-6.9361,-6.9361,-6.9361,-6.9361,-6.9361,-6.9361,-6.9602,-6.9978,-7.0179,-7.043,-7.0832,-7.1359,-7.1736,-7.1887,-7.2288,-7.2565,-7.2715,-7.274,-7.274,-7.274,-7.274,-7.274,-7.274,-7.274,-7.274,-7.274,-7.274,-7.274,-6.5881,-6.6733,-6.7576,-6.9408,0.0,0.0,-7.3051,-7.3849,-7.4387,-7.4594,-7.4525,-7.4456,-7.4594,-7.4663,-7.4663,-7.4869,-7.4869,-7.4869,-7.4869,-7.4869,-7.4869,-7.4869,-7.6036,-7.6814,-7.6814,-7.8011,-7.8789,-7.8789,-7.8789,-7.8789,-7.8789,-7.9447,-8.0135,-8.0764,-8.1452,-8.211,-8.2814,-8.2844,-8.2844,-8.2844,-8.2844,-8.2888,-8.3158,-8.3158,-8.3517,-8.4145,-8.4145,-8.4504,-8.5103,-8.4714,-8.4624,-8.4743,-8.5013,-8.5132,-8.5162,-8.5432,-8.5521,-8.5521,-8.5521,-8.5611,-8.5701,-8.5701,-8.5521,-8.5144,-8.4249,-8.3548,-8.2477,-7.9719,-7.7888,-7.6124,-7.2984,-7.1402,-7.0363,-6.9606,-6.9361,-6.9361,-6.9361,-6.9361,-6.9361,-6.9361,-6.9361,-6.9361,-6.9361,-6.9361,-6.9361,-6.9361,-6.9361,-6.9361,-6.9361,-6.9652,-6.9903,-7.0229,-7.0681,-7.1083,-7.141,-7.1937,-7.2238,-7.2238,-7.2539,-7.274,-7.274,-7.274,-7.274,-7.274,-7.274,-7.274,-7.274,-7.274,-7.274,-7.274,-7.274,-7.274,-6.587,-6.5955,-6.6166,-6.7997,-6.9789,0.0,-7.3461,-7.4117,-7.4387,-7.4387,-7.411,-7.397,-7.4318,-7.4387,-7.4456,-7.48,-7.4869,-7.4869,-7.4869,-7.4869,-7.4869,-7.4869,-7.5976,-7.6754,-7.6814,-7.7951,-7.8699,-7.8789,-7.8789,-7.8789,-7.8789,-7.9507,-8.0195,-8.0764,-8.1512,-8.217,-8.2769,-8.2844,-8.2844,-8.2844,-8.2828,-8.3158,-8.3726,-8.3816,-8.4205,-8.4833,-8.4833,-8.5192,-8.5791,-8.5791,-8.5462,-8.4983,-8.5581,-8.5791,-8.5881,-8.6449,-8.6629,-8.6569,-8.6569,-8.615,-8.5581,-8.5581,-8.5132,-8.4349,-8.2977,-8.274,-8.2222,-7.8888,-7.6649,-7.4866,-7.3269,-7.2663,-7.1992,-7.012,-6.9696,-6.9606,-6.9451,-6.9361,-6.9361,-6.9361,-6.9361,-6.9361,-6.9361,-6.9361,-6.9361,-6.9361,-6.9501,-6.9526,-6.9526,-7.0003,-7.038,-7.043,-7.1309,-7.1937,-7.1987,-7.2439,-7.274,-7.274,-7.274,-7.274,-7.274,-7.274,-7.274,-7.274,-7.274,-7.274,-7.274,-7.274,-7.274,-7.274,-7.274,-7.274,-6.7046,-6.8412,-6.949,-6.9575,-7.1462,0.0,-7.3784,-7.4352,-7.48,-7.48,-7.4731,-7.4731,-7.4731,-7.48,-7.48,-7.4869,-7.4869,-7.4869,-7.4869,-7.4869,-7.4869,-7.4869,-7.5587,-7.6275,-7.6784,-7.7532,-7.822,-7.8759,-7.8789,-7.8789,-7.8789,-7.9956,-8.0674,-8.0794,-8.1961,-8.2694,-8.2844,-8.2844,-8.2844,-8.2769,-8.3277,-8.3606,-8.3756,-8.4295,-8.4893,-8.5492,-8.5492,-8.5881,-8.6479,-8.6479,-8.6419,-8.6299,-8.6419,-8.6479,-8.6509,-8.6629,-8.6329,-8.5881,-8.5881,-8.5462,-8.4923,-8.4923,-8.4444,-8.3752,-8.3139,-8.2444,-8.1536,-8.0136,-7.8745,-7.7362,-7.6732,-7.5455,-7.393,-7.2079,-7.1641,-7.1226,-6.9696,-6.9361,-6.9361,-6.9361,-6.9361,-6.9361,-6.9361,-6.9361,-6.9361,-6.9361,-6.9828,-7.0104,-7.0104,-7.0581,-7.1083,-7.1535,-7.1786,-7.2087,-7.2539,-7.2665,-7.274,-7.274,-7.274,-7.274,-7.274,-7.274,-7.274,-7.274,-7.274,-7.274,-7.274,-7.274,-7.274,-7.274,-7.274,-7.274,-6.7612,-6.8106,-6.8496,-6.8759,-7.0049,0.0,0.0,-7.3912,-7.4594,-7.4594,-7.4456,-7.4387,-7.4594,-7.4594,-7.4663,-7.4869,-7.4869,-7.4869,-7.4869,-7.4869,-7.4869,-7.4869,-7.5497,-7.6036,-7.6335,-7.7233,-7.8071,-7.8729,-7.8789,-7.8789,-7.8789,-8.0075,-8.0794,-8.0794,-8.208,-8.2844,-8.2844,-8.2844,-8.2918,-8.3247,-8.3576,-8.4085,-8.4714,-8.5043,-8.5551,-8.618,-8.618,-8.6359,-8.6689,-8.6689,-8.6479,-8.621,-8.6539,-8.6479,-8.618,-8.618,-8.5761,-8.5192,-8.5192,-8.4773,-8.4235,-8.4235,-8.3786,-8.3171,-8.2711,-8.1935,-8.1156,-8.0687,-7.992,-7.8986,-7.7908,-7.6235,-7.4442,-7.2663,-7.149,-7.0541,-6.9606,-6.9361,-6.9361,-6.9361,-6.9361,-6.9361,-6.9361,-6.9361,-6.9526,-6.9803,-7.0079,-7.0355,-7.0631,-7.1158,-7.161,-7.1887,-7.2163,-7.2439,-7.2715,-7.274,-7.274,-7.274,-7.274,-7.274,-7.274,-7.274,-7.274,-7.274,-7.274,-7.274,-7.274,-7.274,-7.274,-7.274,-7.274,-7.274,-6.8517,-6.801,-6.7586,-6.8408,-6.9152,-7.0289,0.0,0.0,0.0,-7.4387,-7.4179,-7.411,-7.4387,-7.4387,-7.4436,-7.4471,-7.4719,-7.4779,-7.454,-7.4719,-7.4869,-7.4869,-7.5377,-7.5766,-7.5886,-7.7053,-7.8071,-7.8729,-7.8789,-7.8789,-7.8789,-8.0075,-8.0794,-8.0794,-8.208,-8.2844,-8.2844,-8.2844,-8.3098,-8.3726,-8.3846,-8.4534,-8.5701,-8.5821,-8.618,-8.6689,-8.6689,-8.6599,-8.6479,-8.6479,-8.609,-8.5581,-8.624,-8.609,-8.5521,-8.5521,-8.5103,-8.4534,-8.4534,-8.4085,-8.3547,-8.3547,-8.3187,-8.2693,-8.2206,-8.1669,-8.1078,-8.0922,-8.0687,-8.0028,-7.8504,-7.7062,-7.5455,-7.3673,-7.1816,-7.0388,-7.003,-6.9696,-6.9361,-6.9361,-6.9526,-6.9577,-6.9451,-6.9526,-6.9752,-7.0204,-7.0455,-7.0732,-7.1184,-7.1736,-7.2062,-7.2062,-7.2464,-7.274,-7.274,-7.274,-7.274,-7.274,-7.274,-7.274,-7.274,-7.274,-7.274,-7.274,-7.274,-7.274,-7.274,-7.274,-7.274,-7.274,-7.274,-7.274,-7.1133,-7.1322,-7.1294,-7.1423,-7.2528,-7.3823,-7.4495,0.0,-7.48,-7.48,0.0,-7.48,-7.48,0.0,0.0,-7.3313,-7.4121,-7.448,-7.3313,-7.4151,-7.4869,-7.4869,-7.4958,-7.5228,-7.5856,-7.7053,-7.8071,-7.8729,-7.8789,-7.8789,-7.8789,-8.0075,-8.0794,-8.0794,-8.208,-8.2844,-8.2844,-8.2844,-8.3098,-8.3756,-8.4325,-8.4983,-8.5731,-8.6299,-8.6599,-8.6689,-8.6689,-8.6329,-8.5791,-8.5791,-8.5432,-8.4893,-8.5551,-8.5402,-8.4833,-8.4833,-8.4414,-8.3846,-8.3846,-8.3427,-8.2858,-8.2858,-8.2828,-8.2693,-8.2206,-8.2053,-8.1823,-8.1078,-8.0844,-8.0687,-8.0136,-7.987,-7.9204,-7.7418,-7.5623,-7.3844,-7.2254,-7.0541,-6.9361,-6.9361,-6.9828,-7.0003,-6.9526,-6.9853,-7.0179,-7.0255,-7.1083,-7.1736,-7.1811,-7.2288,-7.264,-7.264,-7.269,-7.274,-7.274,-7.274,-7.274,-7.274,-7.274,-7.274,-7.274,-7.274,-7.274,-7.274,-7.274,-7.274,-7.274,-7.274,-7.274,-7.274,-7.274,-7.274,-6.9913,-7.0696,-7.1741,-7.106,-7.1884,-7.2799,-7.2272,-7.3533,-7.4663,-7.3702,0.0,0.0,0.0,0.0,0.0,0.0,-7.451,-7.4689,-7.4121,-7.454,-7.4869,-7.4869,-7.4869,0.0,-7.5826,-7.6724,-7.7502,-7.816,-7.8579,-7.8789,-7.8789,-8.0075,-8.0794,-8.0794,-8.208,-8.2844,-8.2844,-8.3128,-8.3666,-8.4325,-8.4983,-8.5641,-8.627,-8.6539,-8.6479,-8.612,-8.612,-8.5731,-8.5132,-8.5132,-8.4743,-8.4175,-8.4444,-8.4384,-8.4145,-8.4145,-8.3726,-8.3158,-8.3158,-8.2978,-8.2844,-8.2844,-8.2844,-8.2693,-8.2206,-8.19,-8.1592,-8.1078,-8.0766,-8.053,-8.0373,-7.9523,-7.8504,-7.7745,-7.6235,-7.4696,-7.393,-7.2315,-7.1151,-7.1397,-7.087,-7.028,-7.038,-7.0581,-7.0857,-7.1158,-7.161,-7.2012,-7.2339,-7.259,-7.274,-7.274,-7.274,-7.274,-7.274,-7.274,-7.274,-7.274,-7.274,-7.274,-7.274,-7.274,-7.274,-7.274,-7.274,-7.274,-7.274,-7.274,-7.274,-7.274,-7.274,-7.274,-7.0385,-7.1089,-7.2385,-7.1596,-7.1956,-7.2343,-7.1596,-7.3222,-7.4594,-7.3392,-7.408,0.0,0.0,0.0,-7.4749,-7.439,0.0,-7.4749,-7.439,-7.4659,-7.4869,-7.4869,-7.4869,0.0,0.0,-7.6485,-7.7113,-7.7771,-7.843,-7.8789,-7.8789,-8.0075,-8.0794,-8.0794,-8.208,-8.2844,-8.2844,-8.3397,-8.4055,-8.4714,-8.5372,-8.594,-8.6419,-8.6419,-8.606,-8.5432,-8.5432,-8.5043,-8.4444,-8.4444,-8.4055,-8.3457,-8.3457,-8.3457,-8.3457,-8.3457,-8.3158,-8.2844,-8.2844,-8.2844,-8.2844,-8.2844,-8.2844,-8.2769,-8.2388,-8.2053,-8.1775,-8.1204,-8.0844,-8.0609,-8.0373,-7.9364,-7.837,-7.854,-7.7231,-7.5925,-7.6089,-7.4326,-7.2742,-7.316,-7.1897,-7.0832,-7.1234,-7.1309,-7.1435,-7.1836,-7.2037,-7.2288,-7.269,-7.274,-7.274,-7.274,-7.274,-7.274,-7.274,-7.274,-7.274,-7.274,-7.274,-7.274,-7.274,-7.274,-7.274,-7.274,-7.274,-7.274,-7.274,-7.274,-7.274,-7.274,-7.274,-7.274,-7.4731,-7.4456,-7.4318,-7.4663,-7.4456,-7.4318,-7.4663,-7.48,-7.4869,-7.48,-7.4869,-7.4869,-7.4869,-7.4869,-7.445,-7.3193,-7.4031,0.0,0.0,-7.4061,-7.4869,-7.4869,-7.4869,-7.5138,0.0,-7.6485,-7.7113,0.0,-7.843,-7.8789,-7.8789,-8.0075,-8.0794,-8.0794,-8.208,-8.2844,-8.2844,-8.3397,-8.4055,-8.4714,-8.5372,-8.5701,-8.5731,-8.5731,-8.5372,-8.4743,-8.4743,-8.4384,-8.3756,-8.3756,-8.3397,-8.2798,-8.2798,-8.2798,-8.2798,-8.2798,-8.2769,-8.2844,-8.2844,-8.2844,-8.2844,-8.2844,-8.2844,-8.2844,-8.2769,-8.2769,-8.2617,-8.1746,-8.1437,-8.1282,-8.053,-8.0294,-8.036,-8.094,-7.9739,-7.8539,-7.9211,-7.6402,-7.3813,-7.3839,-7.2818,-7.1861,-7.1887,-7.1887,-7.1887,-7.1912,-7.2364,-7.2715,-7.274,-7.274,-7.274,-7.274,-7.274,-7.274,-7.274,-7.274,-7.274,-7.274,-7.274,-7.274,-7.274,-7.274,-7.274,-7.274,-7.274,-7.274,-7.274,-7.274,-7.274,-7.274,-7.274,-7.274,-7.4368,-7.4661,-7.5299,-7.4988,-7.48,-7.4456,-7.3533,-7.4149,-7.4495,-7.3181,-7.3981,-7.48,-7.4525,-7.4731,-7.4719,0.0,0.0,0.0,0.0,-7.4599,-7.4869,-7.4869,-7.4869,-7.4958,-7.5198,0.0,0.0,0.0,-7.816,0.0,-7.8789,-8.0075,-8.0794,-8.0794,-8.208,-8.2844,-8.2844,-8.3846,-8.4504,-8.4714,-8.5372,-8.5701,-8.5671,-8.5252,-8.4684,-8.4055,-8.4055,-8.3696,-8.3098,-8.3098,-8.2948,-8.2844,-8.2844,-8.2844,-8.2844,-8.2844,-8.2844,-8.2844,-8.2844,-8.2844,-8.2844,-8.2844,-8.3068,-8.3397,-8.3397,-8.3543,-8.3514,-8.2998,-8.2575,-8.2259,-8.1703,-8.1543,-8.1601,-8.1804,-8.143,-8.0972,-8.1283,-7.837,-7.5806,-7.6208,-7.3897,-7.2012,-7.2389,-7.2439,-7.2439,-7.2439,-7.2615,-7.274,-7.274,-7.274,-7.274,-7.274,-7.274,-7.274,-7.274,-7.274,-7.274,-7.274,-7.274,-7.274,-7.274,-7.274,-7.274,-7.274,-7.274,-7.274,-7.274,-7.274,-7.274,-7.274,-7.3117,-7.3293,-7.5046,-7.5454,-7.6125,-7.5677,-7.5407,-7.5021,-7.3985,-7.4327,-7.4495,-7.3252,-7.3981,-7.48,-7.4525,-7.4731,-7.4869,0.0,0.0,0.0,0.0,-7.4869,-7.4869,-7.4869,-7.4869,-7.4869,-7.4869,0.0,0.0,0.0,0.0,0.0,0.0,-8.0075,-8.0794,-8.0794,-8.208,-8.2858,-8.3098,-8.4175,-8.4714,-8.4714,-8.5372,-8.5462,-8.4983,-8.4564,-8.3995,-8.3397,-8.3397,-8.3158,-8.2844,-8.2844,-8.2844,-8.2844,-8.2844,-8.2844,-8.2844,-8.2844,-8.2844,-8.2798,-8.3038,-8.3098,-8.3158,-8.3367,-8.3756,-8.4085,-8.4085,-8.4152,-8.4246,-8.3805,-8.346,-8.3143,-8.2584,-8.2423,-8.2401,-8.25,-8.2559,-8.2617,-8.282,-8.0419,-7.8373,-7.8785,-7.5856,-7.3291,-7.3673,-7.3187,-7.274,-7.274,-7.274,-7.274,-7.274,-7.274,-7.274,-7.274,-7.274,-7.274,-7.274,-7.274,-7.274,-7.274,-7.274,-7.274,-7.274,-7.274,-7.2816,-7.3042,-7.2841,-7.2841,-7.3042,-7.3042,-7.3042,-7.3042,-7.3619,-7.3996]},{"header":{"parameterUnit":"m.s-1","parameterCategory":1,"la1":30.6,"la2":29.2853,"lo1":-89.7004,"lo2":-87.6739,"dy":0.0162,"dx":0.0183,"nx":112,"ny":82,"refTime":"2024-03-21T06:00:00:Z","depth":0,"parameterNumber":3,"parameterNumberName":"V-component_of_WINDS"},"data":[0.0,0.0,0.0,0.0,0.0,0.0,0.0,0.0,0.0,0.0,0.0,0.0,0.0,0.0,0.0,0.0,0.0,0.0,0.0,0.0,0.0,0.0,0.0,0.0,0.0,0.0,0.0,0.0,0.0,0.0,0.0,0.0,0.0,0.0,0.0,0.0,0.0,0.0,0.0,0.0,0.0,0.0,0.0,0.0,0.0,0.0,0.0,0.0,0.0,0.0,0.0,0.0,0.0,0.0,0.0,0.0,0.0,0.0,0.0,0.0,0.0,0.0,0.0,0.0,0.0,0.0,0.0,0.0,0.0,0.0,0.0,0.0,0.0,0.0,0.0,0.0,0.0,0.0,0.0,0.0,0.0,0.0,0.0,0.0,0.0,0.0,0.0,0.0,0.0,0.0,6.1318,6.1417,6.1584,6.184,6.2253,6.2293,6.2447,6.2719,0.0,0.0,0.0,0.0,0.0,0.0,0.0,0.0,0.0,0.0,0.0,0.0,0.0,0.0,0.0,0.0,0.0,0.0,0.0,0.0,0.0,0.0,0.0,0.0,0.0,0.0,0.0,0.0,0.0,0.0,0.0,0.0,0.0,0.0,0.0,0.0,0.0,0.0,0.0,0.0,0.0,0.0,0.0,0.0,0.0,0.0,0.0,0.0,0.0,0.0,0.0,0.0,0.0,0.0,0.0,0.0,0.0,0.0,0.0,0.0,0.0,0.0,0.0,0.0,0.0,0.0,0.0,0.0,0.0,0.0,0.0,0.0,0.0,0.0,0.0,0.0,0.0,0.0,0.0,0.0,0.0,0.0,0.0,0.0,0.0,0.0,0.0,0.0,0.0,0.0,0.0,0.0,0.0,0.0,0.0,0.0,0.0,0.0,0.0,0.0,0.0,0.0,0.0,0.0,6.2288,6.2875,6.2984,6.3164,6.3551,6.3592,6.3792,6.4235,0.0,0.0,0.0,0.0,0.0,0.0,0.0,0.0,0.0,0.0,0.0,0.0,0.0,0.0,0.0,0.0,0.0,0.0,0.0,0.0,0.0,0.0,0.0,0.0,0.0,0.0,0.0,0.0,0.0,0.0,0.0,0.0,0.0,0.0,0.0,0.0,0.0,0.0,0.0,0.0,0.0,0.0,0.0,0.0,0.0,0.0,0.0,0.0,0.0,0.0,0.0,0.0,0.0,0.0,0.0,0.0,0.0,0.0,0.0,0.0,0.0,0.0,0.0,0.0,0.0,0.0,0.0,0.0,0.0,0.0,0.0,0.0,0.0,0.0,0.0,0.0,0.0,0.0,0.0,0.0,0.0,0.0,0.0,0.0,0.0,0.0,0.0,0.0,0.0,0.0,0.0,0.0,0.0,0.0,0.0,0.0,0.0,0.0,0.0,0.0,0.0,0.0,0.0,6.2577,6.2951,6.3282,6.3315,6.3487,6.3877,6.3886,6.4086,6.4573,6.385,0.0,0.0,0.0,0.0,0.0,0.0,0.0,0.0,0.0,0.0,0.0,0.0,0.0,0.0,0.0,0.0,0.0,0.0,0.0,0.0,0.0,0.0,0.0,0.0,0.0,0.0,0.0,0.0,0.0,0.0,0.0,0.0,0.0,0.0,0.0,0.0,0.0,0.0,0.0,0.0,0.0,0.0,0.0,0.0,0.0,0.0,0.0,0.0,0.0,0.0,0.0,0.0,0.0,0.0,0.0,0.0,0.0,0.0,0.0,0.0,0.0,0.0,0.0,0.0,0.0,0.0,0.0,0.0,0.0,0.0,0.0,0.0,0.0,0.0,0.0,0.0,0.0,0.0,0.0,0.0,0.0,0.0,0.0,0.0,0.0,0.0,0.0,0.0,0.0,0.0,0.0,0.0,0.0,0.0,0.0,0.0,0.0,0.0,0.0,0.0,0.0,0.0,6.3537,6.3603,6.3769,6.3769,6.3985,6.4379,6.4421,6.4631,6.508,6.499,0.0,0.0,0.0,0.0,0.0,0.0,0.0,0.0,0.0,0.0,0.0,0.0,0.0,0.0,0.0,0.0,0.0,0.0,0.0,0.0,0.0,0.0,0.0,0.0,0.0,0.0,0.0,0.0,0.0,0.0,0.0,0.0,0.0,0.0,0.0,0.0,0.0,0.0,0.0,0.0,0.0,0.0,0.0,0.0,0.0,0.0,0.0,0.0,0.0,0.0,0.0,0.0,0.0,0.0,0.0,0.0,0.0,0.0,0.0,0.0,0.0,0.0,0.0,0.0,0.0,0.0,0.0,0.0,0.0,0.0,0.0,0.0,0.0,0.0,0.0,0.0,0.0,0.0,0.0,0.0,0.0,0.0,0.0,0.0,0.0,0.0,0.0,0.0,0.0,0.0,0.0,0.0,0.0,0.0,0.0,0.0,0.0,0.0,0.0,0.0,0.0,0.0,6.4266,6.4564,6.5194,6.526,6.5437,6.5885,6.5928,6.6177,6.6635,6.6635,0.0,0.0,0.0,0.0,0.0,0.0,0.0,0.0,0.0,0.0,0.0,0.0,0.0,0.0,0.0,0.0,0.0,0.0,0.0,0.0,0.0,0.0,0.0,0.0,0.0,0.0,0.0,0.0,0.0,0.0,0.0,0.0,0.0,0.0,0.0,0.0,0.0,0.0,0.0,0.0,0.0,0.0,0.0,0.0,0.0,0.0,0.0,0.0,0.0,0.0,0.0,0.0,0.0,0.0,0.0,0.0,0.0,0.0,0.0,0.0,0.0,0.0,0.0,0.0,0.0,0.0,0.0,0.0,0.0,0.0,0.0,0.0,0.0,0.0,0.0,0.0,0.0,0.0,0.0,0.0,0.0,0.0,0.0,0.0,0.0,0.0,0.0,0.0,0.0,0.0,0.0,0.0,0.0,0.0,0.0,0.0,0.0,0.0,0.0,0.0,0.0,0.0,6.5028,6.5127,6.5392,6.5425,6.5559,6.5911,6.5911,6.6042,6.6354,0.0,0.0,0.0,0.0,0.0,0.0,0.0,0.0,0.0,0.0,0.0,0.0,0.0,0.0,0.0,0.0,0.0,0.0,0.0,0.0,0.0,0.0,0.0,0.0,0.0,0.0,0.0,0.0,0.0,0.0,0.0,0.0,0.0,0.0,0.0,0.0,0.0,0.0,0.0,0.0,0.0,0.0,0.0,0.0,0.0,0.0,0.0,0.0,0.0,0.0,0.0,0.0,0.0,0.0,0.0,0.0,0.0,0.0,0.0,0.0,0.0,0.0,0.0,0.0,0.0,0.0,0.0,0.0,0.0,0.0,0.0,0.0,0.0,0.0,0.0,0.0,0.0,0.0,0.0,0.0,0.0,0.0,0.0,0.0,0.0,0.0,0.0,0.0,0.0,0.0,0.0,0.0,0.0,0.0,0.0,0.0,0.0,0.0,0.0,0.0,0.0,0.0,6.5425,6.5425,6.5425,6.5425,6.5425,6.5514,6.578,6.5867,6.5922,6.6095,0.0,0.0,0.0,0.0,0.0,0.0,0.0,0.0,0.0,0.0,0.0,0.0,0.0,0.0,0.0,0.0,0.0,0.0,0.0,0.0,0.0,0.0,0.0,0.0,0.0,0.0,0.0,0.0,0.0,0.0,0.0,0.0,0.0,0.0,0.0,0.0,0.0,0.0,0.0,0.0,0.0,0.0,0.0,0.0,0.0,0.0,0.0,0.0,0.0,0.0,0.0,0.0,0.0,0.0,0.0,0.0,0.0,0.0,0.0,0.0,0.0,0.0,0.0,0.0,0.0,0.0,0.0,0.0,0.0,0.0,0.0,0.0,0.0,0.0,0.0,0.0,0.0,0.0,0.0,0.0,0.0,0.0,0.0,0.0,0.0,0.0,0.0,0.0,0.0,0.0,0.0,0.0,0.0,0.0,0.0,0.0,0.0,0.0,0.0,0.0,0.0,0.0,6.5425,6.5425,6.5425,6.5425,6.5425,6.5514,6.578,6.5965,6.6095,0.0,0.0,0.0,0.0,0.0,0.0,0.0,0.0,0.0,0.0,0.0,0.0,0.0,0.0,0.0,0.0,0.0,0.0,0.0,0.0,0.0,0.0,0.0,0.0,0.0,0.0,0.0,0.0,0.0,0.0,0.0,0.0,0.0,0.0,0.0,0.0,0.0,0.0,0.0,0.0,0.0,0.0,0.0,0.0,0.0,0.0,0.0,0.0,0.0,0.0,0.0,0.0,0.0,0.0,0.0,0.0,0.0,0.0,0.0,0.0,0.0,0.0,0.0,0.0,0.0,0.0,0.0,0.0,0.0,0.0,0.0,0.0,0.0,0.0,0.0,0.0,0.0,0.0,0.0,0.0,0.0,0.0,0.0,0.0,0.0,0.0,0.0,0.0,0.0,0.0,0.0,0.0,0.0,0.0,0.0,0.0,0.0,0.0,0.0,0.0,0.0,0.0,0.0,6.5425,6.5425,6.5425,6.5425,6.5425,6.5425,6.5514,6.557,6.5647,6.5647,0.0,0.0,0.0,0.0,0.0,0.0,0.0,0.0,0.0,0.0,0.0,0.0,0.0,0.0,0.0,0.0,0.0,0.0,0.0,0.0,0.0,0.0,0.0,0.0,0.0,0.0,0.0,0.0,0.0,0.0,0.0,0.0,0.0,0.0,0.0,0.0,0.0,0.0,0.0,0.0,0.0,0.0,0.0,0.0,0.0,0.0,0.0,0.0,0.0,0.0,0.0,0.0,0.0,0.0,0.0,0.0,0.0,0.0,0.0,0.0,0.0,0.0,0.0,0.0,0.0,0.0,0.0,0.0,0.0,0.0,0.0,0.0,0.0,0.0,0.0,0.0,0.0,0.0,0.0,0.0,0.0,0.0,0.0,0.0,0.0,0.0,0.0,0.0,0.0,0.0,0.0,0.0,0.0,0.0,0.0,0.0,0.0,0.0,0.0,0.0,0.0,0.0,6.5425,6.5657,6.5856,6.5856,6.6121,6.6187,6.5889,6.5946,6.5858,6.5559,0.0,0.0,0.0,0.0,0.0,0.0,0.0,0.0,0.0,0.0,0.0,0.0,0.0,0.0,0.0,0.0,0.0,0.0,0.0,0.0,0.0,0.0,0.0,0.0,0.0,0.0,0.0,0.0,0.0,0.0,0.0,0.0,0.0,0.0,0.0,0.0,0.0,0.0,0.0,0.0,0.0,0.0,0.0,0.0,0.0,0.0,0.0,0.0,0.0,0.0,0.0,0.0,0.0,0.0,0.0,0.0,0.0,0.0,0.0,0.0,0.0,0.0,0.0,0.0,0.0,0.0,0.0,0.0,0.0,0.0,0.0,0.0,0.0,0.0,0.0,0.0,0.0,0.0,0.0,0.0,0.0,0.0,0.0,0.0,0.0,0.0,0.0,0.0,0.0,0.0,0.0,0.0,0.0,0.0,0.0,0.0,0.0,0.0,0.0,0.0,0.0,0.0,6.5492,6.6121,6.6552,6.6618,6.7168,6.7301,6.6684,6.6832,6.6634,6.5902,0.0,0.0,0.0,0.0,0.0,0.0,0.0,0.0,0.0,0.0,0.0,0.0,0.0,0.0,0.0,0.0,0.0,0.0,0.0,0.0,0.0,0.0,0.0,0.0,0.0,0.0,0.0,0.0,0.0,0.0,0.0,0.0,0.0,0.0,0.0,0.0,0.0,0.0,0.0,0.0,0.0,0.0,0.0,0.0,0.0,0.0,0.0,0.0,0.0,0.0,0.0,0.0,0.0,0.0,0.0,0.0,0.0,0.0,0.0,0.0,5.6497,0.0,0.0,0.0,0.0,0.0,0.0,0.0,0.0,0.0,0.0,0.0,0.0,0.0,0.0,0.0,0.0,0.0,0.0,0.0,0.0,0.0,0.0,0.0,0.0,0.0,0.0,0.0,0.0,0.0,0.0,0.0,0.0,0.0,0.0,0.0,0.0,0.0,0.0,0.0,0.0,0.0,6.622,6.6419,6.6751,6.7268,6.7499,6.7533,6.7367,6.7426,6.7127,6.6365,6.6601,0.0,0.0,0.0,0.0,0.0,0.0,0.0,0.0,0.0,0.0,0.0,0.0,0.0,0.0,0.0,0.0,0.0,0.0,0.0,0.0,0.0,0.0,0.0,0.0,0.0,0.0,0.0,0.0,0.0,0.0,0.0,0.0,0.0,0.0,0.0,0.0,0.0,0.0,0.0,0.0,0.0,0.0,0.0,0.0,0.0,0.0,0.0,0.0,0.0,0.0,0.0,0.0,0.0,0.0,0.0,0.0,0.0,0.0,0.0,0.0,5.6989,0.0,0.0,0.0,0.0,0.0,0.0,0.0,0.0,0.0,0.0,0.0,0.0,0.0,0.0,0.0,0.0,0.0,0.0,0.0,0.0,0.0,0.0,0.0,0.0,0.0,0.0,0.0,0.0,0.0,0.0,0.0,0.0,0.0,0.0,0.0,0.0,0.0,0.0,0.0,0.0,6.6904,6.7678,6.8241,6.8639,6.9301,6.9599,6.9235,6.8871,6.842,6.7783,6.7612,0.0,0.0,0.0,0.0,0.0,0.0,0.0,0.0,0.0,0.0,0.0,0.0,0.0,0.0,0.0,0.0,0.0,0.0,0.0,0.0,0.0,0.0,0.0,0.0,0.0,0.0,0.0,0.0,0.0,0.0,0.0,0.0,0.0,0.0,0.0,0.0,0.0,0.0,0.0,0.0,0.0,0.0,0.0,0.0,0.0,0.0,0.0,0.0,0.0,0.0,0.0,0.0,0.0,5.8757,5.9458,5.9488,6.0595,6.1104,6.0984,5.877,5.7723,5.7603,5.7483,0.0,0.0,0.0,0.0,0.0,0.0,0.0,0.0,0.0,0.0,0.0,0.0,0.0,0.0,0.0,0.0,0.0,0.0,0.0,0.0,0.0,0.0,0.0,0.0,6.569,6.579,6.579,0.0,0.0,0.0,0.0,0.0,0.0,0.0,0.0,0.0,0.0,0.0,6.791,6.9169,7.003,7.0163,7.1289,7.1753,7.1123,7.0527,6.996,6.945,6.8915,6.8417,0.0,0.0,0.0,0.0,0.0,0.0,0.0,0.0,0.0,0.0,0.0,0.0,0.0,0.0,0.0,0.0,0.0,0.0,0.0,0.0,0.0,0.0,0.0,0.0,0.0,0.0,0.0,0.0,0.0,0.0,0.0,0.0,5.5136,5.5136,0.0,0.0,0.0,0.0,0.0,0.0,0.0,0.0,0.0,0.0,0.0,0.0,0.0,5.8309,5.8785,5.9655,6.009,6.009,6.0578,6.0864,6.0864,6.1044,6.1104,6.1104,6.0745,0.0,5.9638,5.9069,0.0,0.0,0.0,0.0,0.0,0.0,0.0,0.0,0.0,0.0,0.0,0.0,0.0,0.0,0.0,0.0,0.0,0.0,0.0,0.0,0.0,0.0,6.6386,6.6386,6.6804,6.7301,0.0,6.6275,6.5425,6.5425,6.5425,0.0,0.0,0.0,0.0,0.0,0.0,0.0,6.9401,7.0229,7.0991,7.1653,7.1885,7.1951,7.1852,7.1786,7.1388,7.0708,7.0215,6.9682,6.9188,6.8808,0.0,0.0,0.0,0.0,0.0,0.0,0.0,0.0,0.0,0.0,0.0,0.0,0.0,0.0,0.0,0.0,0.0,0.0,0.0,0.0,0.0,0.0,0.0,0.0,0.0,0.0,0.0,0.0,0.0,5.5342,5.5654,5.5571,5.5782,5.5996,0.0,0.0,0.0,0.0,0.0,0.0,0.0,0.0,0.0,5.9125,5.9644,5.9997,6.0265,6.0674,6.088,6.088,6.1437,6.1672,6.1672,6.2061,6.2211,6.2181,6.1822,6.1493,6.1164,6.0505,6.0236,6.0236,0.0,0.0,0.0,0.0,6.0236,6.0236,6.0236,6.0236,6.0236,6.0236,0.0,0.0,0.0,0.0,0.0,0.0,0.0,0.0,0.0,0.0,6.7148,6.7148,6.7334,6.7744,6.8142,6.7711,6.7148,0.0,6.6651,6.6883,6.7612,0.0,0.0,0.0,0.0,7.0196,7.0924,7.2018,7.2846,7.3177,7.3939,7.427,7.3873,7.3442,7.2912,7.2183,7.1697,7.1204,7.0636,7.0208,6.9861,0.0,0.0,0.0,0.0,0.0,0.0,0.0,0.0,0.0,0.0,0.0,0.0,0.0,0.0,0.0,0.0,0.0,0.0,0.0,0.0,0.0,0.0,0.0,0.0,0.0,0.0,0.0,0.0,5.6104,5.6329,5.6163,5.6393,5.6828,0.0,0.0,0.0,0.0,0.0,0.0,5.9546,6.0301,6.0737,6.0737,6.1141,6.1433,6.1613,6.1762,6.1942,6.2121,6.26,6.2839,6.2869,6.3348,6.3588,6.3558,6.3049,6.2839,6.275,6.1583,6.1104,6.1104,6.1104,6.1104,6.1104,6.1104,6.1104,6.1104,6.1104,6.1104,6.1104,6.1104,6.1104,6.1104,6.1104,0.0,0.0,0.0,0.0,6.6918,6.7922,6.8307,6.8473,6.8473,6.8606,6.8904,6.9434,6.9533,6.9268,0.0,6.8175,6.8407,6.9136,0.0,0.0,0.0,7.162,7.2018,7.2746,7.3939,7.4734,7.4734,7.5662,7.6092,7.5595,7.5032,7.4502,7.3972,7.3276,7.2707,7.2348,7.1667,7.1207,7.0951,0.0,0.0,0.0,0.0,0.0,0.0,0.0,0.0,0.0,0.0,0.0,0.0,0.0,0.0,0.0,0.0,0.0,0.0,0.0,0.0,0.0,0.0,0.0,0.0,0.0,0.0,0.0,0.0,0.0,5.7193,5.7971,0.0,0.0,0.0,0.0,6.0023,6.0395,6.0509,6.0509,6.085,6.1048,6.1048,6.1732,6.2361,6.2959,6.3558,6.4186,6.4814,6.4874,6.4874,6.4874,6.4904,6.4934,6.4934,6.4904,6.4874,6.4695,6.2151,6.1104,6.1104,6.1104,6.1104,6.1104,6.1104,6.1104,6.1104,6.1104,6.1104,6.1104,6.1104,6.1104,6.1104,6.1104,6.2603,0.0,0.0,6.6921,6.8724,6.95,7.0196,7.0726,7.0726,7.1289,7.1786,7.1819,7.1819,7.1421,0.0,6.9666,6.9931,7.0659,0.0,7.1289,7.278,7.3575,7.4321,7.5032,7.5761,7.6192,7.6192,7.6258,7.6291,7.6258,7.6225,7.6192,7.6159,7.4884,7.4189,7.4373,7.304,7.2515,7.2969,7.2229,0.0,0.0,0.0,0.0,0.0,0.0,0.0,0.0,0.0,0.0,0.0,0.0,0.0,0.0,0.0,0.0,0.0,0.0,0.0,0.0,0.0,0.0,0.0,0.0,0.0,0.0,0.0,0.0,5.8545,5.9359,0.0,6.007,6.0099,6.033,6.0737,6.1267,6.1741,6.2159,6.2692,6.3169,6.3617,6.4276,6.4725,6.4964,6.5592,6.6041,6.6281,6.6281,6.6281,6.6281,6.6281,6.6281,6.6281,6.6281,6.6281,6.6221,6.5293,6.4395,6.3617,6.3617,6.3617,6.3617,6.3617,6.3617,6.3617,6.3617,6.3617,6.3617,6.3617,6.3617,6.3617,6.3617,6.4706,6.6067,6.7099,6.8511,6.991,7.0929,7.1753,7.2316,7.2316,7.2879,7.3541,7.4005,7.4105,7.4105,7.4005,7.2879,7.215,7.2879,7.3409,7.4038,7.5032,7.5397,7.5628,7.5894,7.6589,7.702,7.702,7.745,7.755,7.7053,7.702,7.6821,7.6324,7.5827,7.5632,7.5921,7.4955,7.452,7.4503,7.3763,7.3164,0.0,0.0,0.0,0.0,0.0,0.0,0.0,0.0,0.0,0.0,0.0,0.0,0.0,0.0,0.0,0.0,0.0,0.0,0.0,0.0,0.0,0.0,0.0,0.0,0.0,5.9277,5.9859,5.9578,6.0244,6.0827,6.0921,6.1273,6.1625,6.2061,6.272,6.3378,6.4036,6.4455,6.4994,6.5652,6.6101,6.646,6.667,6.7119,6.7448,6.7657,6.7657,6.7657,6.7657,6.7657,6.7657,6.7657,6.7657,6.7657,6.7657,6.7657,6.7148,6.6311,6.5862,6.5682,6.5682,6.5682,6.5682,6.5682,6.5682,6.5682,6.5682,6.5682,6.5682,6.5682,6.5682,6.6456,6.7703,6.9161,7.0374,7.1584,7.3041,7.3807,7.4204,7.4204,7.4535,7.5032,7.5529,7.5628,7.5761,7.6225,7.5165,7.4337,7.48,7.5297,7.586,7.6589,7.6689,7.6755,7.702,7.7484,7.7782,7.7782,7.8212,7.8312,7.7815,7.7782,7.7583,7.7086,7.6821,7.6741,7.6897,7.6251,7.5722,7.5435,7.4892,7.4579,7.4627,0.0,0.0,0.0,0.0,0.0,0.0,0.0,0.0,0.0,0.0,0.0,0.0,0.0,0.0,0.0,0.0,0.0,0.0,0.0,0.0,0.0,0.0,0.0,5.9253,6.007,6.0541,6.0286,6.0827,6.132,6.1662,6.2577,6.3408,6.4006,6.4695,6.5383,6.6041,6.6071,6.637,6.7029,6.7059,6.7388,6.8046,6.8076,6.8435,6.9123,6.9123,6.9123,6.9123,6.9123,6.9123,6.9123,6.9093,6.9093,6.9093,6.9064,6.9064,6.8944,6.7597,6.7059,6.7059,6.7059,6.7059,6.7059,6.7059,6.7059,6.7059,6.7059,6.7059,6.7059,6.7059,6.785,6.913,7.1085,7.2516,7.3804,7.5727,7.6272,7.6324,7.6324,7.6357,7.639,7.639,7.639,7.639,7.639,7.639,7.6357,7.6357,7.6357,7.6622,7.7351,7.745,0.0,7.8444,7.8511,7.8511,7.8511,7.8511,7.8511,7.8511,7.8511,7.8511,7.8511,7.7848,7.745,7.745,7.6755,7.6163,7.5772,7.5502,7.586,7.6927,0.0,0.0,0.0,0.0,0.0,0.0,0.0,0.0,0.0,0.0,0.0,0.0,0.0,0.0,0.0,0.0,0.0,0.0,0.0,0.0,0.0,6.0546,6.0892,6.0304,6.1035,6.1652,6.1595,6.2515,6.32,6.3322,6.4456,6.5263,6.5443,6.6071,6.6729,6.7388,6.7418,6.7747,6.8435,6.8914,6.9453,7.0081,7.056,7.1158,7.1846,7.1846,7.1846,7.1846,7.1846,7.1846,7.1816,7.1308,7.1098,7.1038,7.059,7.038,7.026,6.8944,6.8435,6.8435,6.8435,6.8435,6.8435,6.8435,6.8435,6.8435,6.8435,6.8435,6.8435,6.8435,6.8685,6.9243,7.0641,7.1939,7.3227,7.4583,7.6022,7.7119,7.7119,7.7517,7.7914,7.7914,7.7914,7.7914,7.7914,7.7914,7.7749,7.7219,7.755,7.798,7.8179,7.8212,0.0,7.8477,7.8511,7.8511,7.8511,7.8511,7.8511,7.8511,7.8511,7.8511,7.8511,7.8345,7.8212,7.8212,7.8014,7.7655,7.7237,7.6809,7.6843,0.0,0.0,0.0,0.0,0.0,0.0,0.0,0.0,0.0,0.0,0.0,0.0,0.0,0.0,0.0,0.0,0.0,0.0,0.0,0.0,0.0,0.0,6.1432,6.2048,6.2015,6.2515,6.2899,6.2899,6.4036,6.4844,6.4844,6.6041,6.6819,6.6819,6.7448,6.8136,6.8764,6.9064,6.9512,7.0201,7.0859,7.1368,7.1727,7.2116,7.2505,7.2924,7.2924,7.2924,7.2924,7.2924,7.2924,7.2894,7.2505,7.2325,7.2295,7.1906,7.1757,0.0,0.0,0.0,0.0,0.0,6.9812,6.9812,6.9812,6.9812,6.9812,6.9812,6.9812,6.9812,6.9812,6.9812,7.0037,7.1322,7.2206,7.3128,7.4855,7.6212,7.7172,7.7688,7.8212,7.8511,7.8511,7.8511,7.8511,7.8511,7.8511,0.0,7.7947,7.8246,7.8511,7.8511,7.8511,7.8511,7.8511,7.8511,7.8511,7.8511,7.8511,7.8511,7.8511,7.8511,0.0,0.0,0.0,7.8511,7.8511,7.8212,0.0,0.0,0.0,7.773,7.8286,7.8102,0.0,0.0,7.5932,7.5777,0.0,0.0,0.0,0.0,0.0,0.0,0.0,0.0,0.0,0.0,0.0,0.0,0.0,0.0,0.0,0.0,6.2291,6.3267,6.4038,6.4307,6.4395,6.4246,6.5413,6.6221,6.6221,6.7418,6.8226,6.8286,6.8944,6.9602,7.026,7.0829,0.0,0.0,0.0,7.2954,7.3013,7.3013,7.3073,7.3133,7.3133,7.3133,7.3133,7.3133,7.3133,7.3133,7.3073,7.3013,7.3013,7.2954,7.2924,7.2774,7.1517,7.0979,7.0889,7.0889,7.0889,7.0889,7.0889,0.0,0.0,7.0889,7.0889,7.0889,7.0889,7.0889,7.1148,7.2267,7.2705,7.3353,7.5791,7.6508,7.6902,7.8209,7.8511,7.8511,7.8511,7.8511,7.8511,7.8511,7.8511,7.8544,7.8643,7.8577,7.8511,7.8511,7.8511,7.8544,7.8643,7.8643,7.8676,7.8742,0.0,0.0,7.8776,7.8776,7.8776,7.8776,7.8676,7.861,7.8511,7.7881,7.7954,7.885,7.825,7.8407,7.9336,7.8924,7.8741,7.8792,7.8301,7.8111,0.0,0.0,0.0,0.0,0.0,0.0,0.0,0.0,0.0,0.0,0.0,0.0,0.0,0.0,0.0,6.2348,6.4009,6.5262,6.4896,6.6183,6.6819,6.5742,6.6789,6.7597,6.7597,6.8794,6.9812,7.029,7.0949,7.1637,7.2295,7.2445,7.2595,7.2714,7.2834,7.3163,7.3702,7.3702,7.3971,7.448,0.0,0.0,7.448,7.448,7.448,7.448,7.3941,7.3702,7.3672,7.3133,7.2924,7.2834,7.2026,7.1368,7.0889,7.0889,7.0889,7.0889,7.0889,7.0889,7.0889,7.0889,7.0889,7.0889,7.0889,7.0889,0.0,7.1212,7.2046,7.3169,7.4648,7.5848,7.6902,7.8209,7.8511,7.8511,7.8511,7.8511,7.8511,7.8511,7.8511,7.8709,7.9251,7.8908,7.8511,7.8511,7.8511,7.8742,7.9285,7.9405,7.9637,8.02,8.0266,8.0266,8.0266,8.0266,8.0266,8.0266,7.9736,7.914,7.8544,7.8378,7.8378,7.8564,7.8431,7.8591,7.8988,7.8908,7.8998,7.9257,7.8977,7.8889,0.0,0.0,0.0,0.0,0.0,0.0,0.0,0.0,0.0,0.0,0.0,6.1658,6.1658,0.0,6.3757,6.3573,6.4999,6.6228,6.6224,6.7775,6.8381,6.687,6.831,6.9423,6.9423,7.0649,7.1577,7.1876,7.2206,7.2565,7.2894,7.3223,7.3402,7.3402,7.3732,7.4061,7.439,7.439,7.454,7.4869,7.4869,7.4869,7.4869,7.4869,7.4869,7.4869,7.454,7.439,7.436,7.4031,7.3702,7.3373,7.3013,7.2475,7.1906,7.1906,7.1697,7.1398,7.1398,7.1188,7.0889,7.0889,7.0889,7.0889,7.0889,7.0889,7.0889,7.0889,7.1375,7.2141,7.3415,7.4231,7.5002,7.6306,7.7102,7.7577,7.7577,7.8046,7.8643,7.9007,7.9074,7.9306,8.0034,7.9836,7.9604,7.9604,7.9604,7.9736,8.0101,8.0167,8.0299,8.0664,8.0697,8.0697,8.0697,8.0697,8.0697,8.0697,8.0366,8.0001,7.9637,7.9604,7.9604,7.9604,7.9239,7.9128,7.9289,7.8996,7.9188,7.9714,7.9763,7.9651,0.0,0.0,0.0,0.0,0.0,0.0,0.0,6.128,6.1367,6.1367,6.1861,6.2325,6.2441,6.3677,6.4681,6.4735,6.606,6.7254,6.7826,6.9234,6.9795,6.8551,7.0062,7.1308,7.1308,7.2265,7.2954,7.3103,7.3103,7.3163,7.3283,7.3791,7.4091,7.4091,7.4599,7.4869,7.4869,7.4869,7.4869,7.4869,7.4869,7.4869,7.4869,7.4869,7.4869,7.4869,7.4869,7.4869,7.4869,7.4869,7.4569,7.4091,7.4091,7.3762,7.3283,7.3013,7.2565,7.2086,7.2086,7.1727,7.1308,7.1308,7.1308,7.1278,7.1128,7.1098,7.1068,7.0949,7.0889,7.1212,7.2455,7.2798,7.3108,7.441,7.5675,7.6653,7.6783,7.7828,7.8941,7.9703,7.9836,8.0067,8.0763,8.0896,8.0863,8.0697,8.0697,8.073,8.0896,8.0896,8.0962,8.1094,8.1128,8.1128,8.1128,8.1128,8.1061,8.0896,8.0896,8.0829,8.0697,8.0697,8.0697,8.0697,8.0134,7.9836,7.9836,7.9421,7.9562,8.0127,8.0428,8.0445,5.9916,6.0526,6.099,6.1077,6.1135,6.1193,0.0,6.16,6.2006,6.2006,6.2529,6.3138,6.3719,6.4639,6.5499,6.5699,6.7786,6.9347,6.9244,7.0552,7.1685,7.1785,7.2365,7.2684,7.2684,7.2834,7.3163,7.3732,7.3791,7.4031,7.4629,7.4719,7.4779,7.4779,7.4839,7.4869,7.4869,7.4869,7.4869,7.4869,7.4869,7.4869,7.4869,7.4869,7.4869,7.4869,7.4869,7.4869,7.4869,7.4869,7.4839,7.4779,7.4779,7.4719,7.451,7.3343,7.2864,7.2804,7.2804,7.2744,7.2684,7.2684,7.2684,7.2565,7.1966,7.1787,7.1637,7.1068,7.0889,7.1212,7.2455,7.2798,7.3108,7.441,7.5675,7.6783,7.7431,7.8582,7.9703,8.0432,8.0564,8.0796,8.1558,8.1658,8.1459,8.0796,8.0697,8.0929,8.1591,8.1658,8.1923,8.2585,8.2651,8.2651,8.2651,8.2651,8.2353,8.1724,8.1658,8.1359,8.073,8.0697,8.0697,8.0697,8.0598,8.0564,8.0564,8.0553,8.0553,8.0619,8.0674,8.1075,6.0613,6.099,6.1193,6.1193,6.1454,6.1716,6.1716,6.2209,6.279,6.3138,6.3748,6.4386,6.5025,6.6112,6.708,6.7522,6.8864,6.9971,7.0448,7.1405,7.2169,7.261,7.3278,7.364,7.3522,7.3821,7.418,7.445,7.448,7.4569,7.4869,7.4869,7.4869,7.4869,7.4869,7.4869,7.4869,7.4869,7.4869,7.4869,7.4869,7.4869,7.4869,7.4869,7.4869,7.4869,7.4869,7.4869,7.4869,7.4869,7.4869,7.4869,7.4869,7.4869,7.4809,7.427,7.3821,7.3492,7.3492,7.3223,7.2924,7.2924,7.2924,7.2864,7.2565,7.2475,7.2415,7.2146,7.2086,7.2188,7.2746,7.2876,7.2975,7.3522,7.4625,7.5854,7.692,7.819,7.951,8.1083,8.1326,8.1558,8.232,8.2453,8.232,8.2022,8.1956,8.2088,8.2386,8.2453,8.2552,8.2883,8.2883,8.2883,8.2883,8.2883,8.2784,8.2453,8.2453,8.2287,8.1989,8.1956,8.1956,8.1956,8.1558,8.1326,8.1326,8.0896,8.0896,8.1326,8.1326,8.1835,6.1077,6.1309,6.1454,6.1454,6.1919,6.2383,6.2383,6.3022,6.3748,6.4212,6.4938,6.5693,6.636,6.7376,6.8334,6.8973,6.9757,7.0592,7.1433,7.2017,7.2496,7.2984,7.3635,7.3932,7.387,7.4394,7.4663,7.4594,7.4663,7.4731,7.4731,7.48,7.4869,7.4869,7.4869,7.4869,7.4869,7.4869,7.4869,7.4869,7.4869,7.4869,7.4869,7.4869,7.4869,7.4869,7.4869,7.4869,7.4869,7.4869,7.4869,7.4869,7.4869,7.4869,7.4869,7.4869,7.4569,7.418,7.418,7.3851,7.3462,7.3462,7.3462,7.3432,7.3253,7.3193,7.3163,7.2954,7.2924,7.2924,7.2924,7.2924,7.2924,7.2924,7.3889,7.5114,7.6307,7.7563,7.9069,8.1156,8.1548,8.1826,8.2727,8.2883,8.2883,8.2883,8.2883,8.2883,8.2883,8.2883,8.2883,8.2883,8.2883,8.2883,8.2883,8.2883,8.2883,8.2883,8.2883,8.2883,8.2883,8.2883,8.2883,8.2883,8.2386,8.2088,8.2088,8.1558,8.1558,8.2088,8.2088,8.2498,6.1193,6.1629,6.2064,6.2064,6.2558,6.3051,6.3051,6.4038,6.4938,6.4967,6.5954,6.7028,6.7696,6.8363,6.9002,6.9641,7.0802,7.1755,7.2105,7.2378,7.2886,7.3661,7.348,7.334,7.3761,7.411,7.4179,7.3831,7.411,7.4318,7.4318,7.4663,7.4869,7.4869,7.4869,7.4869,7.4869,7.4869,7.4869,7.4869,7.4869,7.4869,7.4869,7.4869,7.4869,7.4869,7.4869,7.4869,7.4869,7.4869,7.4869,7.4869,7.4869,7.4869,7.4869,7.4869,7.4869,7.4839,7.4839,7.4839,7.4809,7.4809,7.4809,7.4689,7.4061,7.3881,7.3732,7.3103,7.2924,7.2924,7.2924,7.2924,7.2924,7.2924,7.3889,7.4982,7.5756,7.6932,7.8456,8.0555,8.0955,8.131,8.2656,8.2883,8.2883,8.2883,8.2883,8.2883,8.2883,8.2883,8.2883,8.2883,8.2883,8.2883,8.2883,8.2883,8.2883,8.2883,8.2883,8.2883,8.2883,8.2883,8.2883,8.2883,8.2883,8.2883,8.2883,8.285,8.285,8.2883,8.2883,8.2883,6.1687,6.1948,6.2209,6.2645,6.3574,6.4357,6.4357,6.5344,6.636,6.6825,6.726,6.787,6.8944,6.9321,6.9815,7.086,7.1382,7.1888,7.2366,7.2557,7.2673,7.2986,7.3128,7.3128,7.3057,7.3761,7.4248,7.411,7.4248,7.4318,7.4318,7.4248,7.4248,7.4456,7.4525,7.4594,7.4869,7.4869,7.4869,7.4869,7.4869,7.4869,7.4869,7.4869,7.4869,7.4869,7.4869,7.4869,7.4869,7.4869,7.4869,7.4869,7.4869,7.4869,7.4869,7.4869,7.4869,7.4869,7.4869,7.4869,7.4869,7.4869,7.4869,7.4839,7.4599,7.454,7.451,7.427,7.421,7.421,7.421,7.421,7.421,7.421,7.4519,7.5153,7.6327,7.6944,7.7681,7.9282,7.9593,8.0021,8.1343,8.161,8.1843,8.277,8.2883,8.2883,8.2883,8.2883,8.2883,8.2883,8.2883,8.2883,8.2883,8.2883,8.2883,8.2883,8.2883,8.2883,8.2883,8.2883,8.2883,8.2883,8.2883,8.2883,8.2883,8.2883,8.3148,8.3645,8.3645,8.391,6.1977,6.2587,6.3225,6.3661,6.4735,6.5664,6.5664,6.6476,6.7347,6.7783,6.8247,6.8799,6.9612,7.0134,7.0715,7.1528,7.1847,7.2166,7.2573,7.2602,7.2602,7.2602,7.2844,7.2844,7.2631,7.341,7.3831,7.3691,7.3831,7.3901,7.3901,7.397,7.404,7.4318,7.4456,7.4663,7.4869,7.4869,7.4869,7.4869,7.4869,7.5018,7.5258,7.5258,7.5377,7.5587,7.5587,7.5587,7.5587,7.5587,7.5587,7.5587,7.5587,7.5587,7.5587,7.5587,7.5587,7.5497,7.5048,7.4869,7.4869,7.4869,7.4869,7.4869,7.4869,7.4869,7.4869,7.4869,7.4869,7.4869,7.4869,7.4869,7.4869,7.4869,7.4869,7.5142,7.6027,7.6227,7.6594,7.7898,7.8217,7.8785,8.0597,8.1284,8.2,8.3134,8.3281,8.3215,8.2916,8.2883,8.2883,8.2883,8.3148,8.3281,8.3281,8.3546,8.3678,8.3678,8.3678,8.3678,8.3678,8.3678,8.3678,8.3678,8.3678,8.3678,8.3678,8.3678,8.3943,8.4407,8.4407,8.4672,6.2209,6.3574,6.4996,6.5054,6.6012,6.6941,6.6941,6.7463,6.7928,6.7928,6.8886,6.9757,6.9815,7.0802,7.1644,7.1702,7.2224,7.2602,7.2602,7.2602,7.2602,7.2602,7.2602,7.2602,7.2602,7.2915,7.2986,7.2631,7.2986,7.3228,7.3228,7.3831,7.4248,7.4248,7.4594,7.48,7.48,7.4899,7.4958,7.4988,7.4988,7.5318,7.5946,7.5946,7.6275,7.6814,7.6814,7.6814,7.6814,7.6814,7.6814,7.6814,7.6814,7.6814,7.6814,7.6814,7.6814,7.6664,7.5407,7.4988,7.4958,7.4929,7.4929,7.4929,7.4899,7.4869,7.4869,7.4869,7.4869,7.4869,7.4869,7.4869,7.4869,7.4869,7.4869,7.4869,7.4869,7.4869,7.5248,7.6528,7.6888,7.7768,8.0299,8.1941,8.3134,8.3829,8.3985,8.3811,8.3115,8.3016,8.3016,8.3016,8.3645,8.4076,8.4076,8.4705,8.5103,8.5103,8.5103,8.5103,8.5103,8.5103,8.5103,8.5103,8.5103,8.5103,8.5103,8.5103,8.5136,8.5169,8.5169,8.5202,6.3864,6.4619,6.5199,6.6157,6.7028,6.7638,6.7638,6.8131,6.8596,6.8596,6.8857,6.935,7.0308,7.0744,7.1266,7.2224,7.2515,7.2602,7.2602,7.2602,7.2602,7.2602,7.2602,7.2602,7.2602,7.2702,7.2702,7.2602,7.2986,7.3228,7.3228,7.3128,7.3199,7.348,7.3551,7.3761,7.404,7.4793,7.5578,7.6335,7.6335,7.6425,7.6604,7.6604,7.6664,7.6814,7.6814,7.6814,7.6814,7.6814,7.6814,7.6814,7.6814,7.6814,7.6814,7.6814,7.6814,7.6784,7.6455,7.6335,7.6245,7.5796,7.5647,7.5557,7.5018,7.4869,7.4869,7.4869,7.4869,7.4869,7.4869,7.4869,7.4869,7.4869,7.4869,7.4869,7.4869,7.4869,7.5006,7.5316,7.6623,7.786,7.8548,8.1053,8.3003,8.3198,8.413,8.4771,8.4573,8.454,8.454,8.454,8.4705,8.4838,8.4838,8.5003,8.5103,8.5103,8.5103,8.5103,8.5103,8.5103,8.5103,8.5103,8.5103,8.5103,8.5103,8.5103,8.5368,8.5898,8.5898,8.6196,6.388,6.5124,6.6288,6.6261,6.7286,6.8276,6.8276,6.8567,6.8828,6.8828,6.906,6.9554,7.0541,7.0947,7.1469,7.2456,7.2602,7.2602,7.2602,7.2602,7.2602,7.2602,7.2602,7.2602,7.2602,7.2602,7.2602,7.2602,7.2844,7.2915,7.2915,7.2915,7.2986,7.3228,7.3633,7.4109,7.4616,7.5354,7.5992,7.6562,7.6703,7.6963,7.7263,7.7263,7.7412,7.7682,7.7682,7.7682,7.7682,7.7682,7.7682,7.7682,7.7682,7.7682,7.7682,7.7682,7.7682,7.7682,7.7682,7.7682,7.7532,7.6604,7.6305,7.6245,7.5856,7.5736,7.5677,7.5407,7.5318,7.5258,7.4958,7.4869,7.4869,7.4869,7.5108,7.5318,7.5318,7.5557,7.5736,7.5736,7.7115,7.837,7.837,8.0422,8.2389,8.3331,8.4161,8.4985,8.5939,8.55,8.5103,8.5103,8.5401,8.5567,8.5567,8.5865,8.6063,8.6063,8.6063,8.6063,8.6063,8.6063,8.6063,8.6063,8.6063,8.6063,8.6063,8.6063,8.6262,8.666,8.666,8.6892,6.3093,6.506,6.7238,6.5916,6.6947,6.8324,6.8692,6.8596,6.8528,6.876,6.9263,6.9873,7.0599,7.1179,7.1789,7.2485,7.2602,7.2602,7.2602,7.2602,7.2602,7.2602,7.2602,7.2602,7.2602,7.2602,7.2602,7.2602,7.2602,7.2602,7.2602,7.3003,7.3303,7.3391,7.4202,7.5033,7.5753,7.6069,7.6343,7.6575,7.683,7.724,7.7879,7.7879,7.8178,7.8717,7.8789,7.8789,7.8789,7.8789,7.8789,7.8789,7.8789,7.8789,7.8789,7.8789,7.8789,7.8789,7.8789,7.8789,7.8579,7.7352,7.6963,7.6933,7.6844,7.6814,7.6724,7.6185,7.6036,7.5886,7.5288,7.5138,7.5138,7.5138,7.5587,7.6036,7.6036,7.6455,7.6814,7.6814,7.7888,7.874,7.874,7.9977,8.1599,8.3666,8.4107,8.4984,8.7071,8.6163,8.5401,8.5401,8.5931,8.6387,8.6387,8.6892,8.7289,8.7289,8.7289,8.7289,8.7289,8.7289,8.7289,8.7289,8.7289,8.7289,8.7289,8.7289,8.7289,8.7289,8.7355,8.7488,6.2921,6.4152,6.5944,6.6271,6.5695,6.568,6.8256,6.7788,6.7277,6.8528,6.8915,6.935,7.0512,7.0802,7.1266,7.2427,7.2602,7.2602,7.2602,7.2602,7.2602,7.2602,7.2602,7.2602,7.2602,7.2602,7.2602,7.2602,7.2602,7.2602,7.2602,7.3225,7.3748,7.4242,7.4431,7.5028,7.5993,7.6066,7.6695,7.7882,7.7591,7.7723,7.8103,7.8103,7.8163,7.8354,7.8644,0.0,7.8789,7.8789,7.8789,7.8789,7.8789,7.8789,7.8789,7.8789,7.8789,7.8789,7.8789,7.8789,7.8669,7.7891,7.7652,7.7532,7.6993,7.6814,7.6814,7.6694,7.6664,7.6634,7.6514,7.6485,7.6485,7.6485,7.6574,7.6664,7.6664,7.6754,7.6814,7.6814,7.7474,7.7976,7.7976,7.9598,8.144,8.2929,8.4218,8.5506,8.7137,8.7057,8.6892,8.6892,8.7024,8.709,8.709,8.719,8.7289,8.7289,8.7289,8.7289,8.7289,8.7289,8.7289,8.7289,8.7289,8.7289,8.7289,8.7289,8.7289,8.7289,8.7852,8.8449,6.1868,6.2963,6.4725,6.4165,6.4147,6.4824,6.7069,6.6413,6.599,6.8324,6.8159,6.8143,6.9909,7.0512,7.1034,7.1963,7.2398,7.2602,7.2602,7.2602,7.2602,7.2602,7.2602,7.2602,7.2602,7.2602,7.2602,7.2602,7.295,7.3124,7.3124,7.3734,7.4372,7.5011,7.504,7.5404,7.6296,7.6518,7.699,7.7652,7.7623,7.7696,7.7917,7.8136,7.8209,7.8209,7.8644,7.8789,7.8789,7.8789,7.8789,7.8789,7.8789,7.8789,7.8789,7.8789,7.8789,7.8789,7.8789,7.8789,7.8729,7.843,7.831,7.825,7.7951,7.7861,7.7771,7.7442,7.7352,7.7263,7.6904,7.6814,7.6814,7.6814,7.7083,7.7442,7.7771,7.7861,7.7861,7.7861,7.81,7.831,7.831,7.9193,8.03,8.1683,8.2489,8.3412,8.4854,8.5075,8.5669,8.7137,8.7289,8.7289,8.7289,8.7289,8.7289,8.7289,8.7289,8.7289,8.7289,8.7289,8.7289,8.7289,8.7289,8.7289,8.7289,8.8018,8.8382,8.8415,8.9509,9.0204,6.0408,6.1615,6.3346,6.2115,6.2487,6.3711,6.5609,6.5039,6.4967,6.7719,6.7581,6.7545,6.9435,7.0279,7.0918,7.1557,7.2195,7.2602,7.2602,7.2602,7.2602,7.2602,7.2602,7.2602,7.2602,7.2602,7.266,7.2805,7.356,7.4024,7.4024,7.4459,7.504,7.5679,7.5708,7.594,7.6462,7.6791,7.7015,7.709,7.7283,7.7402,7.7475,7.7917,7.8063,7.8136,7.8572,7.8789,7.8789,7.8789,7.8789,7.8789,7.8789,7.8789,7.8789,7.8789,7.8789,7.8789,7.8789,7.8789,7.8789,7.8789,7.8789,7.8789,7.8789,7.8789,7.8669,7.816,7.8011,7.7891,7.7382,7.7263,7.7263,7.7263,7.7652,7.816,7.8669,7.8789,7.8789,7.8789,7.8789,7.8789,7.8789,7.8789,7.9261,8.0687,8.0894,8.1411,8.2789,8.2987,8.3866,8.6132,8.6651,8.6924,8.7289,8.7289,8.7289,8.7289,8.7289,8.7355,8.7488,8.7488,8.7587,8.772,8.7885,8.7985,8.7985,8.9244,8.9873,8.9906,9.1198,9.1894,5.8945,6.0039,6.1966,6.1842,6.0888,6.0736,6.3711,6.4292,6.468,6.6342,6.7719,6.8866,6.967,7.0279,7.0918,7.1557,7.2195,7.2602,7.2602,7.2602,7.2602,7.2602,7.2602,7.2602,7.2602,7.2602,7.2863,7.3472,7.4663,7.533,7.533,7.5388,7.5708,7.6346,7.6375,7.6479,7.6538,7.6538,7.6762,7.709,7.6762,7.6762,7.7164,7.7505,7.7623,7.7696,7.8499,7.8789,0.0,7.8789,7.8789,7.8789,7.8789,7.8789,7.8789,7.8789,7.8789,7.8789,7.8789,7.8789,7.8789,7.8789,7.8789,7.8789,7.8789,7.8789,7.8789,7.8729,7.8699,7.8699,7.8639,7.8609,7.8609,7.8609,7.8639,7.8699,7.8789,7.8789,7.8789,7.8789,7.8789,7.8789,7.8789,7.8789,7.9261,8.0687,8.0894,8.1411,8.2789,8.2987,8.3119,8.3412,8.4506,8.5854,8.7196,8.7289,8.7289,8.7289,8.7289,8.7554,8.8184,8.8217,8.8548,8.921,8.9873,9.0237,9.0237,9.0999,9.1397,9.1397,9.2192,9.2954,5.8273,5.8883,6.0023,6.0354,5.9946,6.0074,6.2264,6.2783,6.3199,6.4824,6.6342,6.7529,6.7757,6.9367,7.0802,7.1063,7.1963,7.2602,7.2602,7.2602,7.2602,7.2602,7.2602,7.2602,7.2602,7.2979,7.3647,7.4692,7.5214,7.5679,7.6056,7.6085,7.6201,7.6538,7.6538,7.6538,7.6538,7.6538,7.6612,7.6762,7.6612,7.6612,7.6762,7.7135,7.7431,7.7623,7.7917,7.8354,0.0,7.8572,7.8572,7.8789,7.8789,7.8789,7.8789,7.8789,7.8789,7.8789,7.8789,7.8789,7.8789,7.8789,7.8789,7.8789,7.8789,7.8789,7.8789,7.8789,7.8789,7.8789,7.8789,7.8789,7.8789,7.8789,7.8789,7.8789,7.8789,7.8789,7.8789,7.8789,7.8789,7.8789,7.8789,7.8789,7.8975,7.9587,7.9658,7.9839,8.037,8.0509,8.0825,8.1615,8.3705,8.5293,8.5915,8.7167,8.7885,8.7885,8.8316,8.868,8.8979,8.8979,8.9111,8.9409,8.9707,8.9873,8.9873,9.1463,9.2258,9.2291,9.3914,9.4842,5.7671,5.8152,5.878,5.9182,5.9382,5.9792,6.0888,6.1467,6.2115,6.3299,6.511,6.6483,6.6483,6.8675,7.0512,7.0686,7.1644,7.2398,7.2573,7.2602,7.2602,7.2602,7.2602,7.2602,7.2602,7.3385,7.4343,7.5417,7.5679,7.5998,7.6433,7.6538,7.6538,7.6538,7.6538,7.6538,7.6538,7.6538,7.6538,7.6538,7.6538,7.6538,7.6538,7.6941,7.7238,7.7505,7.7549,7.7917,0.0,7.8282,7.8354,7.8644,7.8789,7.8789,7.8789,7.8789,7.8789,7.8789,7.8789,7.8789,7.8789,7.8789,7.8789,7.8789,7.8789,7.8789,7.8789,7.8789,7.8789,7.8789,7.8789,7.8789,7.8789,7.8789,7.8789,7.8789,7.8789,7.8789,7.8789,7.8789,7.8789,7.8789,7.8789,7.8789,7.8789,7.8789,7.8789,7.8789,7.8789,7.8968,7.949,8.0496,8.2893,8.4538,8.4796,8.6362,8.7287,8.7287,8.8247,8.8827,8.9058,8.9462,8.984,9.0039,9.0271,9.037,9.037,9.2159,9.302,9.3053,9.461,9.5339,5.6897,5.7876,5.873,5.873,5.9106,5.9483,5.9483,6.0736,6.1842,6.1842,6.4319,6.6483,6.6483,6.8331,6.9989,7.0628,7.1266,7.1905,7.2544,7.2602,7.2602,7.2602,7.2602,7.2602,7.2602,7.3792,7.4808,7.5446,7.6085,7.6538,7.6538,7.6538,7.6538,7.6538,7.6538,7.6538,7.6538,7.6538,7.6538,7.6538,7.6538,7.6538,7.6538,7.6941,7.709,7.709,7.7505,7.7623,0.0,7.8063,7.8209,7.8282,7.8644,7.8789,7.8789,7.8789,7.8789,7.8789,7.8789,7.8789,7.8789,7.8789,7.8789,7.8789,7.8789,7.8789,7.8789,7.8789,7.8789,7.8789,7.8789,7.8789,7.8789,7.8789,7.8789,7.8789,7.8789,7.8789,7.8789,7.8789,7.8789,7.8789,7.8789,7.8789,7.8789,7.8789,7.8789,7.8789,7.8789,7.9387,7.9806,7.9806,8.1664,8.3209,8.3924,8.4627,8.5037,8.5037,8.6433,8.7567,8.8279,8.9689,9.0834,9.1529,9.2291,9.2656,9.2656,9.3418,9.3782,9.3782,9.3815,9.3815,5.6671,5.7298,5.775,5.8529,5.8855,5.9056,5.9408,6.066,6.1842,6.1842,6.3492,6.5253,6.6272,6.7439,6.8723,7.039,7.1266,7.1905,7.2544,7.2602,7.2602,7.2602,7.2602,7.295,7.3821,7.4314,7.5011,7.6085,7.6346,7.6538,7.6538,7.6538,7.6538,7.6538,7.6538,7.6538,7.6538,7.6538,7.6538,7.6538,7.6538,7.6538,7.6538,7.6612,7.6866,7.709,7.6911,7.7254,7.799,7.7843,7.8136,7.8644,7.8717,7.8789,7.8789,7.8789,7.8789,7.8789,7.8789,7.8789,7.8789,7.8789,7.8789,7.8789,7.8789,7.8789,7.8789,7.8789,7.8789,7.8789,7.8789,7.8789,7.8789,7.8789,7.8789,7.8789,7.8789,7.8789,7.8789,7.8789,7.8789,7.8789,7.8789,7.8789,7.8789,7.8789,7.9178,7.9507,7.9507,8.0075,8.0494,8.0494,8.1476,8.2413,8.317,8.477,8.5763,8.5763,8.7621,8.883,8.9057,9.0475,9.1364,9.1596,9.1828,9.1927,9.1927,9.2689,9.3318,9.3782,9.3782,9.3782,5.6344,5.6872,5.7198,5.7901,5.8403,5.8805,5.9131,6.0075,6.0964,6.0964,6.219,6.3784,6.5324,6.6439,6.7848,7.0292,7.1063,7.1615,7.2485,7.2602,7.2602,7.2602,7.2602,7.3124,7.4401,7.4518,7.5069,7.6421,7.6538,7.6538,7.6538,7.6538,7.6538,7.6538,7.6538,7.6538,7.6538,7.6538,7.6538,7.6538,7.6538,7.6538,7.6538,7.6538,7.6612,7.6866,7.6612,7.6911,0.0,7.7431,7.7726,7.8166,7.8427,7.8572,7.8572,7.8717,7.8789,7.8789,7.8789,7.8789,7.8789,7.8789,7.8789,7.8789,7.8789,7.8789,7.8789,7.8789,7.8789,7.8789,7.8789,7.8789,7.8789,7.8789,7.8789,7.8789,7.8789,7.8789,7.8789,7.8789,7.8789,7.8789,7.8789,7.8789,7.8878,7.9148,7.9537,7.9896,8.0165,8.0764,8.1183,8.1183,8.1751,8.2334,8.2808,8.4126,8.4842,8.4842,8.6693,8.774,8.774,8.9675,9.0773,9.0773,9.1312,9.1596,9.1596,9.2059,9.2523,9.2954,9.2954,9.2954,0.0,5.657,5.6972,5.7022,5.7851,5.8679,5.8704,5.9131,0.0,5.9637,6.0736,6.219,6.4029,6.5467,6.7255,7.0205,7.0715,7.115,7.2427,7.2602,7.2602,7.2602,7.266,7.3153,7.4401,7.4547,7.5098,7.6375,7.6538,7.6538,7.6538,7.6538,7.6538,7.6538,7.6538,7.6538,7.6538,7.6538,7.6538,7.6538,7.6538,7.6538,7.6538,7.6538,7.6538,0.0,7.6538,7.6538,7.6538,7.6941,7.709,7.7238,7.7843,7.8209,7.8282,7.8644,7.8789,7.8789,7.8789,7.8789,7.8789,7.8789,7.8789,7.8789,7.8789,7.8789,7.8789,7.8789,7.8789,7.8789,7.8789,7.8789,7.8789,7.8789,7.8789,7.8789,7.8789,7.8789,7.8789,7.8789,7.8789,7.8819,7.8849,7.8849,7.9088,7.9776,7.9926,8.0165,8.0794,8.1452,8.1841,8.1841,8.2409,8.2844,8.2844,8.2844,8.2844,8.2844,8.4142,8.4988,8.4988,8.774,8.9249,8.9249,9.0676,9.15,9.1596,9.1596,9.1596,9.1596,9.1596,9.1596,5.6018,0.0,5.652,5.6922,5.7575,5.8202,0.0,5.9131,5.9869,6.1039,6.0584,6.124,6.5253,6.5324,6.6096,7.0066,7.0715,7.115,7.2427,7.2602,7.2602,7.2602,7.3066,7.3676,7.443,7.4982,7.5592,7.6479,7.6538,7.6538,7.6538,7.6538,7.6538,7.6538,7.6538,7.6538,7.6538,7.6538,7.6538,7.6538,7.6538,7.6538,7.6538,7.6538,7.6538,7.6538,7.6538,7.6687,7.6941,7.709,7.7209,7.7475,7.7696,7.7917,7.8209,7.8282,7.8572,7.8789,7.8789,7.8789,7.8789,7.8789,7.8789,7.8789,7.8789,7.8789,7.8789,7.8789,7.8789,7.8789,7.8789,7.8789,7.8789,7.8789,7.8789,7.8789,7.8789,7.8789,7.8789,7.8789,7.8789,7.8968,7.9477,7.9567,7.9806,8.0464,8.1003,8.1392,8.1542,8.211,8.2529,8.2529,8.2754,8.2844,8.2844,8.2844,8.2844,8.2844,8.4142,8.4988,8.4988,8.6774,8.774,8.774,8.9183,9.0484,9.1596,9.1596,9.1596,9.1596,9.1596,9.1596,5.6261,5.6219,5.6294,5.657,5.7072,5.765,5.8202,5.8755,5.9437,6.0532,6.0074,6.0507,6.3711,6.4464,6.5464,6.8125,7.0005,7.1498,7.2485,7.2602,7.2602,7.2602,7.3211,7.385,7.4459,7.5127,7.5766,7.6479,7.6538,7.6538,7.6538,7.6538,7.6538,7.6538,7.6538,7.6538,7.6538,7.6538,7.6538,7.6538,7.6538,7.6538,7.6538,7.6538,7.6538,7.6538,7.6538,7.6612,7.6866,7.6866,7.6911,7.7105,7.7475,7.777,7.799,7.8354,7.8644,7.8789,7.8789,7.8789,7.8789,7.8789,7.8789,7.8789,7.8789,7.8789,7.8789,7.8789,7.8789,7.8789,7.8789,7.8789,7.8789,7.8789,7.8789,7.8789,7.8789,7.8789,7.8878,7.9208,7.9267,7.9477,8.0165,8.0285,8.0494,8.1153,8.1542,8.1901,8.22,8.2529,8.2844,8.2844,8.2844,8.2844,8.2844,8.2844,8.2844,8.2844,8.3535,8.4025,8.4025,8.539,8.6494,8.719,8.8618,8.9806,9.0549,9.1249,9.1596,9.1596,9.1596,9.1596,5.6504,5.6219,5.6219,5.6219,5.6696,5.7298,5.7775,5.8378,5.8956,5.9408,5.9483,6.0074,6.1842,6.3532,6.5112,6.6181,6.9245,7.1708,7.2472,7.2602,7.2602,7.2602,7.3269,7.3966,7.4459,7.5214,7.5882,7.6433,7.6538,7.6538,7.6538,7.6538,7.6538,7.6538,7.6538,7.6538,7.6538,7.6538,7.6538,7.6538,7.6538,7.6538,7.6538,7.6538,7.6538,7.6538,7.6538,0.0,7.6538,7.6538,7.6538,7.6538,7.718,7.7475,7.7623,7.8354,7.8644,7.8717,7.8789,7.8789,7.8789,7.8789,7.8789,7.8789,7.8789,7.8789,7.8789,7.8789,7.8789,7.8789,7.8789,7.8789,7.8789,7.8789,7.8789,7.8789,7.8789,7.8878,7.9118,7.9716,7.9896,8.0165,8.0823,8.0943,8.1183,8.1841,8.1931,8.214,8.2754,8.2844,8.2844,8.2844,8.2844,8.2844,8.2844,8.2844,8.2844,8.2844,8.2844,8.2844,8.2844,8.4025,8.5349,8.6844,8.808,8.8851,8.905,9.0356,9.0963,9.0963,9.0963,9.1027,5.6605,5.6219,5.6219,5.6219,5.6997,5.7801,5.7876,5.8654,5.9408,5.9483,5.9483,6.038,6.3299,6.341,6.4172,6.7457,6.9321,7.0915,7.2387,7.2602,7.2602,7.2602,7.3647,7.4401,7.4488,7.5592,7.6346,7.6538,7.6538,7.6538,7.6538,7.6538,7.6538,7.6538,7.6538,7.6538,7.6538,7.6538,7.6538,7.6538,7.6538,7.6538,7.6538,7.6538,7.6538,7.6538,0.0,7.6538,7.6538,7.6538,7.6538,7.6538,7.6612,7.6911,7.7238,7.7623,7.799,7.8354,7.8717,7.8789,7.8789,7.8789,7.8789,7.8789,7.8789,7.8789,7.8789,7.8789,7.8789,7.8789,7.8789,7.8789,7.8789,7.8789,7.8789,7.8789,7.8789,7.9238,7.9686,7.9806,8.0285,8.0853,8.1512,8.1631,8.1841,8.2529,8.2619,8.2649,8.2814,8.2844,8.2844,8.2844,8.2844,8.2844,8.2844,8.2844,8.2844,8.2844,8.2844,8.2844,8.2844,8.3041,8.3803,8.5349,8.5533,8.6283,8.7535,8.7776,8.7876,8.7876,8.7876,8.8552,5.7804,5.6823,5.6294,5.657,5.7047,5.7499,5.7826,5.8504,5.9156,5.9433,5.9483,6.0021,6.1806,6.3438,6.5857,6.9933,7.0368,7.0736,7.2387,7.2602,7.2602,7.2602,7.3734,7.4518,7.4518,7.5679,7.6538,7.6538,7.6538,7.6538,7.6538,7.6538,7.6538,7.6538,7.6538,7.6538,7.6538,7.6538,7.6538,7.6538,7.6538,7.6538,7.6538,7.6538,7.6538,7.6538,0.0,7.6538,7.6538,7.6538,7.6538,7.6538,7.6762,7.6941,7.7164,7.7696,7.8063,7.8282,7.8644,7.8789,7.8789,7.8789,7.8789,7.8789,7.8789,7.8789,7.8789,7.8789,7.8789,7.8789,7.8789,7.8789,7.8789,7.8789,7.9088,7.9357,7.9357,7.9866,8.0464,8.0823,8.1123,8.1542,8.22,8.232,8.2409,8.2709,8.2844,8.2844,8.2844,8.2844,8.2844,8.2844,8.2844,8.2844,8.2844,8.2844,8.2844,8.2844,8.2844,8.2844,8.2844,8.2844,8.3116,8.3803,8.4582,8.5349,8.6001,8.6844,8.7159,8.7159,8.7159,8.8012,5.8841,5.7328,5.6344,5.6897,5.7148,5.7374,5.7951,5.8504,5.9006,5.9408,5.9583,5.9887,6.0679,6.3509,6.6957,7.0829,7.0413,7.0339,7.2316,7.2602,7.2602,7.2602,7.3734,7.4518,7.4518,7.5679,7.6538,7.6538,7.6538,7.6538,7.6538,7.6538,7.6538,7.6538,7.6538,7.6538,7.6538,7.6538,7.6538,7.6538,7.6538,7.6538,7.6538,7.6538,7.6538,7.6538,7.6538,7.6538,7.6538,7.6538,7.6538,7.6538,7.6866,7.7015,7.7164,7.7726,7.799,7.8136,7.8427,7.8572,7.8644,7.8644,7.8717,7.8789,7.8789,7.8789,7.8789,7.8789,7.8908,7.9028,7.9028,7.9028,7.9058,7.9238,7.9656,8.0045,8.0045,8.0554,8.1183,8.1691,8.1901,8.217,8.2679,8.2844,8.2844,8.2844,8.2844,8.2844,8.2844,8.2844,8.2844,8.2844,8.2844,8.2844,8.2844,8.2844,8.2844,8.2844,8.2844,8.2844,8.2844,8.2844,8.2844,8.2844,8.3877,8.4509,8.4509,8.5605,8.6142,8.6142,8.6142,8.6983,5.8841,5.7328,5.6344,5.6897,5.7449,5.7976,5.8529,5.9056,5.9458,5.9483,5.991,6.073,6.2274,6.3542,6.5208,6.767,6.7931,6.899,7.2143,7.2602,7.2602,7.2602,7.3763,7.4547,7.4518,7.5679,7.6538,7.6538,7.6538,7.6538,7.6538,7.6538,7.6538,7.6538,7.6538,7.6538,7.6538,7.6538,7.6538,7.6538,7.6538,7.6538,7.6538,7.6538,7.6538,7.6538,7.6538,7.6538,7.6538,7.6538,7.6538,7.6538,7.6538,7.6762,7.709,7.7164,7.7357,7.7623,7.7696,7.7917,7.8209,7.8209,7.8499,7.8789,7.8789,7.8789,7.8789,7.8789,7.9238,7.9746,7.9746,7.9746,7.9896,8.0524,8.0704,8.0734,8.0734,8.1242,8.1721,8.1781,8.226,8.2784,8.2814,8.2844,8.2844,8.2844,8.2844,8.2844,8.2844,8.2844,8.2844,8.2844,8.2844,8.2844,8.2844,8.2844,8.2844,8.2844,8.2844,8.2844,8.2844,8.2844,8.2844,8.2844,8.289,8.2965,8.2965,8.3041,8.3116,8.3116,8.3116,8.3877,6.0139,5.9641,5.9241,5.7919,5.8676,5.9658,5.8883,5.9131,5.9583,5.9935,6.0161,6.1061,6.3337,6.443,6.5554,6.7445,6.7702,6.8463,7.0809,7.1101,7.1494,7.2459,7.3763,7.4518,7.4518,7.5679,7.6538,7.6538,7.6538,7.6538,7.6538,7.6538,7.6538,7.6538,7.6538,7.6538,7.6538,7.6538,7.6538,7.6538,7.6538,7.6538,7.6538,7.6538,7.6538,7.6538,7.6538,7.6538,7.6538,7.6538,7.6538,7.6538,7.6538,7.6612,7.6762,7.7015,7.7164,7.7283,7.7549,7.7843,7.8209,7.8209,7.8499,7.8789,7.8789,7.9088,7.9417,7.9417,7.9896,8.0345,7.9926,8.0135,8.0494,8.0734,8.1123,8.1422,8.1422,8.1931,8.238,8.238,8.2589,8.2844,8.2844,8.2844,8.2844,8.2844,8.2844,8.2844,8.2844,8.2844,8.2844,8.2844,8.2844,8.2844,8.2844,8.2844,8.2844,8.2844,8.2844,8.2844,8.2844,8.2844,8.2844,8.2844,8.2844,8.2844,8.2844,8.2844,8.2844,8.2844,8.2844,8.361,6.0893,6.0777,6.0385,5.8398,5.943,6.0713,5.9515,5.9508,5.9859,6.0236,6.0613,6.1511,6.3616,6.4265,6.5055,6.665,6.6933,6.7499,6.9196,6.9895,7.0413,7.1,7.2654,7.3724,7.3724,7.4421,7.5316,7.6462,7.5981,7.5906,7.6462,7.5981,7.5906,7.6462,7.5981,7.5981,7.6462,7.6538,7.6538,7.6538,7.6538,7.6538,7.6538,7.6538,7.6538,7.6538,7.6538,7.6538,7.6538,7.6666,7.6898,7.7072,7.7072,7.7072,7.7148,7.7403,7.7479,7.7554,7.775,7.8168,7.8612,7.8612,7.8979,7.9417,7.9417,7.9746,8.0135,8.0135,8.0614,8.1003,8.0554,8.0764,8.1153,8.1362,8.1751,8.208,8.208,8.2439,8.2844,8.2844,8.2844,8.2844,8.2844,8.2844,8.2844,8.2844,8.2844,8.2844,8.2844,8.2844,8.2844,8.2844,8.2844,8.2844,8.2844,8.2844,8.2844,8.2844,8.2844,8.2844,8.2844,8.2844,8.2844,8.2844,8.2844,8.2844,8.2844,8.2844,8.2844,8.2844,8.2844,8.3432,6.062,6.0011,5.9221,5.82,5.9504,6.0921,6.045,6.0311,6.0311,6.0337,6.124,6.2169,6.2722,6.2822,6.3367,6.4975,6.5292,6.5818,6.7472,6.9121,6.957,6.7855,7.0249,7.2046,7.2122,7.1635,7.2747,7.6208,7.4905,7.4675,7.6387,7.4829,7.4675,7.6462,7.4829,7.4752,7.6462,7.6538,7.6538,7.6538,7.6538,7.6538,7.6538,7.6538,7.6538,7.6538,7.6538,7.6538,7.6521,7.7159,7.7798,7.8407,7.8407,7.8407,7.8407,7.8407,7.8407,7.8407,7.8407,7.8944,7.9598,7.9598,8.0124,8.0794,8.0794,8.0794,8.0823,8.0823,8.1272,8.1781,8.1781,8.1781,8.1961,8.2589,8.2844,8.2844,8.2844,8.2844,8.2844,8.2844,8.2844,8.2844,8.2844,8.2844,8.2844,8.2844,8.2844,8.2844,8.2844,8.2844,8.2844,8.2844,8.2844,8.2844,8.2844,8.2844,8.2844,8.2844,8.2844,8.2844,8.2844,8.2844,8.2844,8.2844,8.2844,8.2844,8.2844,8.2844,8.2844,8.2844,8.2769,8.3128,6.1315,6.1302,6.1283,6.0319,6.0791,6.164,6.1939,6.1066,6.0537,6.1341,6.2069,6.2621,6.2797,6.2822,6.2985,6.3448,6.3529,6.4123,6.5818,6.6443,6.7121,6.8222,6.942,7.0854,7.2483,7.1883,7.2747,7.6208,7.4905,7.4106,7.4675,7.5316,7.5393,7.4675,7.5316,7.5981,7.6462,7.6538,7.6538,7.6538,7.6538,7.6538,7.6538,7.6538,7.6695,7.713,7.713,7.7391,7.7856,7.803,7.8233,7.8407,7.8407,7.8407,7.8407,7.8407,7.8561,7.8762,7.8484,7.8944,7.9598,7.9598,7.9974,8.0423,8.072,8.1123,8.1482,8.1482,8.1961,8.2469,8.2469,8.2469,8.2529,8.2709,8.2844,8.2844,8.2844,8.2844,8.2844,8.2844,8.2844,8.2844,8.2844,8.2844,8.2844,8.2844,8.2844,8.2844,8.2844,8.2844,8.2844,8.2844,8.2844,8.2844,8.2844,8.2844,8.2844,8.2844,8.2844,8.2844,8.2844,8.2844,8.2844,8.2844,8.2844,8.2844,8.2844,8.2844,8.2844,8.2769,8.3247,8.3547,6.1643,6.1922,6.205,6.0479,6.1158,6.219,6.2406,6.1675,6.124,6.2144,6.2596,6.2822,6.2822,6.2822,6.2822,6.2822,6.2822,6.3123,6.4123,6.4896,6.566,6.6555,6.7748,6.9104,7.073,6.9882,7.0637,7.4183,7.2826,7.2164,7.2826,7.3219,7.3533,7.3873,7.4261,7.4752,7.5469,7.6132,7.6132,7.5497,7.6393,7.684,7.684,7.684,7.7188,7.7798,7.7798,7.8175,7.8756,7.8756,7.8901,7.9162,7.9162,7.9162,7.9162,7.9162,7.9317,7.9443,7.924,7.9675,8.0365,8.0365,8.0744,8.1272,8.1497,8.1871,8.217,8.217,8.2469,8.2844,8.2844,8.2844,8.2844,8.2844,8.2844,8.2844,8.2844,8.2844,8.2844,8.2844,8.2844,8.2844,8.2844,8.2844,8.2844,8.2844,8.2844,8.2844,8.2844,8.2844,8.2844,8.2844,8.2844,8.2844,8.2844,8.2844,8.2844,8.2844,8.2844,8.2844,8.2844,8.2844,8.2844,8.2844,8.2844,8.2844,8.2844,8.2844,8.2888,8.3158,8.3816,8.4414,6.1794,6.2004,6.1917,5.9588,6.094,6.2637,6.2143,6.2044,6.222,6.2722,6.2822,6.2822,6.2822,6.2822,6.2822,6.2822,6.2822,6.2822,6.2822,6.4148,6.4756,6.3841,6.5508,6.7008,6.7854,6.6865,6.7569,7.1042,6.9683,6.9436,7.0961,6.9656,7.0311,7.3298,7.2005,7.2085,7.3611,7.5393,7.5526,7.4035,7.6157,7.7221,7.7337,7.7431,7.7779,7.8234,7.8292,7.8639,7.9131,7.9316,7.9743,8.0294,8.0294,8.0294,8.0294,8.0294,8.0294,8.0373,8.0294,8.0844,8.1437,8.1437,8.2006,8.2693,8.2769,8.2769,8.2844,8.2844,8.2844,8.2844,8.2844,8.2844,8.2844,8.2844,8.2844,8.2844,8.2844,8.2844,8.2844,8.2844,8.2844,8.2844,8.2844,8.2844,8.2844,8.2844,8.2844,8.2844,8.2844,8.2844,8.2844,8.2844,8.2844,8.2844,8.2844,8.2844,8.2844,8.2844,8.2844,8.2844,8.2844,8.2844,8.2844,8.2844,8.2844,8.2844,8.2844,8.2844,8.3128,8.3846,8.4504,8.5521,6.2755,6.2867,6.2894,6.1927,6.2498,6.3052,6.2244,6.2345,6.2697,6.2797,6.2822,6.2822,6.2822,6.2822,6.2822,6.2822,6.2822,6.2822,6.2822,6.3123,6.3584,6.4262,6.4713,6.5978,6.8346,6.7095,6.7569,7.1042,6.9683,6.8857,6.9271,7.023,7.0474,6.9821,7.0799,7.1445,7.1845,7.3611,7.4515,7.4575,7.5058,7.578,7.6793,7.7731,7.7768,7.7048,7.7557,7.784,7.8063,7.948,8.0178,8.0294,8.0294,8.0294,8.0294,8.0294,8.053,8.0766,8.0373,8.0609,8.1078,8.1078,8.136,8.1823,8.213,8.2541,8.2844,8.2844,8.2844,8.2844,8.2844,8.2844,8.2844,8.2844,8.2844,8.2844,8.2844,8.2844,8.2844,8.2844,8.2844,8.2844,8.2844,8.2844,8.2844,8.2844,8.2844,8.2844,8.2844,8.2844,8.2844,8.2844,8.2844,8.2844,8.2844,8.2844,8.2844,8.2844,8.2844,8.2844,8.2844,8.2844,8.2844,8.2844,8.2844,8.2844,8.2844,8.2844,8.3367,8.4504,8.5162,8.621,6.4119,6.4152,6.4335,6.4184,6.3302,6.2607,6.3427,6.3164,6.2822,6.2822,6.2822,6.2822,6.2822,6.2822,6.2822,6.2822,6.2822,6.2822,6.2822,6.2822,6.3224,6.4329,6.4454,6.5302,6.7297,6.6601,6.6831,6.869,6.7964,6.7484,6.7484,6.8299,6.8773,6.869,6.9574,7.0066,7.0066,7.2039,7.2769,7.2261,7.3675,7.4826,7.582,7.6443,7.6361,7.582,7.7086,7.7582,7.7745,7.9523,8.0294,8.0294,8.0294,8.0294,8.0294,8.0294,8.0452,8.0609,8.0373,8.0687,8.1156,8.1,8.1437,8.213,8.2053,8.2465,8.2844,8.2844,8.2844,8.2844,8.2844,8.2844,8.2844,8.2844,8.2844,8.2844,8.2844,8.2844,8.2844,8.2844,8.2844,8.2844,8.2844,8.2844,8.2844,8.2844,8.2844,8.2844,8.2844,8.2844,8.2844,8.2844,8.2844,8.2844,8.2844,8.2844,8.2844,8.2844,8.2844,8.2844,8.2844,8.2844,8.2844,8.2844,8.2844,8.2918,8.3217,8.3217,8.3906,8.5192,8.5851,8.6718,6.5326,6.5065,6.5205,6.5928,6.3593,6.184,6.4424,6.3827,6.2822,6.2822,6.2822,6.2822,6.2822,6.2822,6.2822,6.2822,6.2822,6.2822,6.2822,6.2822,6.3224,6.4329,6.4454,6.4906,6.6011,6.6112,6.6112,6.6112,6.6112,6.6112,6.6112,6.6112,6.6746,6.8215,6.8215,6.8267,6.8371,7.0541,7.1053,6.9866,7.236,7.3729,7.393,7.393,7.4101,7.4527,7.6041,7.6649,7.6815,7.8613,7.9364,7.9364,7.9364,7.9364,7.9364,7.9364,7.9364,7.9443,7.9711,8.0265,8.0786,8.0394,8.1282,8.2359,8.1716,8.2053,8.2693,8.2769,8.2844,8.2844,8.2844,8.2844,8.2844,8.2844,8.2844,8.2844,8.2844,8.2844,8.2844,8.2844,8.2844,8.2844,8.2844,8.2844,8.2844,8.2844,8.2844,8.2844,8.2844,8.2844,8.2844,8.2844,8.2844,8.2844,8.2844,8.2844,8.2844,8.2844,8.2844,8.2844,8.2844,8.2858,8.2948,8.2948,8.2948,8.3247,8.3906,8.3906,8.4564,8.5881,8.6419,8.7107,6.5496,6.4033,6.3466,6.5842,6.3824,6.1626,6.3355,6.323,6.2822,6.2822,6.2822,6.2822,6.2822,6.2822,6.2822,6.2822,6.2822,6.2822,6.2822,6.2822,6.3224,6.4329,6.4454,6.4906,6.6011,6.6112,6.6112,6.6112,6.6112,6.6112,6.6112,6.6112,6.6197,6.6429,6.6429,6.6682,6.7187,6.8961,7.0219,7.1069,7.1983,7.1589,7.012,7.012,7.1049,7.2576,7.2837,7.2924,7.3097,7.4866,7.5623,7.5623,7.5623,7.5623,7.5623,7.5623,7.5623,7.5874,7.7418,7.7989,7.807,7.807,7.9494,8.0893,7.9646,8.0649,8.2312,8.2693,8.2844,8.2844,8.2844,8.2844,8.2844,8.2844,8.2844,8.2844,8.2844,8.2844,8.2844,8.2844,8.2844,8.2844,8.2844,8.2844,8.2844,8.2844,8.2844,8.2844,8.2844,8.2844,8.2844,8.2844,8.2844,8.2844,8.2844,8.2844,8.2844,8.2844,8.2844,8.2844,8.2844,8.3307,8.3606,8.3606,8.3606,8.3936,8.4594,8.4594,8.5252,8.6539,8.6629,8.7347,6.742,6.5782,6.4691,6.7452,6.479,6.2103,6.4345,6.3746,6.2822,6.2822,6.2822,6.2822,6.2822,6.2822,6.2822,6.2822,6.2822,6.2822,6.2822,6.2822,6.3224,6.4329,6.4454,6.4906,6.6011,6.6112,6.6112,6.6112,6.6112,6.6112,6.6112,6.6112,6.6112,6.6112,6.6112,6.6388,6.6965,6.8,6.9148,7.0272,7.0502,7.0209,6.9361,6.9361,6.9876,7.0719,7.1728,7.2167,7.2315,7.4186,7.4866,7.4866,7.4866,7.4866,7.4866,7.4866,7.4866,7.5035,7.579,7.6897,7.788,7.7663,7.9226,8.1127,8.0522,8.1146,8.2206,8.2693,8.2844,8.2844,8.2844,8.2844,8.2844,8.2844,8.2844,8.2844,8.2844,8.2844,8.2844,8.2844,8.2844,8.2844,8.2844,8.2844,8.2844,8.2844,8.2844,8.2844,8.2844,8.2844,8.2844,8.2844,8.2844,8.2844,8.2844,8.2844,8.2844,8.2844,8.3098,8.3307,8.3307,8.3936,8.4444,8.4833,8.4474,8.4594,8.5252,8.5252,8.5761,8.6689,8.6689,8.6988,6.8345,6.6832,6.5501,6.7517,6.4883,6.2422,6.4691,6.4046,6.2904,6.2822,6.2822,6.2822,6.2822,6.2822,6.2822,6.2822,6.2822,6.2822,6.2822,6.2822,6.3224,6.4329,6.4454,6.4906,6.6011,6.6112,6.6112,6.6112,6.6112,6.6112,6.6112,6.6112,6.6112,6.6112,6.6262,6.6614,6.7191,6.7869,6.8622,6.9361,6.9361,6.9361,6.9361,6.9361,6.9361,6.9451,7.0897,7.149,7.1553,7.2924,7.3528,7.3528,7.3528,7.3528,7.3528,7.3528,7.3528,7.3587,7.4015,7.5623,7.7362,7.7144,7.9038,8.1282,8.102,8.1485,8.213,8.2541,8.2693,8.2769,8.2693,8.2693,8.2844,8.2844,8.2844,8.2844,8.2844,8.2844,8.2844,8.2844,8.2844,8.2844,8.2844,8.2844,8.2844,8.2844,8.2844,8.2844,8.2844,8.2844,8.2844,8.2844,8.2844,8.2844,8.2844,8.2844,8.2828,8.3008,8.3457,8.3816,8.3965,8.4624,8.5192,8.5671,8.5372,8.5462,8.594,8.594,8.621,8.6689,8.6689,8.6689,6.6899,6.5467,6.4237,6.4176,6.2971,6.2084,6.3197,6.3414,6.3311,6.2904,6.2822,6.2822,6.2822,6.2822,6.2822,6.2822,6.2822,6.2822,6.2822,6.2822,6.3224,6.4329,6.4454,6.4906,6.6011,6.6112,6.6112,6.6112,6.6112,6.6112,6.6112,6.6112,6.6112,6.6112,6.6639,6.7191,6.7744,6.8823,6.9285,6.9361,6.9361,6.9361,6.9361,6.9361,6.9361,6.9451,6.9516,6.9516,6.9516,6.9606,6.9696,6.9696,6.9696,6.9696,6.9696,6.9696,6.9696,6.9966,7.1728,7.3501,7.5119,7.5512,7.8014,8.0737,7.9805,8.0698,8.213,8.213,8.2465,8.2693,8.2206,8.2465,8.2844,8.2844,8.2844,8.2844,8.2844,8.2844,8.2844,8.2844,8.2844,8.2844,8.2844,8.2844,8.2844,8.2844,8.2844,8.2844,8.2844,8.2844,8.2844,8.2844,8.2844,8.2844,8.2844,8.2844,8.3008,8.3636,8.3726,8.4025,8.4624,8.5282,8.5671,8.5701,8.627,8.6599,8.6629,8.6629,8.6629,8.6689,8.6689,8.6689,6.7122,6.5751,6.4455,6.3947,6.2996,6.232,6.2723,6.3228,6.3392,6.2904,6.2822,6.2822,6.2822,6.2822,6.2822,6.2822,6.2822,6.2822,6.2822,6.2822,6.3124,6.3877,6.4254,6.4756,6.5509,6.5911,6.6112,6.6112,6.6112,6.6112,6.6112,6.6112,6.6112,6.6112,6.6664,6.7417,6.8321,6.9074,6.9361,6.9361,6.9361,6.9361,6.9361,6.9361,6.9361,6.9361,6.9361,6.9361,6.9361,6.9361,6.9361,6.9361,6.9361,6.9361,6.9361,6.9361,6.9361,6.9541,7.0209,7.1812,7.3713,7.3887,7.5765,7.8039,7.7984,7.812,7.8743,8.0491,8.0755,8.0932,8.2176,8.2693,8.2844,8.2844,8.2844,8.2844,8.2844,8.2844,8.2844,8.2844,8.2844,8.2844,8.2844,8.2844,8.2844,8.2844,8.2844,8.2844,8.2844,8.2844,8.2844,8.2844,8.2844,8.2844,8.2844,8.3128,8.3487,8.3726,8.4534,8.5103,8.5342,8.597,8.6329,8.6329,8.6569,8.6689,8.6689,8.6689,8.6689,8.6689,8.6689,8.6689,6.7179,6.5751,6.4428,6.3559,6.2789,6.2191,6.2335,6.294,6.3392,6.2904,6.2822,6.2822,6.2822,6.2822,6.2822,6.2822,6.2822,6.2822,6.2822,6.2822,6.3048,6.3626,6.4153,6.468,6.5233,6.5785,6.6112,6.6112,6.6112,6.6112,6.6112,6.6112,6.6287,6.6664,6.7041,6.7769,6.8899,6.925,6.9361,6.9361,6.9361,6.9361,6.9361,6.9361,6.9361,6.9361,6.9361,6.9361,6.9361,6.9361,6.9361,6.9451,6.9652,6.9727,6.9752,6.9928,7.0003,7.0003,7.0003,7.1448,7.3291,7.3468,7.4913,7.6748,7.7131,7.7029,7.7176,7.9425,7.9884,8.012,8.2023,8.2693,8.2844,8.2844,8.2844,8.2844,8.2844,8.2844,8.2844,8.2844,8.2844,8.2844,8.2844,8.2844,8.2844,8.2844,8.2844,8.2844,8.2844,8.2844,8.2844,8.2844,8.2948,8.3098,8.3098,8.3696,8.4145,8.4384,8.5222,8.5791,8.603,8.6449,8.6689,8.6689,8.6689,8.6689,8.6689,8.6689,8.6689,8.6689,8.6689,8.6689,0.0,0.0,0.0,6.2688,6.207,6.1774,6.1824,6.2687,6.3392,6.2904,6.2822,6.2822,6.2822,6.2822,6.2822,6.2822,6.2822,6.2822,6.2822,6.2822,6.3048,6.3601,6.4128,6.468,6.5208,6.5785,6.6112,6.6112,6.6112,6.6112,6.6112,6.6137,6.6639,6.7769,6.7819,6.8346,6.9336,6.9361,6.9361,6.9361,6.9361,6.9361,6.9361,6.9361,6.9451,6.9476,6.9476,6.9476,6.9501,6.9476,6.9476,6.9551,7.0079,7.028,7.0355,7.0882,7.1083,7.1083,7.1083,7.2226,7.3802,7.4197,7.547,7.701,7.7369,7.7427,7.7677,7.8968,7.9596,8.0228,8.1639,8.2435,8.2844,8.2844,8.2844,8.2844,8.2844,8.2844,8.2844,8.2844,8.2844,8.2844,8.2844,8.2844,8.2844,8.2844,8.2844,8.2844,8.2844,8.2844,8.2769,8.2769,8.3367,8.3756,8.3756,8.4354,8.5013,8.5671,8.5701,8.6,8.6659,8.6689,8.6689,8.6689,8.6689,8.6689,8.6689,8.6689,8.6689,8.6689,8.6689,8.6689,6.5253,0.0,0.0,0.0,0.0,0.0,6.1403,6.2446,6.3392,6.2904,6.2822,6.2822,6.2822,6.2822,6.2822,6.2822,6.2822,6.2822,6.2822,6.2822,6.2898,6.3048,6.3902,6.453,6.468,6.5559,6.6112,0.0,6.6112,6.6112,6.6112,6.6513,6.7066,6.7769,6.8196,6.8723,6.9336,6.9361,6.9361,6.9361,6.9361,6.9361,6.9361,6.9361,6.9652,7.0029,7.0029,7.0255,7.0606,7.0204,7.028,7.0656,7.0807,7.0857,7.0882,7.1033,7.1083,7.1083,7.1083,7.1704,7.247,7.2537,7.288,7.3378,7.3859,7.3414,7.3242,7.5175,7.5756,7.6594,7.9805,8.1687,8.2844,8.2844,8.2844,8.2844,8.2844,8.2844,8.2844,8.2844,8.2844,8.2844,8.2844,8.2844,8.2844,8.2844,8.2844,8.2844,8.2844,8.2844,8.2948,8.3397,8.3636,8.3936,8.4414,8.5043,8.5492,8.5671,8.615,8.6479,8.6659,8.6689,8.6689,8.6689,8.6689,8.6689,8.6689,8.6689,8.6689,8.6689,8.6689,8.6689,6.6314,6.5009,6.3848,6.2496,0.0,0.0,6.1706,6.2517,6.3392,6.3148,6.323,6.3311,6.3148,6.3067,6.3067,6.2822,6.2822,6.2822,6.2822,6.2822,6.2822,6.2822,6.3802,6.4454,6.4454,6.5459,6.6112,6.6112,6.6112,6.6112,6.6112,6.6664,6.7241,6.7769,6.8346,6.8899,6.9336,6.9361,6.9361,6.9361,6.9361,6.9551,6.9777,6.9777,7.0079,7.0606,7.0606,7.0907,7.141,7.1083,7.1008,7.1108,7.1334,7.1435,7.146,7.1686,7.1761,7.1761,7.1761,7.1836,7.1912,7.1912,7.1761,7.1603,7.2115,7.1672,7.1538,7.3853,7.5052,7.629,7.93,8.0883,8.184,8.2587,8.2844,8.2844,8.2844,8.2844,8.2844,8.2844,8.2844,8.2844,8.2844,8.2844,8.2844,8.2844,8.2844,8.2844,8.2844,8.3008,8.3307,8.3696,8.4235,8.4714,8.5103,8.5731,8.609,8.609,8.6449,8.6689,8.6689,8.6689,8.6689,8.6689,8.6689,8.6689,8.6689,8.6689,8.6689,8.6689,8.6689,8.6689,6.8509,6.7557,6.6746,6.5951,6.4512,0.0,6.2189,6.2745,6.3392,6.3392,6.3716,6.3878,6.3473,6.3392,6.3311,6.2904,6.2822,6.2822,6.2822,6.2822,6.2822,6.2822,6.3751,6.4404,6.4454,6.5409,6.6036,6.6112,6.6112,6.6112,6.6112,6.6714,6.7292,6.7769,6.8396,6.8949,6.9451,6.9361,6.9361,6.9361,6.9501,6.9777,7.0255,7.033,7.0656,7.1184,7.1184,7.1485,7.1987,7.1987,7.1711,7.1309,7.1811,7.1987,7.2062,7.2539,7.269,7.264,7.264,7.2288,7.1811,7.1811,7.1435,7.1092,7.1497,7.1293,7.1474,7.3887,7.5818,7.7526,7.9089,7.9646,8.0306,8.21,8.2511,8.2587,8.2769,8.2844,8.2844,8.2844,8.2844,8.2844,8.2844,8.2844,8.2844,8.2844,8.2828,8.2858,8.2858,8.3427,8.3876,8.3936,8.4983,8.5731,8.5791,8.6329,8.6689,8.6689,8.6689,8.6689,8.6689,8.6689,8.6689,8.6689,8.6689,8.6689,8.6689,8.6689,8.6689,8.6689,8.6689,8.6689,6.7193,6.5633,6.4376,6.4456,6.3363,0.0,6.2049,6.2527,6.2904,6.2904,6.2985,6.2985,6.2985,6.2904,6.2904,6.2822,6.2822,6.2822,6.2822,6.2822,6.2822,6.2822,6.3425,6.4002,6.4429,6.5057,6.5634,6.6086,6.6112,6.6112,6.6112,6.7091,6.7693,6.7794,6.8773,6.9235,6.9361,6.9361,6.9361,6.9451,6.9878,7.0154,7.028,7.0732,7.1234,7.1736,7.1736,7.2062,7.2565,7.2565,7.2514,7.2414,7.2514,7.2565,7.259,7.269,7.2439,7.2062,7.2062,7.1711,7.1259,7.1259,7.0857,7.0588,7.1008,7.1038,7.1191,7.2472,7.3753,7.5035,7.5734,7.6952,7.8418,8.0228,8.062,8.1039,8.2511,8.2844,8.2844,8.2844,8.2844,8.2844,8.2844,8.2844,8.2844,8.2844,8.3217,8.3547,8.3547,8.4115,8.4714,8.5252,8.5551,8.591,8.6449,8.6599,8.6689,8.6689,8.6689,8.6689,8.6689,8.6689,8.6689,8.6689,8.6689,8.6689,8.6689,8.6689,8.6689,8.6689,8.6689,8.6689,6.8503,6.7514,6.6726,6.7128,6.5895,0.0,0.0,6.3406,6.3148,6.3148,6.3311,6.3392,6.3148,6.3148,6.3067,6.2822,6.2822,6.2822,6.2822,6.2822,6.2822,6.2822,6.335,6.3802,6.4053,6.4806,6.5509,6.6061,6.6112,6.6112,6.6112,6.7191,6.7794,6.7794,6.8874,6.9361,6.9361,6.9361,6.9577,6.9853,7.0129,7.0556,7.1083,7.1359,7.1786,7.2313,7.2313,7.2464,7.274,7.274,7.2565,7.2339,7.2615,7.2565,7.2313,7.2313,7.1962,7.1485,7.1485,7.1133,7.0681,7.0681,7.0305,6.9944,7.0486,7.0911,7.1329,7.1858,7.2594,7.3495,7.4581,7.6235,7.7933,7.9646,8.0805,8.1687,8.2587,8.2844,8.2844,8.2844,8.2844,8.2844,8.2844,8.2844,8.2858,8.3187,8.3517,8.3846,8.4175,8.4803,8.5342,8.5671,8.6,8.6329,8.6659,8.6689,8.6689,8.6689,8.6689,8.6689,8.6689,8.6689,8.6689,8.6689,8.6689,8.6689,8.6689,8.6689,8.6689,8.6689,8.6689,8.6689,6.942,6.9207,6.9076,6.9309,6.7955,6.6266,0.0,0.0,0.0,6.3392,6.3635,6.3716,6.3392,6.3392,6.3154,6.2627,6.2697,6.2747,6.2546,6.2697,6.2822,6.2822,6.3249,6.3576,6.3676,6.4655,6.5509,6.6061,6.6112,6.6112,6.6112,6.7191,6.7794,6.7794,6.8874,6.9361,6.9361,6.9361,6.9727,7.0255,7.0355,7.0932,7.1912,7.2012,7.2313,7.274,7.274,7.2665,7.2565,7.2565,7.2238,7.1811,7.2364,7.2238,7.1761,7.1761,7.141,7.0932,7.0932,7.0556,7.0104,7.0104,6.9803,6.9541,7.0056,7.0681,7.1417,7.1594,7.1858,7.2533,7.401,7.5399,7.6952,7.866,8.0463,8.187,8.2176,8.2511,8.2844,8.2844,8.2858,8.2918,8.2769,8.2858,8.3128,8.3666,8.3965,8.4295,8.4833,8.5492,8.5881,8.5881,8.6359,8.6689,8.6689,8.6689,8.6689,8.6689,8.6689,8.6689,8.6689,8.6689,8.6689,8.6689,8.6689,8.6689,8.6689,8.6689,8.6689,8.6689,8.6689,8.6689,6.6623,6.6364,6.6337,6.6312,6.5161,6.375,6.3204,0.0,6.2904,6.2904,0.0,6.2904,6.2904,0.0,0.0,6.1517,6.2195,6.2496,6.1517,6.222,6.2822,6.2822,6.2898,6.3124,6.3651,6.4655,6.5509,6.6061,6.6112,6.6112,6.6112,6.7191,6.7794,6.7794,6.8874,6.9361,6.9361,6.9361,6.9727,7.028,7.0757,7.1309,7.1937,7.2414,7.2665,7.274,7.274,7.2439,7.1987,7.1987,7.1686,7.1234,7.1786,7.1661,7.1184,7.1184,7.0832,7.0355,7.0355,7.0003,6.9526,6.9526,6.9501,6.9541,7.0056,7.0235,7.0503,7.1417,7.1682,7.1858,7.2472,7.2708,7.3376,7.5089,7.6787,7.8499,8.007,8.1687,8.2844,8.2844,8.3217,8.3427,8.2858,8.3247,8.3636,8.3726,8.4714,8.5492,8.5581,8.615,8.6569,8.6569,8.6629,8.6689,8.6689,8.6689,8.6689,8.6689,8.6689,8.6689,8.6689,8.6689,8.6689,8.6689,8.6689,8.6689,8.6689,8.6689,8.6689,8.6689,8.6689,8.6689,6.7958,6.7088,6.6027,6.6701,6.587,6.4975,6.5503,6.4203,6.3067,6.4068,0.0,0.0,0.0,0.0,0.0,0.0,6.2521,6.2672,6.2195,6.2546,6.2822,6.2822,6.2822,0.0,6.3626,6.4379,6.5032,6.5584,6.5936,6.6112,6.6112,6.7191,6.7794,6.7794,6.8874,6.9361,6.9361,6.9752,7.0204,7.0757,7.1309,7.1861,7.2389,7.2615,7.2565,7.2263,7.2263,7.1937,7.1435,7.1435,7.1108,7.0631,7.0857,7.0807,7.0606,7.0606,7.0255,6.9777,6.9777,6.9627,6.9361,6.9361,6.9361,6.9541,7.0056,7.0414,7.077,7.1417,7.177,7.2034,7.221,7.3029,7.401,7.475,7.6235,7.7689,7.8418,7.9963,8.1311,8.1772,8.2795,8.3756,8.3876,8.4115,8.4444,8.4803,8.5342,8.5821,8.621,8.6509,8.6689,8.6689,8.6689,8.6689,8.6689,8.6689,8.6689,8.6689,8.6689,8.6689,8.6689,8.6689,8.6689,8.6689,8.6689,8.6689,8.6689,8.6689,8.6689,8.6689,8.6689,8.6689,6.7526,6.6728,6.5319,6.6183,6.5791,6.5424,6.6183,6.4497,6.3148,6.4363,6.3691,0.0,0.0,0.0,6.2722,6.2421,0.0,6.2722,6.2421,6.2647,6.2822,6.2822,6.2822,0.0,0.0,6.4178,6.4705,6.5258,6.581,6.6112,6.6112,6.7191,6.7794,6.7794,6.8874,6.9361,6.9361,6.9978,7.0531,7.1083,7.1636,7.2113,7.2514,7.2514,7.2213,7.1686,7.1686,7.1359,7.0857,7.0857,7.0531,7.0029,7.0029,7.0029,7.0029,7.0029,6.9777,6.9361,6.9361,6.9361,6.9361,6.9361,6.9361,6.9451,6.9901,7.0235,7.0618,7.1214,7.1682,7.1946,7.221,7.3203,7.4208,7.4369,7.5729,7.7093,7.726,7.9011,8.0788,8.1252,8.289,8.4414,8.4893,8.4983,8.5132,8.5611,8.5851,8.615,8.6629,8.6689,8.6689,8.6689,8.6689,8.6689,8.6689,8.6689,8.6689,8.6689,8.6689,8.6689,8.6689,8.6689,8.6689,8.6689,8.6689,8.6689,8.6689,8.6689,8.6689,8.6689,8.6689,8.6689,6.2985,6.3311,6.3473,6.3067,6.3311,6.3473,6.3067,6.2904,6.2822,6.2904,6.2822,6.2822,6.2822,6.2822,6.2471,6.1416,6.2119,0.0,0.0,6.2144,6.2822,6.2822,6.2822,6.3048,0.0,6.4178,6.4705,0.0,6.581,6.6112,6.6112,6.7191,6.7794,6.7794,6.8874,6.9361,6.9361,6.9978,7.0531,7.1083,7.1636,7.1912,7.1937,7.1937,7.1636,7.1108,7.1108,7.0807,7.028,7.028,6.9978,6.9476,6.9476,6.9476,6.9476,6.9476,6.9451,6.9361,6.9361,6.9361,6.9361,6.9361,6.9361,6.9361,6.9451,6.9451,6.9631,7.0592,7.0948,7.1126,7.2034,7.2297,7.2516,7.3039,7.4521,7.601,7.6494,7.9463,8.1978,8.2007,8.3952,8.5641,8.5671,8.5671,8.5671,8.5701,8.624,8.6659,8.6689,8.6689,8.6689,8.6689,8.6689,8.6689,8.6689,8.6689,8.6689,8.6689,8.6689,8.6689,8.6689,8.6689,8.6689,8.6689,8.6689,8.6689,8.6689,8.6689,8.6689,8.6689,8.6689,8.6689,6.479,6.4332,6.3464,6.2923,6.2904,6.3311,6.4203,6.361,6.3204,6.4603,6.3746,6.2904,6.323,6.2985,6.2697,0.0,0.0,0.0,0.0,6.2596,6.2822,6.2822,6.2822,6.2898,6.3099,0.0,0.0,0.0,6.5584,0.0,6.6112,6.7191,6.7794,6.7794,6.8874,6.9361,6.9361,7.0355,7.0907,7.1083,7.1636,7.1912,7.1887,7.1535,7.1058,7.0531,7.0531,7.0229,6.9727,6.9727,6.9602,6.9361,6.9361,6.9361,6.9361,6.9361,6.9361,6.9361,6.9361,6.9361,6.9361,6.9361,6.9702,6.9978,6.9978,7.0412,7.117,7.1832,7.2258,7.2617,7.3243,7.3421,7.3474,7.3656,7.4128,7.4686,7.4809,7.7689,8.0408,8.0834,8.3526,8.5821,8.627,8.6329,8.6329,8.6329,8.6539,8.6689,8.6689,8.6689,8.6689,8.6689,8.6689,8.6689,8.6689,8.6689,8.6689,8.6689,8.6689,8.6689,8.6689,8.6689,8.6689,8.6689,8.6689,8.6689,8.6689,8.6689,8.6689,8.6689,8.7137,8.7347,6.538,6.4729,6.3877,6.35,6.3274,6.3369,6.4456,6.3762,6.3204,6.4523,6.3746,6.2904,6.323,6.2985,6.2822,0.0,0.0,0.0,0.0,6.2822,6.2822,6.2822,6.2822,6.2822,6.2822,0.0,0.0,0.0,0.0,0.0,0.0,6.7191,6.7794,6.7794,6.8874,6.9526,6.9727,7.0631,7.1083,7.1083,7.1636,7.1711,7.1309,7.0958,7.048,6.9978,6.9978,6.9777,6.9361,6.9361,6.9361,6.9361,6.9361,6.9361,6.9361,6.9361,6.9361,6.9476,6.9677,6.9727,6.9777,6.9953,7.028,7.0556,7.0556,7.1083,7.1636,7.2211,7.2551,7.2914,7.3547,7.3727,7.3869,7.4284,7.4336,7.4388,7.4571,7.6985,7.9232,7.9649,8.2602,8.5247,8.5691,8.6261,8.6689,8.6689,8.6689,8.6689,8.6689,8.6689,8.6689,8.6689,8.6689,8.6689,8.6689,8.6689,8.6689,8.6689,8.6689,8.6689,8.6689,8.6689,8.6778,8.7048,8.6808,8.6808,8.7048,8.7048,8.7048,8.7048,8.7736,8.8185]}]]